<?xml version="1.0" encoding="UTF-8" standalone="no" ?>
<gpx xmlns="http://www.topografix.com/GPX/1/1" xmlns:xsi="http://www.w3.org/2001/XMLSchema-instance" xsi:schemaLocation="http://www.topografix.com/GPX/1/1 http://www.topografix.com/GPX/1/1/gpx.xsd" version="1.1" creator="VisuGPX - https://www.visugpx.com">
  <metadata>
    <name>VTT - Launaguet-Montberon -Launaguet</name>
  </metadata>
  <trk>
    <name><![CDATA[VTT - Launaguet-Montberon -Launaguet]]></name>
    <extensions>
      <line xmlns="http://www.topografix.com/GPX/gpx_style/0/2">
        <color>0000FF</color>
        <width>4</width>
          <extensions>
            <sens>1</sens>
          </extensions>
      </line>
    </extensions>
    <trkseg>
      <trkpt lat="43.65582" lon="1.44576">
        <ele>177.505014</ele>
        <time>2022-03-26T14:21:00.965Z</time>
      </trkpt>
      <trkpt lat="43.65564" lon="1.44571">
        <ele>177.505014</ele>
        <time>2022-03-26T14:21:17.079Z</time>
      </trkpt>
      <trkpt lat="43.65554" lon="1.44576">
        <ele>177.505014</ele>
        <time>2022-03-26T14:21:23.047Z</time>
      </trkpt>
      <trkpt lat="43.65548" lon="1.44588">
        <ele>177.505014</ele>
        <time>2022-03-26T14:21:28.031Z</time>
      </trkpt>
      <trkpt lat="43.65543" lon="1.44599">
        <ele>177.505014</ele>
        <time>2022-03-26T14:21:35.068Z</time>
      </trkpt>
      <trkpt lat="43.65544" lon="1.44612">
        <ele>177.505014</ele>
        <time>2022-03-26T14:21:40.047Z</time>
      </trkpt>
      <trkpt lat="43.65554" lon="1.44617">
        <ele>177.505014</ele>
        <time>2022-03-26T14:21:45.056Z</time>
      </trkpt>
      <trkpt lat="43.65563" lon="1.44621">
        <ele>177.505014</ele>
        <time>2022-03-26T14:21:49.045Z</time>
      </trkpt>
      <trkpt lat="43.65573" lon="1.44625">
        <ele>177.505014</ele>
        <time>2022-03-26T14:21:53.090Z</time>
      </trkpt>
      <trkpt lat="43.65583" lon="1.4463">
        <ele>177.409627</ele>
        <time>2022-03-26T14:21:56.046Z</time>
      </trkpt>
      <trkpt lat="43.65594" lon="1.44636">
        <ele>177.29372</ele>
        <time>2022-03-26T14:22:00.064Z</time>
      </trkpt>
      <trkpt lat="43.65603" lon="1.44643">
        <ele>177.184212</ele>
        <time>2022-03-26T14:22:04.067Z</time>
      </trkpt>
      <trkpt lat="43.65607" lon="1.44656">
        <ele>177.080849</ele>
        <time>2022-03-26T14:22:08.054Z</time>
      </trkpt>
      <trkpt lat="43.65603" lon="1.4467">
        <ele>176.971663</ele>
        <time>2022-03-26T14:22:12.068Z</time>
      </trkpt>
      <trkpt lat="43.65597" lon="1.44681">
        <ele>176.874692</ele>
        <time>2022-03-26T14:22:15.067Z</time>
      </trkpt>
      <trkpt lat="43.65592" lon="1.44692">
        <ele>176.778295</ele>
        <time>2022-03-26T14:22:18.070Z</time>
      </trkpt>
      <trkpt lat="43.65586" lon="1.44703">
        <ele>176.678383</ele>
        <time>2022-03-26T14:22:21.073Z</time>
      </trkpt>
      <trkpt lat="43.6558" lon="1.44716">
        <ele>176.570665</ele>
        <time>2022-03-26T14:22:24.060Z</time>
      </trkpt>
      <trkpt lat="43.65574" lon="1.44728">
        <ele>176.461327</ele>
        <time>2022-03-26T14:22:27.059Z</time>
      </trkpt>
      <trkpt lat="43.65567" lon="1.44741">
        <ele>176.349073</ele>
        <time>2022-03-26T14:22:30.070Z</time>
      </trkpt>
      <trkpt lat="43.6556" lon="1.44754">
        <ele>176.228593</ele>
        <time>2022-03-26T14:22:33.066Z</time>
      </trkpt>
      <trkpt lat="43.65554" lon="1.44767">
        <ele>176.114576</ele>
        <time>2022-03-26T14:22:36.063Z</time>
      </trkpt>
      <trkpt lat="43.65547" lon="1.44779">
        <ele>176.002892</ele>
        <time>2022-03-26T14:22:39.080Z</time>
      </trkpt>
      <trkpt lat="43.65541" lon="1.44791">
        <ele>175.897604</ele>
        <time>2022-03-26T14:22:42.062Z</time>
      </trkpt>
      <trkpt lat="43.65535" lon="1.44802">
        <ele>175.797026</ele>
        <time>2022-03-26T14:22:45.083Z</time>
      </trkpt>
      <trkpt lat="43.65527" lon="1.44812">
        <ele>175.709648</ele>
        <time>2022-03-26T14:22:48.063Z</time>
      </trkpt>
      <trkpt lat="43.65518" lon="1.44824">
        <ele>175.790306</ele>
        <time>2022-03-26T14:22:51.053Z</time>
      </trkpt>
      <trkpt lat="43.65512" lon="1.44839">
        <ele>175.873625</ele>
        <time>2022-03-26T14:22:54.080Z</time>
      </trkpt>
      <trkpt lat="43.65507" lon="1.44855">
        <ele>175.95719</ele>
        <time>2022-03-26T14:22:57.081Z</time>
      </trkpt>
      <trkpt lat="43.65501" lon="1.4487">
        <ele>176.043498</ele>
        <time>2022-03-26T14:23:00.085Z</time>
      </trkpt>
      <trkpt lat="43.65494" lon="1.44885">
        <ele>176.128687</ele>
        <time>2022-03-26T14:23:03.060Z</time>
      </trkpt>
      <trkpt lat="43.65487" lon="1.44898">
        <ele>176.206066</ele>
        <time>2022-03-26T14:23:06.056Z</time>
      </trkpt>
      <trkpt lat="43.65482" lon="1.44909">
        <ele>176.266137</ele>
        <time>2022-03-26T14:23:10.073Z</time>
      </trkpt>
      <trkpt lat="43.65477" lon="1.44929">
        <ele>176.364983</ele>
        <time>2022-03-26T14:23:33.052Z</time>
      </trkpt>
      <trkpt lat="43.65481" lon="1.4494">
        <ele>176.425045</ele>
        <time>2022-03-26T14:23:36.071Z</time>
      </trkpt>
      <trkpt lat="43.65487" lon="1.44952">
        <ele>176.495487</ele>
        <time>2022-03-26T14:23:39.062Z</time>
      </trkpt>
      <trkpt lat="43.65495" lon="1.44964">
        <ele>176.571462</ele>
        <time>2022-03-26T14:23:42.051Z</time>
      </trkpt>
      <trkpt lat="43.65502" lon="1.44976">
        <ele>176.646333</ele>
        <time>2022-03-26T14:23:45.068Z</time>
      </trkpt>
      <trkpt lat="43.65511" lon="1.44988">
        <ele>176.730621</ele>
        <time>2022-03-26T14:23:48.064Z</time>
      </trkpt>
      <trkpt lat="43.65518" lon="1.44997">
        <ele>176.790456</ele>
        <time>2022-03-26T14:23:50.087Z</time>
      </trkpt>
      <trkpt lat="43.65526" lon="1.4501">
        <ele>176.877748</ele>
        <time>2022-03-26T14:23:53.069Z</time>
      </trkpt>
      <trkpt lat="43.65532" lon="1.4502">
        <ele>176.90153</ele>
        <time>2022-03-26T14:23:55.080Z</time>
      </trkpt>
      <trkpt lat="43.65539" lon="1.45029">
        <ele>176.911043</ele>
        <time>2022-03-26T14:23:57.067Z</time>
      </trkpt>
      <trkpt lat="43.65545" lon="1.45037">
        <ele>176.920489</ele>
        <time>2022-03-26T14:23:59.056Z</time>
      </trkpt>
      <trkpt lat="43.65551" lon="1.45046">
        <ele>176.930062</ele>
        <time>2022-03-26T14:24:01.059Z</time>
      </trkpt>
      <trkpt lat="43.65558" lon="1.45056">
        <ele>176.939618</ele>
        <time>2022-03-26T14:24:03.061Z</time>
      </trkpt>
      <trkpt lat="43.65564" lon="1.45066">
        <ele>176.950156</ele>
        <time>2022-03-26T14:24:05.073Z</time>
      </trkpt>
      <trkpt lat="43.65571" lon="1.45075">
        <ele>176.960221</ele>
        <time>2022-03-26T14:24:07.064Z</time>
      </trkpt>
      <trkpt lat="43.65578" lon="1.45084">
        <ele>176.969996</ele>
        <time>2022-03-26T14:24:09.051Z</time>
      </trkpt>
      <trkpt lat="43.65585" lon="1.45094">
        <ele>176.980848</ele>
        <time>2022-03-26T14:24:11.065Z</time>
      </trkpt>
      <trkpt lat="43.65592" lon="1.45105">
        <ele>176.991806</ele>
        <time>2022-03-26T14:24:13.061Z</time>
      </trkpt>
      <trkpt lat="43.65599" lon="1.45116">
        <ele>177.002657</ele>
        <time>2022-03-26T14:24:15.070Z</time>
      </trkpt>
      <trkpt lat="43.65604" lon="1.45128">
        <ele>177.01346</ele>
        <time>2022-03-26T14:24:17.062Z</time>
      </trkpt>
      <trkpt lat="43.65604" lon="1.45143">
        <ele>177.024465</ele>
        <time>2022-03-26T14:24:19.057Z</time>
      </trkpt>
      <trkpt lat="43.656" lon="1.45155">
        <ele>177.03457</ele>
        <time>2022-03-26T14:24:21.069Z</time>
      </trkpt>
      <trkpt lat="43.65589" lon="1.45165">
        <ele>177.0483</ele>
        <time>2022-03-26T14:24:24.064Z</time>
      </trkpt>
      <trkpt lat="43.65579" lon="1.45176">
        <ele>177.061731</ele>
        <time>2022-03-26T14:24:27.069Z</time>
      </trkpt>
      <trkpt lat="43.65572" lon="1.45185">
        <ele>177.071833</ele>
        <time>2022-03-26T14:24:29.063Z</time>
      </trkpt>
      <trkpt lat="43.65565" lon="1.45194">
        <ele>177.082536</ele>
        <time>2022-03-26T14:24:31.063Z</time>
      </trkpt>
      <trkpt lat="43.65557" lon="1.45203">
        <ele>177.162339</ele>
        <time>2022-03-26T14:24:33.076Z</time>
      </trkpt>
      <trkpt lat="43.65549" lon="1.4521">
        <ele>177.243917</ele>
        <time>2022-03-26T14:24:35.075Z</time>
      </trkpt>
      <trkpt lat="43.65541" lon="1.45219">
        <ele>177.326818</ele>
        <time>2022-03-26T14:24:37.054Z</time>
      </trkpt>
      <trkpt lat="43.65534" lon="1.45227">
        <ele>177.410268</ele>
        <time>2022-03-26T14:24:39.063Z</time>
      </trkpt>
      <trkpt lat="43.65526" lon="1.45237">
        <ele>177.495808</ele>
        <time>2022-03-26T14:24:41.061Z</time>
      </trkpt>
      <trkpt lat="43.65518" lon="1.45245">
        <ele>177.584503</ele>
        <time>2022-03-26T14:24:43.056Z</time>
      </trkpt>
      <trkpt lat="43.6551" lon="1.45254">
        <ele>177.670282</ele>
        <time>2022-03-26T14:24:45.063Z</time>
      </trkpt>
      <trkpt lat="43.65502" lon="1.45262">
        <ele>177.755163</ele>
        <time>2022-03-26T14:24:47.059Z</time>
      </trkpt>
      <trkpt lat="43.65494" lon="1.4527">
        <ele>177.837426</ele>
        <time>2022-03-26T14:24:49.087Z</time>
      </trkpt>
      <trkpt lat="43.65487" lon="1.45278">
        <ele>177.918324</ele>
        <time>2022-03-26T14:24:51.057Z</time>
      </trkpt>
      <trkpt lat="43.65479" lon="1.45286">
        <ele>177.998815</ele>
        <time>2022-03-26T14:24:53.080Z</time>
      </trkpt>
      <trkpt lat="43.65471" lon="1.45294">
        <ele>178.079502</ele>
        <time>2022-03-26T14:24:55.067Z</time>
      </trkpt>
      <trkpt lat="43.65461" lon="1.45306">
        <ele>178.195148</ele>
        <time>2022-03-26T14:24:58.059Z</time>
      </trkpt>
      <trkpt lat="43.65454" lon="1.45315">
        <ele>178.276506</ele>
        <time>2022-03-26T14:25:00.066Z</time>
      </trkpt>
      <trkpt lat="43.65444" lon="1.45325">
        <ele>178.381486</ele>
        <time>2022-03-26T14:25:03.063Z</time>
      </trkpt>
      <trkpt lat="43.65439" lon="1.45335">
        <ele>178.46035</ele>
        <time>2022-03-26T14:25:07.085Z</time>
      </trkpt>
      <trkpt lat="43.65441" lon="1.45349">
        <ele>178.545524</ele>
        <time>2022-03-26T14:25:11.057Z</time>
      </trkpt>
      <trkpt lat="43.65444" lon="1.45363">
        <ele>178.645999</ele>
        <time>2022-03-26T14:25:15.095Z</time>
      </trkpt>
      <trkpt lat="43.65454" lon="1.45368">
        <ele>178.772201</ele>
        <time>2022-03-26T14:25:18.076Z</time>
      </trkpt>
      <trkpt lat="43.65467" lon="1.45373">
        <ele>178.922948</ele>
        <time>2022-03-26T14:25:21.070Z</time>
      </trkpt>
      <trkpt lat="43.65477" lon="1.45377">
        <ele>179.031976</ele>
        <time>2022-03-26T14:25:23.063Z</time>
      </trkpt>
      <trkpt lat="43.65487" lon="1.45381">
        <ele>179.148595</ele>
        <time>2022-03-26T14:25:25.067Z</time>
      </trkpt>
      <trkpt lat="43.65497" lon="1.45384">
        <ele>179.266497</ele>
        <time>2022-03-26T14:25:27.062Z</time>
      </trkpt>
      <trkpt lat="43.65508" lon="1.45388">
        <ele>179.390203</ele>
        <time>2022-03-26T14:25:29.072Z</time>
      </trkpt>
      <trkpt lat="43.65518" lon="1.45392">
        <ele>179.515636</ele>
        <time>2022-03-26T14:25:31.050Z</time>
      </trkpt>
      <trkpt lat="43.65529" lon="1.45396">
        <ele>179.639573</ele>
        <time>2022-03-26T14:25:33.064Z</time>
      </trkpt>
      <trkpt lat="43.65539" lon="1.45399">
        <ele>179.759464</ele>
        <time>2022-03-26T14:25:35.072Z</time>
      </trkpt>
      <trkpt lat="43.6555" lon="1.45403">
        <ele>179.884097</ele>
        <time>2022-03-26T14:25:37.069Z</time>
      </trkpt>
      <trkpt lat="43.65561" lon="1.45407">
        <ele>180.010208</ele>
        <time>2022-03-26T14:25:39.062Z</time>
      </trkpt>
      <trkpt lat="43.65572" lon="1.45411">
        <ele>180.140397</ele>
        <time>2022-03-26T14:25:41.080Z</time>
      </trkpt>
      <trkpt lat="43.65584" lon="1.45415">
        <ele>180.272344</ele>
        <time>2022-03-26T14:25:43.055Z</time>
      </trkpt>
      <trkpt lat="43.65595" lon="1.45419">
        <ele>180.39916</ele>
        <time>2022-03-26T14:25:45.062Z</time>
      </trkpt>
      <trkpt lat="43.65606" lon="1.45423">
        <ele>180.528732</ele>
        <time>2022-03-26T14:25:47.051Z</time>
      </trkpt>
      <trkpt lat="43.65618" lon="1.45427">
        <ele>180.64848</ele>
        <time>2022-03-26T14:25:49.061Z</time>
      </trkpt>
      <trkpt lat="43.65629" lon="1.45433">
        <ele>180.721275</ele>
        <time>2022-03-26T14:25:51.060Z</time>
      </trkpt>
      <trkpt lat="43.65642" lon="1.45438">
        <ele>180.797039</ele>
        <time>2022-03-26T14:25:53.075Z</time>
      </trkpt>
      <trkpt lat="43.65653" lon="1.45443">
        <ele>180.868445</ele>
        <time>2022-03-26T14:25:55.069Z</time>
      </trkpt>
      <trkpt lat="43.65665" lon="1.45448">
        <ele>180.940214</ele>
        <time>2022-03-26T14:25:57.063Z</time>
      </trkpt>
      <trkpt lat="43.65676" lon="1.45452">
        <ele>181.010388</ele>
        <time>2022-03-26T14:25:59.048Z</time>
      </trkpt>
      <trkpt lat="43.65687" lon="1.45457">
        <ele>181.079211</ele>
        <time>2022-03-26T14:26:01.069Z</time>
      </trkpt>
      <trkpt lat="43.65699" lon="1.45461">
        <ele>181.148034</ele>
        <time>2022-03-26T14:26:03.061Z</time>
      </trkpt>
      <trkpt lat="43.6571" lon="1.45466">
        <ele>181.216671</ele>
        <time>2022-03-26T14:26:05.066Z</time>
      </trkpt>
      <trkpt lat="43.6572" lon="1.45471">
        <ele>181.2813</ele>
        <time>2022-03-26T14:26:07.059Z</time>
      </trkpt>
      <trkpt lat="43.6573" lon="1.45474">
        <ele>181.341141</ele>
        <time>2022-03-26T14:26:09.058Z</time>
      </trkpt>
      <trkpt lat="43.6574" lon="1.45475">
        <ele>181.397791</ele>
        <time>2022-03-26T14:26:11.064Z</time>
      </trkpt>
      <trkpt lat="43.65753" lon="1.45478">
        <ele>181.478605</ele>
        <time>2022-03-26T14:26:14.053Z</time>
      </trkpt>
      <trkpt lat="43.65763" lon="1.45481">
        <ele>181.539265</ele>
        <time>2022-03-26T14:26:16.060Z</time>
      </trkpt>
      <trkpt lat="43.65774" lon="1.45483">
        <ele>181.60281</ele>
        <time>2022-03-26T14:26:18.089Z</time>
      </trkpt>
      <trkpt lat="43.65784" lon="1.45485">
        <ele>181.662742</ele>
        <time>2022-03-26T14:26:20.070Z</time>
      </trkpt>
      <trkpt lat="43.65793" lon="1.45487">
        <ele>181.638316</ele>
        <time>2022-03-26T14:26:22.064Z</time>
      </trkpt>
      <trkpt lat="43.65804" lon="1.45492">
        <ele>181.508528</ele>
        <time>2022-03-26T14:26:25.058Z</time>
      </trkpt>
      <trkpt lat="43.65821" lon="1.45496">
        <ele>181.318834</ele>
        <time>2022-03-26T14:26:50.086Z</time>
      </trkpt>
      <trkpt lat="43.65831" lon="1.45493">
        <ele>181.204036</ele>
        <time>2022-03-26T14:26:52.059Z</time>
      </trkpt>
      <trkpt lat="43.65844" lon="1.45488">
        <ele>181.060859</ele>
        <time>2022-03-26T14:26:54.063Z</time>
      </trkpt>
      <trkpt lat="43.65857" lon="1.45485">
        <ele>180.912888</ele>
        <time>2022-03-26T14:26:56.061Z</time>
      </trkpt>
      <trkpt lat="43.6587" lon="1.45483">
        <ele>180.766922</ele>
        <time>2022-03-26T14:26:58.075Z</time>
      </trkpt>
      <trkpt lat="43.65883" lon="1.45483">
        <ele>180.621529</ele>
        <time>2022-03-26T14:27:00.070Z</time>
      </trkpt>
      <trkpt lat="43.65895" lon="1.45484">
        <ele>180.483907</ele>
        <time>2022-03-26T14:27:02.064Z</time>
      </trkpt>
      <trkpt lat="43.65907" lon="1.45486">
        <ele>180.349738</ele>
        <time>2022-03-26T14:27:04.074Z</time>
      </trkpt>
      <trkpt lat="43.65919" lon="1.45488">
        <ele>180.212909</ele>
        <time>2022-03-26T14:27:06.059Z</time>
      </trkpt>
      <trkpt lat="43.6593" lon="1.45494">
        <ele>180.084464</ele>
        <time>2022-03-26T14:27:08.067Z</time>
      </trkpt>
      <trkpt lat="43.65938" lon="1.45505">
        <ele>179.951668</ele>
        <time>2022-03-26T14:27:10.044Z</time>
      </trkpt>
      <trkpt lat="43.65947" lon="1.45516">
        <ele>179.818015</ele>
        <time>2022-03-26T14:27:12.060Z</time>
      </trkpt>
      <trkpt lat="43.65961" lon="1.45518">
        <ele>179.654762</ele>
        <time>2022-03-26T14:27:14.048Z</time>
      </trkpt>
      <trkpt lat="43.65974" lon="1.4551">
        <ele>179.408579</ele>
        <time>2022-03-26T14:27:16.066Z</time>
      </trkpt>
      <trkpt lat="43.65984" lon="1.45499">
        <ele>179.18311</ele>
        <time>2022-03-26T14:27:18.075Z</time>
      </trkpt>
      <trkpt lat="43.65995" lon="1.45494">
        <ele>178.967722</ele>
        <time>2022-03-26T14:27:20.078Z</time>
      </trkpt>
      <trkpt lat="43.66006" lon="1.45493">
        <ele>178.771841</ele>
        <time>2022-03-26T14:27:22.070Z</time>
      </trkpt>
      <trkpt lat="43.66014" lon="1.455">
        <ele>178.602209</ele>
        <time>2022-03-26T14:27:28.058Z</time>
      </trkpt>
      <trkpt lat="43.66023" lon="1.45501">
        <ele>178.436468</ele>
        <time>2022-03-26T14:27:33.059Z</time>
      </trkpt>
      <trkpt lat="43.66033" lon="1.45511">
        <ele>178.211687</ele>
        <time>2022-03-26T14:27:37.065Z</time>
      </trkpt>
      <trkpt lat="43.66042" lon="1.45518">
        <ele>178.033347</ele>
        <time>2022-03-26T14:27:39.067Z</time>
      </trkpt>
      <trkpt lat="43.66052" lon="1.45525">
        <ele>177.832499</ele>
        <time>2022-03-26T14:27:41.066Z</time>
      </trkpt>
      <trkpt lat="43.66063" lon="1.45532">
        <ele>177.607802</ele>
        <time>2022-03-26T14:27:43.060Z</time>
      </trkpt>
      <trkpt lat="43.66075" lon="1.45535">
        <ele>177.394977</ele>
        <time>2022-03-26T14:27:45.048Z</time>
      </trkpt>
      <trkpt lat="43.66087" lon="1.45533">
        <ele>177.177612</ele>
        <time>2022-03-26T14:27:47.052Z</time>
      </trkpt>
      <trkpt lat="43.66096" lon="1.45537">
        <ele>177.004058</ele>
        <time>2022-03-26T14:27:49.065Z</time>
      </trkpt>
      <trkpt lat="43.66106" lon="1.45543">
        <ele>176.802175</ele>
        <time>2022-03-26T14:27:51.058Z</time>
      </trkpt>
      <trkpt lat="43.66116" lon="1.45548">
        <ele>176.621528</ele>
        <time>2022-03-26T14:27:53.064Z</time>
      </trkpt>
      <trkpt lat="43.66127" lon="1.45557">
        <ele>176.428194</ele>
        <time>2022-03-26T14:27:56.063Z</time>
      </trkpt>
      <trkpt lat="43.66135" lon="1.45565">
        <ele>176.362539</ele>
        <time>2022-03-26T14:27:58.049Z</time>
      </trkpt>
      <trkpt lat="43.66145" lon="1.45573">
        <ele>176.290255</ele>
        <time>2022-03-26T14:28:00.061Z</time>
      </trkpt>
      <trkpt lat="43.66153" lon="1.4558">
        <ele>176.232019</ele>
        <time>2022-03-26T14:28:02.064Z</time>
      </trkpt>
      <trkpt lat="43.66161" lon="1.45586">
        <ele>176.174939</ele>
        <time>2022-03-26T14:28:04.041Z</time>
      </trkpt>
      <trkpt lat="43.66169" lon="1.45596">
        <ele>176.109465</ele>
        <time>2022-03-26T14:28:06.055Z</time>
      </trkpt>
      <trkpt lat="43.66177" lon="1.45609">
        <ele>176.030034</ele>
        <time>2022-03-26T14:28:08.081Z</time>
      </trkpt>
      <trkpt lat="43.66187" lon="1.45621">
        <ele>175.948373</ele>
        <time>2022-03-26T14:28:10.055Z</time>
      </trkpt>
      <trkpt lat="43.66197" lon="1.4563">
        <ele>175.869909</ele>
        <time>2022-03-26T14:28:12.054Z</time>
      </trkpt>
      <trkpt lat="43.66211" lon="1.4563">
        <ele>175.786341</ele>
        <time>2022-03-26T14:28:14.050Z</time>
      </trkpt>
      <trkpt lat="43.66219" lon="1.45617">
        <ele>175.704653</ele>
        <time>2022-03-26T14:28:16.071Z</time>
      </trkpt>
      <trkpt lat="43.66222" lon="1.45599">
        <ele>175.621985</ele>
        <time>2022-03-26T14:28:18.063Z</time>
      </trkpt>
      <trkpt lat="43.66225" lon="1.45581">
        <ele>175.540334</ele>
        <time>2022-03-26T14:28:20.069Z</time>
      </trkpt>
      <trkpt lat="43.66229" lon="1.45564">
        <ele>175.459457</ele>
        <time>2022-03-26T14:28:22.074Z</time>
      </trkpt>
      <trkpt lat="43.66233" lon="1.45547">
        <ele>175.377815</ele>
        <time>2022-03-26T14:28:24.063Z</time>
      </trkpt>
      <trkpt lat="43.66238" lon="1.45531">
        <ele>175.285383</ele>
        <time>2022-03-26T14:28:26.070Z</time>
      </trkpt>
      <trkpt lat="43.66243" lon="1.45514">
        <ele>175.158135</ele>
        <time>2022-03-26T14:28:28.067Z</time>
      </trkpt>
      <trkpt lat="43.66247" lon="1.45496">
        <ele>175.025397</ele>
        <time>2022-03-26T14:28:30.071Z</time>
      </trkpt>
      <trkpt lat="43.66253" lon="1.45478">
        <ele>174.890647</ele>
        <time>2022-03-26T14:28:32.055Z</time>
      </trkpt>
      <trkpt lat="43.66258" lon="1.4546">
        <ele>174.756573</ele>
        <time>2022-03-26T14:28:34.073Z</time>
      </trkpt>
      <trkpt lat="43.66264" lon="1.45441">
        <ele>174.619683</ele>
        <time>2022-03-26T14:28:36.065Z</time>
      </trkpt>
      <trkpt lat="43.66268" lon="1.45423">
        <ele>174.485352</ele>
        <time>2022-03-26T14:28:38.070Z</time>
      </trkpt>
      <trkpt lat="43.66273" lon="1.45405">
        <ele>174.351642</ele>
        <time>2022-03-26T14:28:40.061Z</time>
      </trkpt>
      <trkpt lat="43.66278" lon="1.45387">
        <ele>174.220192</ele>
        <time>2022-03-26T14:28:42.063Z</time>
      </trkpt>
      <trkpt lat="43.66281" lon="1.4537">
        <ele>174.09725</ele>
        <time>2022-03-26T14:28:44.093Z</time>
      </trkpt>
      <trkpt lat="43.66275" lon="1.45352">
        <ele>173.967061</ele>
        <time>2022-03-26T14:28:46.061Z</time>
      </trkpt>
      <trkpt lat="43.66273" lon="1.45336">
        <ele>173.848365</ele>
        <time>2022-03-26T14:28:48.065Z</time>
      </trkpt>
      <trkpt lat="43.66277" lon="1.4532">
        <ele>173.730862</ele>
        <time>2022-03-26T14:28:50.080Z</time>
      </trkpt>
      <trkpt lat="43.66284" lon="1.45306">
        <ele>173.614528</ele>
        <time>2022-03-26T14:28:52.059Z</time>
      </trkpt>
      <trkpt lat="43.66292" lon="1.45294">
        <ele>173.711035</ele>
        <time>2022-03-26T14:28:54.073Z</time>
      </trkpt>
      <trkpt lat="43.66299" lon="1.45282">
        <ele>173.829974</ele>
        <time>2022-03-26T14:28:56.060Z</time>
      </trkpt>
      <trkpt lat="43.66308" lon="1.45271">
        <ele>173.967044</ele>
        <time>2022-03-26T14:28:58.065Z</time>
      </trkpt>
      <trkpt lat="43.66316" lon="1.45257">
        <ele>174.10905</ele>
        <time>2022-03-26T14:29:00.082Z</time>
      </trkpt>
      <trkpt lat="43.66325" lon="1.45248">
        <ele>174.229376</ele>
        <time>2022-03-26T14:29:02.060Z</time>
      </trkpt>
      <trkpt lat="43.66334" lon="1.45237">
        <ele>174.364348</ele>
        <time>2022-03-26T14:29:05.064Z</time>
      </trkpt>
      <trkpt lat="43.66342" lon="1.45227">
        <ele>174.477472</ele>
        <time>2022-03-26T14:29:07.058Z</time>
      </trkpt>
      <trkpt lat="43.6635" lon="1.45213">
        <ele>174.618693</ele>
        <time>2022-03-26T14:29:09.072Z</time>
      </trkpt>
      <trkpt lat="43.66357" lon="1.45197">
        <ele>174.765473</ele>
        <time>2022-03-26T14:29:11.062Z</time>
      </trkpt>
      <trkpt lat="43.66361" lon="1.4518">
        <ele>174.908962</ele>
        <time>2022-03-26T14:29:13.057Z</time>
      </trkpt>
      <trkpt lat="43.66359" lon="1.45164">
        <ele>175.037814</ele>
        <time>2022-03-26T14:29:15.067Z</time>
      </trkpt>
      <trkpt lat="43.66361" lon="1.45152">
        <ele>175.140872</ele>
        <time>2022-03-26T14:29:18.075Z</time>
      </trkpt>
      <trkpt lat="43.66369" lon="1.45138">
        <ele>175.285507</ele>
        <time>2022-03-26T14:29:21.068Z</time>
      </trkpt>
      <trkpt lat="43.66375" lon="1.45126">
        <ele>175.398395</ele>
        <time>2022-03-26T14:29:23.067Z</time>
      </trkpt>
      <trkpt lat="43.6638" lon="1.45113">
        <ele>175.516701</ele>
        <time>2022-03-26T14:29:25.061Z</time>
      </trkpt>
      <trkpt lat="43.66386" lon="1.451">
        <ele>175.569396</ele>
        <time>2022-03-26T14:29:27.063Z</time>
      </trkpt>
      <trkpt lat="43.66392" lon="1.45087">
        <ele>175.557174</ele>
        <time>2022-03-26T14:29:29.074Z</time>
      </trkpt>
      <trkpt lat="43.66395" lon="1.45071">
        <ele>175.543424</ele>
        <time>2022-03-26T14:29:31.059Z</time>
      </trkpt>
      <trkpt lat="43.664" lon="1.45054">
        <ele>175.527548</ele>
        <time>2022-03-26T14:29:33.067Z</time>
      </trkpt>
      <trkpt lat="43.66406" lon="1.45038">
        <ele>175.512542</ele>
        <time>2022-03-26T14:29:35.064Z</time>
      </trkpt>
      <trkpt lat="43.66411" lon="1.45022">
        <ele>175.498434</ele>
        <time>2022-03-26T14:29:37.057Z</time>
      </trkpt>
      <trkpt lat="43.66414" lon="1.45006">
        <ele>175.484656</ele>
        <time>2022-03-26T14:29:39.057Z</time>
      </trkpt>
      <trkpt lat="43.66417" lon="1.44991">
        <ele>175.47136</ele>
        <time>2022-03-26T14:29:41.086Z</time>
      </trkpt>
      <trkpt lat="43.66422" lon="1.44976">
        <ele>175.457559</ele>
        <time>2022-03-26T14:29:43.070Z</time>
      </trkpt>
      <trkpt lat="43.66427" lon="1.44962">
        <ele>175.444465</ele>
        <time>2022-03-26T14:29:45.072Z</time>
      </trkpt>
      <trkpt lat="43.66432" lon="1.44948">
        <ele>175.430894</ele>
        <time>2022-03-26T14:29:47.063Z</time>
      </trkpt>
      <trkpt lat="43.66434" lon="1.44932">
        <ele>175.417709</ele>
        <time>2022-03-26T14:29:49.058Z</time>
      </trkpt>
      <trkpt lat="43.66435" lon="1.44916">
        <ele>175.404512</ele>
        <time>2022-03-26T14:29:51.066Z</time>
      </trkpt>
      <trkpt lat="43.66442" lon="1.44903">
        <ele>175.391127</ele>
        <time>2022-03-26T14:29:53.065Z</time>
      </trkpt>
      <trkpt lat="43.66448" lon="1.4489">
        <ele>175.377606</ele>
        <time>2022-03-26T14:29:55.065Z</time>
      </trkpt>
      <trkpt lat="43.66453" lon="1.44876">
        <ele>175.338396</ele>
        <time>2022-03-26T14:29:57.074Z</time>
      </trkpt>
      <trkpt lat="43.66455" lon="1.4486">
        <ele>175.228272</ele>
        <time>2022-03-26T14:29:59.051Z</time>
      </trkpt>
      <trkpt lat="43.66459" lon="1.44846">
        <ele>175.122833</ele>
        <time>2022-03-26T14:30:01.065Z</time>
      </trkpt>
      <trkpt lat="43.66464" lon="1.44832">
        <ele>175.015513</ele>
        <time>2022-03-26T14:30:03.072Z</time>
      </trkpt>
      <trkpt lat="43.66468" lon="1.44818">
        <ele>174.908253</ele>
        <time>2022-03-26T14:30:05.077Z</time>
      </trkpt>
      <trkpt lat="43.66474" lon="1.44805">
        <ele>174.800704</ele>
        <time>2022-03-26T14:30:07.058Z</time>
      </trkpt>
      <trkpt lat="43.6648" lon="1.44792">
        <ele>174.695657</ele>
        <time>2022-03-26T14:30:09.058Z</time>
      </trkpt>
      <trkpt lat="43.66486" lon="1.4478">
        <ele>174.593935</ele>
        <time>2022-03-26T14:30:11.083Z</time>
      </trkpt>
      <trkpt lat="43.66492" lon="1.44767">
        <ele>174.488165</ele>
        <time>2022-03-26T14:30:13.073Z</time>
      </trkpt>
      <trkpt lat="43.66497" lon="1.44754">
        <ele>174.381211</ele>
        <time>2022-03-26T14:30:15.068Z</time>
      </trkpt>
      <trkpt lat="43.66503" lon="1.4474">
        <ele>174.273473</ele>
        <time>2022-03-26T14:30:17.058Z</time>
      </trkpt>
      <trkpt lat="43.66508" lon="1.44726">
        <ele>174.162242</ele>
        <time>2022-03-26T14:30:19.071Z</time>
      </trkpt>
      <trkpt lat="43.66512" lon="1.44712">
        <ele>174.058885</ele>
        <time>2022-03-26T14:30:21.075Z</time>
      </trkpt>
      <trkpt lat="43.66522" lon="1.44715">
        <ele>173.958216</ele>
        <time>2022-03-26T14:30:31.053Z</time>
      </trkpt>
      <trkpt lat="43.66532" lon="1.4472">
        <ele>173.857552</ele>
        <time>2022-03-26T14:30:35.049Z</time>
      </trkpt>
      <trkpt lat="43.66541" lon="1.44726">
        <ele>173.761088</ele>
        <time>2022-03-26T14:30:38.043Z</time>
      </trkpt>
      <trkpt lat="43.66552" lon="1.44734">
        <ele>173.646668</ele>
        <time>2022-03-26T14:30:41.072Z</time>
      </trkpt>
      <trkpt lat="43.66561" lon="1.44745">
        <ele>173.5224</ele>
        <time>2022-03-26T14:30:44.075Z</time>
      </trkpt>
      <trkpt lat="43.6657" lon="1.44758">
        <ele>173.39088</ele>
        <time>2022-03-26T14:30:47.054Z</time>
      </trkpt>
      <trkpt lat="43.66577" lon="1.44768">
        <ele>173.283579</ele>
        <time>2022-03-26T14:30:49.063Z</time>
      </trkpt>
      <trkpt lat="43.66584" lon="1.44778">
        <ele>173.179813</ele>
        <time>2022-03-26T14:30:51.062Z</time>
      </trkpt>
      <trkpt lat="43.66591" lon="1.44788">
        <ele>173.080102</ele>
        <time>2022-03-26T14:30:53.062Z</time>
      </trkpt>
      <trkpt lat="43.66598" lon="1.44798">
        <ele>172.971734</ele>
        <time>2022-03-26T14:30:55.077Z</time>
      </trkpt>
      <trkpt lat="43.66605" lon="1.4481">
        <ele>172.86278</ele>
        <time>2022-03-26T14:30:57.071Z</time>
      </trkpt>
      <trkpt lat="43.66613" lon="1.44821">
        <ele>172.752793</ele>
        <time>2022-03-26T14:30:59.062Z</time>
      </trkpt>
      <trkpt lat="43.6662" lon="1.44831">
        <ele>172.647587</ele>
        <time>2022-03-26T14:31:01.061Z</time>
      </trkpt>
      <trkpt lat="43.66627" lon="1.44842">
        <ele>172.541837</ele>
        <time>2022-03-26T14:31:03.057Z</time>
      </trkpt>
      <trkpt lat="43.66634" lon="1.44851">
        <ele>172.439721</ele>
        <time>2022-03-26T14:31:05.067Z</time>
      </trkpt>
      <trkpt lat="43.66645" lon="1.44858">
        <ele>172.317783</ele>
        <time>2022-03-26T14:31:08.068Z</time>
      </trkpt>
      <trkpt lat="43.66657" lon="1.44858">
        <ele>172.193512</ele>
        <time>2022-03-26T14:31:11.063Z</time>
      </trkpt>
      <trkpt lat="43.66667" lon="1.44858">
        <ele>172.088599</ele>
        <time>2022-03-26T14:31:13.058Z</time>
      </trkpt>
      <trkpt lat="43.66678" lon="1.44857">
        <ele>171.976499</ele>
        <time>2022-03-26T14:31:15.044Z</time>
      </trkpt>
      <trkpt lat="43.6669" lon="1.44853">
        <ele>171.856703</ele>
        <time>2022-03-26T14:31:17.076Z</time>
      </trkpt>
      <trkpt lat="43.66701" lon="1.44846">
        <ele>171.809536</ele>
        <time>2022-03-26T14:31:19.066Z</time>
      </trkpt>
      <trkpt lat="43.66712" lon="1.44837">
        <ele>171.818566</ele>
        <time>2022-03-26T14:31:21.065Z</time>
      </trkpt>
      <trkpt lat="43.66723" lon="1.44827">
        <ele>171.827689</ele>
        <time>2022-03-26T14:31:23.058Z</time>
      </trkpt>
      <trkpt lat="43.66734" lon="1.44819">
        <ele>171.836681</ele>
        <time>2022-03-26T14:31:25.065Z</time>
      </trkpt>
      <trkpt lat="43.66747" lon="1.4482">
        <ele>171.845449</ele>
        <time>2022-03-26T14:31:27.053Z</time>
      </trkpt>
      <trkpt lat="43.66757" lon="1.44834">
        <ele>171.855116</ele>
        <time>2022-03-26T14:31:29.062Z</time>
      </trkpt>
      <trkpt lat="43.66759" lon="1.44852">
        <ele>171.864523</ele>
        <time>2022-03-26T14:31:31.062Z</time>
      </trkpt>
      <trkpt lat="43.6676" lon="1.44869">
        <ele>171.873176</ele>
        <time>2022-03-26T14:31:33.053Z</time>
      </trkpt>
      <trkpt lat="43.66767" lon="1.44882">
        <ele>171.881419</ele>
        <time>2022-03-26T14:31:35.062Z</time>
      </trkpt>
      <trkpt lat="43.66777" lon="1.44891">
        <ele>171.88991</ele>
        <time>2022-03-26T14:31:37.065Z</time>
      </trkpt>
      <trkpt lat="43.66787" lon="1.449">
        <ele>171.897926</ele>
        <time>2022-03-26T14:31:39.051Z</time>
      </trkpt>
      <trkpt lat="43.66797" lon="1.44906">
        <ele>171.905787</ele>
        <time>2022-03-26T14:31:41.057Z</time>
      </trkpt>
      <trkpt lat="43.66807" lon="1.44912">
        <ele>171.913085</ele>
        <time>2022-03-26T14:31:43.056Z</time>
      </trkpt>
      <trkpt lat="43.66817" lon="1.44916">
        <ele>171.920741</ele>
        <time>2022-03-26T14:31:45.059Z</time>
      </trkpt>
      <trkpt lat="43.66826" lon="1.44921">
        <ele>171.927503</ele>
        <time>2022-03-26T14:31:47.065Z</time>
      </trkpt>
      <trkpt lat="43.66835" lon="1.44924">
        <ele>171.945214</ele>
        <time>2022-03-26T14:31:49.054Z</time>
      </trkpt>
      <trkpt lat="43.66846" lon="1.44926">
        <ele>171.978178</ele>
        <time>2022-03-26T14:31:51.063Z</time>
      </trkpt>
      <trkpt lat="43.66858" lon="1.44928">
        <ele>172.011742</ele>
        <time>2022-03-26T14:31:53.062Z</time>
      </trkpt>
      <trkpt lat="43.66869" lon="1.4493">
        <ele>172.045967</ele>
        <time>2022-03-26T14:31:55.059Z</time>
      </trkpt>
      <trkpt lat="43.66881" lon="1.44933">
        <ele>172.078543</ele>
        <time>2022-03-26T14:31:57.057Z</time>
      </trkpt>
      <trkpt lat="43.66891" lon="1.44936">
        <ele>172.110701</ele>
        <time>2022-03-26T14:31:59.063Z</time>
      </trkpt>
      <trkpt lat="43.66903" lon="1.44939">
        <ele>172.144489</ele>
        <time>2022-03-26T14:32:01.068Z</time>
      </trkpt>
      <trkpt lat="43.66914" lon="1.44943">
        <ele>172.17847</ele>
        <time>2022-03-26T14:32:03.060Z</time>
      </trkpt>
      <trkpt lat="43.66924" lon="1.44951">
        <ele>172.210387</ele>
        <time>2022-03-26T14:32:05.061Z</time>
      </trkpt>
      <trkpt lat="43.66931" lon="1.44962">
        <ele>172.241051</ele>
        <time>2022-03-26T14:32:07.066Z</time>
      </trkpt>
      <trkpt lat="43.66936" lon="1.44976">
        <ele>172.274074</ele>
        <time>2022-03-26T14:32:09.063Z</time>
      </trkpt>
      <trkpt lat="43.66941" lon="1.44989">
        <ele>172.305118</ele>
        <time>2022-03-26T14:32:11.060Z</time>
      </trkpt>
      <trkpt lat="43.66944" lon="1.45001">
        <ele>172.332889</ele>
        <time>2022-03-26T14:32:13.062Z</time>
      </trkpt>
      <trkpt lat="43.6695" lon="1.45018">
        <ele>172.372363</ele>
        <time>2022-03-26T14:32:16.064Z</time>
      </trkpt>
      <trkpt lat="43.66956" lon="1.4503">
        <ele>172.401379</ele>
        <time>2022-03-26T14:32:18.061Z</time>
      </trkpt>
      <trkpt lat="43.66963" lon="1.45043">
        <ele>172.434621</ele>
        <time>2022-03-26T14:32:20.065Z</time>
      </trkpt>
      <trkpt lat="43.6697" lon="1.45056">
        <ele>172.459615</ele>
        <time>2022-03-26T14:32:22.068Z</time>
      </trkpt>
      <trkpt lat="43.66978" lon="1.45069">
        <ele>172.475857</ele>
        <time>2022-03-26T14:32:24.083Z</time>
      </trkpt>
      <trkpt lat="43.66985" lon="1.45081">
        <ele>172.491133</ele>
        <time>2022-03-26T14:32:26.041Z</time>
      </trkpt>
      <trkpt lat="43.66991" lon="1.45092">
        <ele>172.504954</ele>
        <time>2022-03-26T14:32:28.067Z</time>
      </trkpt>
      <trkpt lat="43.66996" lon="1.45104">
        <ele>172.519265</ele>
        <time>2022-03-26T14:32:30.066Z</time>
      </trkpt>
      <trkpt lat="43.67002" lon="1.45116">
        <ele>172.533428</ele>
        <time>2022-03-26T14:32:32.066Z</time>
      </trkpt>
      <trkpt lat="43.67008" lon="1.45128">
        <ele>172.547898</ele>
        <time>2022-03-26T14:32:34.062Z</time>
      </trkpt>
      <trkpt lat="43.67013" lon="1.45141">
        <ele>172.561829</ele>
        <time>2022-03-26T14:32:36.065Z</time>
      </trkpt>
      <trkpt lat="43.67016" lon="1.45153">
        <ele>172.574769</ele>
        <time>2022-03-26T14:32:38.066Z</time>
      </trkpt>
      <trkpt lat="43.67024" lon="1.45161">
        <ele>172.587741</ele>
        <time>2022-03-26T14:32:40.060Z</time>
      </trkpt>
      <trkpt lat="43.67034" lon="1.45159">
        <ele>172.602041</ele>
        <time>2022-03-26T14:32:42.058Z</time>
      </trkpt>
      <trkpt lat="43.67045" lon="1.45151">
        <ele>172.618891</ele>
        <time>2022-03-26T14:32:44.068Z</time>
      </trkpt>
      <trkpt lat="43.67056" lon="1.45144">
        <ele>172.635244</ele>
        <time>2022-03-26T14:32:46.070Z</time>
      </trkpt>
      <trkpt lat="43.67067" lon="1.45139">
        <ele>172.650937</ele>
        <time>2022-03-26T14:32:48.070Z</time>
      </trkpt>
      <trkpt lat="43.67077" lon="1.45146">
        <ele>172.666373</ele>
        <time>2022-03-26T14:32:50.061Z</time>
      </trkpt>
      <trkpt lat="43.67083" lon="1.45158">
        <ele>172.679973</ele>
        <time>2022-03-26T14:32:52.056Z</time>
      </trkpt>
      <trkpt lat="43.67093" lon="1.45159">
        <ele>172.694479</ele>
        <time>2022-03-26T14:32:55.070Z</time>
      </trkpt>
      <trkpt lat="43.67104" lon="1.45155">
        <ele>172.800063</ele>
        <time>2022-03-26T14:32:58.034Z</time>
      </trkpt>
      <trkpt lat="43.67114" lon="1.45147">
        <ele>172.926246</ele>
        <time>2022-03-26T14:33:01.051Z</time>
      </trkpt>
      <trkpt lat="43.67125" lon="1.45141">
        <ele>173.051456</ele>
        <time>2022-03-26T14:33:04.049Z</time>
      </trkpt>
      <trkpt lat="43.67134" lon="1.45136">
        <ele>173.153408</ele>
        <time>2022-03-26T14:33:06.059Z</time>
      </trkpt>
      <trkpt lat="43.67143" lon="1.45133">
        <ele>173.255377</ele>
        <time>2022-03-26T14:33:08.071Z</time>
      </trkpt>
      <trkpt lat="43.67153" lon="1.45145">
        <ele>173.397117</ele>
        <time>2022-03-26T14:33:11.063Z</time>
      </trkpt>
      <trkpt lat="43.67165" lon="1.45145">
        <ele>173.523737</ele>
        <time>2022-03-26T14:33:14.075Z</time>
      </trkpt>
      <trkpt lat="43.67174" lon="1.45139">
        <ele>173.624212</ele>
        <time>2022-03-26T14:33:16.068Z</time>
      </trkpt>
      <trkpt lat="43.67183" lon="1.45134">
        <ele>173.726557</ele>
        <time>2022-03-26T14:33:18.071Z</time>
      </trkpt>
      <trkpt lat="43.67192" lon="1.45129">
        <ele>173.830456</ele>
        <time>2022-03-26T14:33:20.054Z</time>
      </trkpt>
      <trkpt lat="43.672" lon="1.45122">
        <ele>173.92915</ele>
        <time>2022-03-26T14:33:22.065Z</time>
      </trkpt>
      <trkpt lat="43.67208" lon="1.45116">
        <ele>174.024709</ele>
        <time>2022-03-26T14:33:26.076Z</time>
      </trkpt>
      <trkpt lat="43.67215" lon="1.45125">
        <ele>174.126714</ele>
        <time>2022-03-26T14:33:34.066Z</time>
      </trkpt>
      <trkpt lat="43.67219" lon="1.45142">
        <ele>174.257947</ele>
        <time>2022-03-26T14:33:38.066Z</time>
      </trkpt>
      <trkpt lat="43.67223" lon="1.45158">
        <ele>174.389657</ele>
        <time>2022-03-26T14:33:41.065Z</time>
      </trkpt>
      <trkpt lat="43.67227" lon="1.45169">
        <ele>174.485457</ele>
        <time>2022-03-26T14:33:43.066Z</time>
      </trkpt>
      <trkpt lat="43.6723" lon="1.45183">
        <ele>174.594224</ele>
        <time>2022-03-26T14:33:45.084Z</time>
      </trkpt>
      <trkpt lat="43.67233" lon="1.45198">
        <ele>174.679458</ele>
        <time>2022-03-26T14:33:47.067Z</time>
      </trkpt>
      <trkpt lat="43.67238" lon="1.45212">
        <ele>174.762722</ele>
        <time>2022-03-26T14:33:49.064Z</time>
      </trkpt>
      <trkpt lat="43.67244" lon="1.45224">
        <ele>174.84516</ele>
        <time>2022-03-26T14:33:51.070Z</time>
      </trkpt>
      <trkpt lat="43.67249" lon="1.45236">
        <ele>174.921691</ele>
        <time>2022-03-26T14:33:53.056Z</time>
      </trkpt>
      <trkpt lat="43.67252" lon="1.4525">
        <ele>174.998643</ele>
        <time>2022-03-26T14:33:55.066Z</time>
      </trkpt>
      <trkpt lat="43.67255" lon="1.45263">
        <ele>175.074791</ele>
        <time>2022-03-26T14:33:57.049Z</time>
      </trkpt>
      <trkpt lat="43.67258" lon="1.45275">
        <ele>175.145793</ele>
        <time>2022-03-26T14:33:59.061Z</time>
      </trkpt>
      <trkpt lat="43.67262" lon="1.45287">
        <ele>175.217037</ele>
        <time>2022-03-26T14:34:01.063Z</time>
      </trkpt>
      <trkpt lat="43.67264" lon="1.453">
        <ele>175.290404</ele>
        <time>2022-03-26T14:34:03.061Z</time>
      </trkpt>
      <trkpt lat="43.67271" lon="1.45314">
        <ele>175.382268</ele>
        <time>2022-03-26T14:34:06.063Z</time>
      </trkpt>
      <trkpt lat="43.67283" lon="1.45314">
        <ele>175.47234</ele>
        <time>2022-03-26T14:34:09.060Z</time>
      </trkpt>
      <trkpt lat="43.67292" lon="1.45308">
        <ele>175.548347</ele>
        <time>2022-03-26T14:34:11.072Z</time>
      </trkpt>
      <trkpt lat="43.67301" lon="1.45301">
        <ele>175.627106</ele>
        <time>2022-03-26T14:34:13.064Z</time>
      </trkpt>
      <trkpt lat="43.67311" lon="1.45296">
        <ele>175.70681</ele>
        <time>2022-03-26T14:34:15.062Z</time>
      </trkpt>
      <trkpt lat="43.67321" lon="1.45292">
        <ele>175.78689</ele>
        <time>2022-03-26T14:34:17.065Z</time>
      </trkpt>
      <trkpt lat="43.67332" lon="1.45293">
        <ele>175.865727</ele>
        <time>2022-03-26T14:34:19.066Z</time>
      </trkpt>
      <trkpt lat="43.67342" lon="1.45297">
        <ele>175.946068</ele>
        <time>2022-03-26T14:34:21.058Z</time>
      </trkpt>
      <trkpt lat="43.67352" lon="1.453">
        <ele>176.058324</ele>
        <time>2022-03-26T14:34:23.059Z</time>
      </trkpt>
      <trkpt lat="43.67361" lon="1.45301">
        <ele>176.1803</ele>
        <time>2022-03-26T14:34:25.048Z</time>
      </trkpt>
      <trkpt lat="43.67371" lon="1.45302">
        <ele>176.30013</ele>
        <time>2022-03-26T14:34:27.068Z</time>
      </trkpt>
      <trkpt lat="43.6738" lon="1.45298">
        <ele>176.416691</ele>
        <time>2022-03-26T14:34:29.085Z</time>
      </trkpt>
      <trkpt lat="43.6739" lon="1.45297">
        <ele>176.532384</ele>
        <time>2022-03-26T14:34:31.057Z</time>
      </trkpt>
      <trkpt lat="43.67399" lon="1.45299">
        <ele>176.64572</ele>
        <time>2022-03-26T14:34:33.056Z</time>
      </trkpt>
      <trkpt lat="43.67412" lon="1.45299">
        <ele>176.808209</ele>
        <time>2022-03-26T14:34:36.058Z</time>
      </trkpt>
      <trkpt lat="43.67424" lon="1.45293">
        <ele>176.963048</ele>
        <time>2022-03-26T14:34:39.050Z</time>
      </trkpt>
      <trkpt lat="43.67435" lon="1.45294">
        <ele>177.102645</ele>
        <time>2022-03-26T14:34:42.061Z</time>
      </trkpt>
      <trkpt lat="43.67442" lon="1.45306">
        <ele>177.232234</ele>
        <time>2022-03-26T14:34:45.065Z</time>
      </trkpt>
      <trkpt lat="43.67446" lon="1.45317">
        <ele>177.345513</ele>
        <time>2022-03-26T14:34:47.057Z</time>
      </trkpt>
      <trkpt lat="43.6745" lon="1.4533">
        <ele>177.468229</ele>
        <time>2022-03-26T14:34:49.062Z</time>
      </trkpt>
      <trkpt lat="43.67454" lon="1.45342">
        <ele>177.589204</ele>
        <time>2022-03-26T14:34:51.065Z</time>
      </trkpt>
      <trkpt lat="43.67458" lon="1.45355">
        <ele>177.707552</ele>
        <time>2022-03-26T14:34:53.063Z</time>
      </trkpt>
      <trkpt lat="43.67462" lon="1.45366">
        <ele>177.82521</ele>
        <time>2022-03-26T14:34:55.074Z</time>
      </trkpt>
      <trkpt lat="43.67473" lon="1.45377">
        <ele>177.981534</ele>
        <time>2022-03-26T14:34:58.067Z</time>
      </trkpt>
      <trkpt lat="43.67484" lon="1.45379">
        <ele>178.116651</ele>
        <time>2022-03-26T14:35:01.057Z</time>
      </trkpt>
      <trkpt lat="43.67493" lon="1.45387">
        <ele>178.155817</ele>
        <time>2022-03-26T14:35:04.061Z</time>
      </trkpt>
      <trkpt lat="43.67503" lon="1.45388">
        <ele>178.161564</ele>
        <time>2022-03-26T14:35:06.066Z</time>
      </trkpt>
      <trkpt lat="43.67512" lon="1.4538">
        <ele>178.167513</ele>
        <time>2022-03-26T14:35:08.064Z</time>
      </trkpt>
      <trkpt lat="43.6752" lon="1.45369">
        <ele>178.174132</ele>
        <time>2022-03-26T14:35:10.084Z</time>
      </trkpt>
      <trkpt lat="43.67528" lon="1.45357">
        <ele>178.180518</ele>
        <time>2022-03-26T14:35:12.073Z</time>
      </trkpt>
      <trkpt lat="43.67537" lon="1.45348">
        <ele>178.186696</ele>
        <time>2022-03-26T14:35:14.065Z</time>
      </trkpt>
      <trkpt lat="43.67547" lon="1.45341">
        <ele>178.192895</ele>
        <time>2022-03-26T14:35:16.058Z</time>
      </trkpt>
      <trkpt lat="43.67556" lon="1.45337">
        <ele>178.198638</ele>
        <time>2022-03-26T14:35:18.055Z</time>
      </trkpt>
      <trkpt lat="43.67565" lon="1.45332">
        <ele>178.203975</ele>
        <time>2022-03-26T14:35:20.069Z</time>
      </trkpt>
      <trkpt lat="43.67574" lon="1.45325">
        <ele>178.209649</ele>
        <time>2022-03-26T14:35:22.065Z</time>
      </trkpt>
      <trkpt lat="43.67585" lon="1.45318">
        <ele>178.216224</ele>
        <time>2022-03-26T14:35:24.063Z</time>
      </trkpt>
      <trkpt lat="43.67596" lon="1.45312">
        <ele>178.223258</ele>
        <time>2022-03-26T14:35:26.061Z</time>
      </trkpt>
      <trkpt lat="43.67608" lon="1.45308">
        <ele>178.229846</ele>
        <time>2022-03-26T14:35:28.083Z</time>
      </trkpt>
      <trkpt lat="43.67618" lon="1.45314">
        <ele>178.236095</ele>
        <time>2022-03-26T14:35:31.069Z</time>
      </trkpt>
      <trkpt lat="43.67629" lon="1.45314">
        <ele>178.242229</ele>
        <time>2022-03-26T14:35:34.071Z</time>
      </trkpt>
      <trkpt lat="43.67639" lon="1.45313">
        <ele>178.247757</ele>
        <time>2022-03-26T14:35:36.073Z</time>
      </trkpt>
      <trkpt lat="43.67649" lon="1.45313">
        <ele>178.26446</ele>
        <time>2022-03-26T14:35:38.063Z</time>
      </trkpt>
      <trkpt lat="43.6766" lon="1.45313">
        <ele>178.32923</ele>
        <time>2022-03-26T14:35:41.073Z</time>
      </trkpt>
      <trkpt lat="43.67673" lon="1.45318">
        <ele>178.404708</ele>
        <time>2022-03-26T14:35:44.082Z</time>
      </trkpt>
      <trkpt lat="43.67685" lon="1.4532">
        <ele>178.467807</ele>
        <time>2022-03-26T14:35:46.064Z</time>
      </trkpt>
      <trkpt lat="43.67696" lon="1.45322">
        <ele>178.531704</ele>
        <time>2022-03-26T14:35:48.068Z</time>
      </trkpt>
      <trkpt lat="43.67705" lon="1.45325">
        <ele>178.584489</ele>
        <time>2022-03-26T14:35:50.084Z</time>
      </trkpt>
      <trkpt lat="43.67716" lon="1.45332">
        <ele>178.65296</ele>
        <time>2022-03-26T14:35:53.064Z</time>
      </trkpt>
      <trkpt lat="43.67725" lon="1.45337">
        <ele>178.707183</ele>
        <time>2022-03-26T14:35:55.066Z</time>
      </trkpt>
      <trkpt lat="43.67733" lon="1.45344">
        <ele>178.762289</ele>
        <time>2022-03-26T14:35:57.083Z</time>
      </trkpt>
      <trkpt lat="43.67742" lon="1.45351">
        <ele>178.818913</ele>
        <time>2022-03-26T14:35:59.075Z</time>
      </trkpt>
      <trkpt lat="43.67751" lon="1.45357">
        <ele>178.87724</ele>
        <time>2022-03-26T14:36:01.062Z</time>
      </trkpt>
      <trkpt lat="43.6776" lon="1.45363">
        <ele>178.933374</ele>
        <time>2022-03-26T14:36:03.066Z</time>
      </trkpt>
      <trkpt lat="43.67769" lon="1.45369">
        <ele>178.989758</ele>
        <time>2022-03-26T14:36:05.073Z</time>
      </trkpt>
      <trkpt lat="43.67778" lon="1.45377">
        <ele>179.048041</ele>
        <time>2022-03-26T14:36:07.050Z</time>
      </trkpt>
      <trkpt lat="43.67788" lon="1.45383">
        <ele>179.107382</ele>
        <time>2022-03-26T14:36:09.065Z</time>
      </trkpt>
      <trkpt lat="43.67797" lon="1.4539">
        <ele>179.165146</ele>
        <time>2022-03-26T14:36:11.068Z</time>
      </trkpt>
      <trkpt lat="43.67805" lon="1.45396">
        <ele>179.21879</ele>
        <time>2022-03-26T14:36:13.061Z</time>
      </trkpt>
      <trkpt lat="43.67816" lon="1.45404">
        <ele>179.272635</ele>
        <time>2022-03-26T14:36:16.075Z</time>
      </trkpt>
      <trkpt lat="43.67827" lon="1.45415">
        <ele>179.295214</ele>
        <time>2022-03-26T14:36:19.056Z</time>
      </trkpt>
      <trkpt lat="43.67834" lon="1.45423">
        <ele>179.310622</ele>
        <time>2022-03-26T14:36:21.060Z</time>
      </trkpt>
      <trkpt lat="43.67842" lon="1.45429">
        <ele>179.325906</ele>
        <time>2022-03-26T14:36:23.062Z</time>
      </trkpt>
      <trkpt lat="43.67853" lon="1.45435">
        <ele>179.345862</ele>
        <time>2022-03-26T14:36:26.065Z</time>
      </trkpt>
      <trkpt lat="43.67864" lon="1.45431">
        <ele>179.364904</ele>
        <time>2022-03-26T14:36:29.058Z</time>
      </trkpt>
      <trkpt lat="43.67872" lon="1.45425">
        <ele>179.380929</ele>
        <time>2022-03-26T14:36:31.068Z</time>
      </trkpt>
      <trkpt lat="43.67881" lon="1.45418">
        <ele>179.397839</ele>
        <time>2022-03-26T14:36:33.064Z</time>
      </trkpt>
      <trkpt lat="43.67889" lon="1.4541">
        <ele>179.414284</ele>
        <time>2022-03-26T14:36:35.067Z</time>
      </trkpt>
      <trkpt lat="43.67898" lon="1.45402">
        <ele>179.432112</ele>
        <time>2022-03-26T14:36:37.063Z</time>
      </trkpt>
      <trkpt lat="43.67908" lon="1.45395">
        <ele>179.45055</ele>
        <time>2022-03-26T14:36:39.062Z</time>
      </trkpt>
      <trkpt lat="43.67917" lon="1.45388">
        <ele>179.46867</ele>
        <time>2022-03-26T14:36:41.064Z</time>
      </trkpt>
      <trkpt lat="43.67926" lon="1.45382">
        <ele>179.48525</ele>
        <time>2022-03-26T14:36:43.075Z</time>
      </trkpt>
      <trkpt lat="43.67939" lon="1.45375">
        <ele>179.507844</ele>
        <time>2022-03-26T14:36:46.066Z</time>
      </trkpt>
      <trkpt lat="43.67949" lon="1.45375">
        <ele>179.524648</ele>
        <time>2022-03-26T14:36:48.058Z</time>
      </trkpt>
      <trkpt lat="43.6796" lon="1.45372">
        <ele>179.544352</ele>
        <time>2022-03-26T14:36:50.064Z</time>
      </trkpt>
      <trkpt lat="43.67971" lon="1.45367">
        <ele>179.56353</ele>
        <time>2022-03-26T14:36:52.068Z</time>
      </trkpt>
      <trkpt lat="43.67981" lon="1.45359">
        <ele>179.617269</ele>
        <time>2022-03-26T14:36:54.070Z</time>
      </trkpt>
      <trkpt lat="43.67989" lon="1.4535">
        <ele>179.678575</ele>
        <time>2022-03-26T14:36:56.058Z</time>
      </trkpt>
      <trkpt lat="43.67998" lon="1.45342">
        <ele>179.739501</ele>
        <time>2022-03-26T14:36:58.083Z</time>
      </trkpt>
      <trkpt lat="43.68008" lon="1.45336">
        <ele>179.799709</ele>
        <time>2022-03-26T14:37:00.064Z</time>
      </trkpt>
      <trkpt lat="43.68018" lon="1.45329">
        <ele>179.860423</ele>
        <time>2022-03-26T14:37:02.089Z</time>
      </trkpt>
      <trkpt lat="43.68027" lon="1.45322">
        <ele>179.92095</ele>
        <time>2022-03-26T14:37:04.060Z</time>
      </trkpt>
      <trkpt lat="43.68037" lon="1.45315">
        <ele>179.984438</ele>
        <time>2022-03-26T14:37:06.072Z</time>
      </trkpt>
      <trkpt lat="43.68047" lon="1.45306">
        <ele>180.049169</ele>
        <time>2022-03-26T14:37:08.063Z</time>
      </trkpt>
      <trkpt lat="43.68057" lon="1.45297">
        <ele>180.115434</ele>
        <time>2022-03-26T14:37:10.077Z</time>
      </trkpt>
      <trkpt lat="43.68066" lon="1.45288">
        <ele>180.181925</ele>
        <time>2022-03-26T14:37:12.065Z</time>
      </trkpt>
      <trkpt lat="43.68077" lon="1.45279">
        <ele>180.251247</ele>
        <time>2022-03-26T14:37:14.052Z</time>
      </trkpt>
      <trkpt lat="43.68087" lon="1.45271">
        <ele>180.316407</ele>
        <time>2022-03-26T14:37:16.067Z</time>
      </trkpt>
      <trkpt lat="43.68096" lon="1.45263">
        <ele>180.379301</ele>
        <time>2022-03-26T14:37:18.071Z</time>
      </trkpt>
      <trkpt lat="43.68105" lon="1.45256">
        <ele>180.437587</ele>
        <time>2022-03-26T14:37:20.063Z</time>
      </trkpt>
      <trkpt lat="43.68114" lon="1.45248">
        <ele>180.494342</ele>
        <time>2022-03-26T14:37:22.070Z</time>
      </trkpt>
      <trkpt lat="43.68122" lon="1.4524">
        <ele>180.552524</ele>
        <time>2022-03-26T14:37:24.061Z</time>
      </trkpt>
      <trkpt lat="43.68131" lon="1.45233">
        <ele>180.600241</ele>
        <time>2022-03-26T14:37:26.072Z</time>
      </trkpt>
      <trkpt lat="43.6814" lon="1.45224">
        <ele>180.63924</ele>
        <time>2022-03-26T14:37:28.079Z</time>
      </trkpt>
      <trkpt lat="43.68148" lon="1.45216">
        <ele>180.675614</ele>
        <time>2022-03-26T14:37:30.051Z</time>
      </trkpt>
      <trkpt lat="43.68156" lon="1.45207">
        <ele>180.710343</ele>
        <time>2022-03-26T14:37:32.064Z</time>
      </trkpt>
      <trkpt lat="43.68166" lon="1.45205">
        <ele>180.748087</ele>
        <time>2022-03-26T14:37:35.050Z</time>
      </trkpt>
      <trkpt lat="43.6817" lon="1.45218">
        <ele>180.783859</ele>
        <time>2022-03-26T14:37:37.058Z</time>
      </trkpt>
      <trkpt lat="43.68174" lon="1.45234">
        <ele>180.826351</ele>
        <time>2022-03-26T14:37:39.073Z</time>
      </trkpt>
      <trkpt lat="43.68177" lon="1.4525">
        <ele>180.869516</ele>
        <time>2022-03-26T14:37:41.070Z</time>
      </trkpt>
      <trkpt lat="43.68181" lon="1.45265">
        <ele>180.910635</ele>
        <time>2022-03-26T14:37:43.052Z</time>
      </trkpt>
      <trkpt lat="43.68184" lon="1.4528">
        <ele>180.951508</ele>
        <time>2022-03-26T14:37:45.077Z</time>
      </trkpt>
      <trkpt lat="43.68188" lon="1.45296">
        <ele>180.995507</ele>
        <time>2022-03-26T14:37:47.073Z</time>
      </trkpt>
      <trkpt lat="43.68193" lon="1.45312">
        <ele>181.039264</ele>
        <time>2022-03-26T14:37:49.062Z</time>
      </trkpt>
      <trkpt lat="43.68197" lon="1.45327">
        <ele>181.081096</ele>
        <time>2022-03-26T14:37:51.058Z</time>
      </trkpt>
      <trkpt lat="43.68201" lon="1.45341">
        <ele>181.119658</ele>
        <time>2022-03-26T14:37:53.074Z</time>
      </trkpt>
      <trkpt lat="43.68204" lon="1.45355">
        <ele>181.157237</ele>
        <time>2022-03-26T14:37:55.079Z</time>
      </trkpt>
      <trkpt lat="43.68208" lon="1.45369">
        <ele>181.19615</ele>
        <time>2022-03-26T14:37:57.076Z</time>
      </trkpt>
      <trkpt lat="43.68212" lon="1.45383">
        <ele>181.269203</ele>
        <time>2022-03-26T14:37:59.084Z</time>
      </trkpt>
      <trkpt lat="43.68216" lon="1.45398">
        <ele>181.40808</ele>
        <time>2022-03-26T14:38:01.066Z</time>
      </trkpt>
      <trkpt lat="43.68219" lon="1.45412">
        <ele>181.530645</ele>
        <time>2022-03-26T14:38:03.066Z</time>
      </trkpt>
      <trkpt lat="43.68221" lon="1.45428">
        <ele>181.676438</ele>
        <time>2022-03-26T14:38:06.068Z</time>
      </trkpt>
      <trkpt lat="43.68228" lon="1.45442">
        <ele>181.822461</ele>
        <time>2022-03-26T14:38:09.054Z</time>
      </trkpt>
      <trkpt lat="43.68232" lon="1.45455">
        <ele>181.949025</ele>
        <time>2022-03-26T14:38:11.064Z</time>
      </trkpt>
      <trkpt lat="43.68237" lon="1.45469">
        <ele>182.087816</ele>
        <time>2022-03-26T14:38:13.055Z</time>
      </trkpt>
      <trkpt lat="43.68241" lon="1.45484">
        <ele>182.230886</ele>
        <time>2022-03-26T14:38:15.063Z</time>
      </trkpt>
      <trkpt lat="43.68245" lon="1.45499">
        <ele>182.373521</ele>
        <time>2022-03-26T14:38:17.079Z</time>
      </trkpt>
      <trkpt lat="43.68249" lon="1.45514">
        <ele>182.511605</ele>
        <time>2022-03-26T14:38:19.060Z</time>
      </trkpt>
      <trkpt lat="43.68253" lon="1.45529">
        <ele>182.653152</ele>
        <time>2022-03-26T14:38:21.049Z</time>
      </trkpt>
      <trkpt lat="43.68257" lon="1.45544">
        <ele>182.795758</ele>
        <time>2022-03-26T14:38:23.067Z</time>
      </trkpt>
      <trkpt lat="43.68261" lon="1.45559">
        <ele>182.93632</ele>
        <time>2022-03-26T14:38:25.068Z</time>
      </trkpt>
      <trkpt lat="43.68264" lon="1.45574">
        <ele>183.072388</ele>
        <time>2022-03-26T14:38:27.080Z</time>
      </trkpt>
      <trkpt lat="43.68268" lon="1.45589">
        <ele>183.21182</ele>
        <time>2022-03-26T14:38:29.063Z</time>
      </trkpt>
      <trkpt lat="43.68271" lon="1.45603">
        <ele>183.336158</ele>
        <time>2022-03-26T14:38:31.063Z</time>
      </trkpt>
      <trkpt lat="43.68273" lon="1.45616">
        <ele>183.451277</ele>
        <time>2022-03-26T14:38:33.063Z</time>
      </trkpt>
      <trkpt lat="43.68276" lon="1.45629">
        <ele>183.565053</ele>
        <time>2022-03-26T14:38:35.066Z</time>
      </trkpt>
      <trkpt lat="43.68278" lon="1.45644">
        <ele>183.691735</ele>
        <time>2022-03-26T14:38:37.054Z</time>
      </trkpt>
      <trkpt lat="43.6828" lon="1.4566">
        <ele>183.820912</ele>
        <time>2022-03-26T14:38:39.051Z</time>
      </trkpt>
      <trkpt lat="43.68281" lon="1.45675">
        <ele>183.94249</ele>
        <time>2022-03-26T14:38:41.059Z</time>
      </trkpt>
      <trkpt lat="43.68281" lon="1.45691">
        <ele>184.064947</ele>
        <time>2022-03-26T14:38:43.064Z</time>
      </trkpt>
      <trkpt lat="43.6828" lon="1.45707">
        <ele>184.196257</ele>
        <time>2022-03-26T14:38:45.069Z</time>
      </trkpt>
      <trkpt lat="43.68279" lon="1.45723">
        <ele>184.324364</ele>
        <time>2022-03-26T14:38:47.065Z</time>
      </trkpt>
      <trkpt lat="43.68277" lon="1.45739">
        <ele>184.45434</ele>
        <time>2022-03-26T14:38:49.071Z</time>
      </trkpt>
      <trkpt lat="43.68276" lon="1.45754">
        <ele>184.582326</ele>
        <time>2022-03-26T14:38:51.080Z</time>
      </trkpt>
      <trkpt lat="43.68276" lon="1.45768">
        <ele>184.690329</ele>
        <time>2022-03-26T14:38:53.052Z</time>
      </trkpt>
      <trkpt lat="43.68275" lon="1.45781">
        <ele>184.795888</ele>
        <time>2022-03-26T14:38:55.068Z</time>
      </trkpt>
      <trkpt lat="43.68275" lon="1.45796">
        <ele>184.916109</ele>
        <time>2022-03-26T14:38:57.076Z</time>
      </trkpt>
      <trkpt lat="43.68274" lon="1.45812">
        <ele>185.043517</ele>
        <time>2022-03-26T14:38:59.063Z</time>
      </trkpt>
      <trkpt lat="43.68274" lon="1.45827">
        <ele>185.167022</ele>
        <time>2022-03-26T14:39:01.075Z</time>
      </trkpt>
      <trkpt lat="43.68273" lon="1.45842">
        <ele>185.287187</ele>
        <time>2022-03-26T14:39:03.079Z</time>
      </trkpt>
      <trkpt lat="43.68272" lon="1.45856">
        <ele>185.406035</ele>
        <time>2022-03-26T14:39:05.069Z</time>
      </trkpt>
      <trkpt lat="43.68271" lon="1.45871">
        <ele>185.876598</ele>
        <time>2022-03-26T14:39:07.069Z</time>
      </trkpt>
      <trkpt lat="43.6827" lon="1.45884">
        <ele>186.331872</ele>
        <time>2022-03-26T14:39:09.063Z</time>
      </trkpt>
      <trkpt lat="43.68269" lon="1.45899">
        <ele>186.849427</ele>
        <time>2022-03-26T14:39:21.072Z</time>
      </trkpt>
      <trkpt lat="43.68268" lon="1.45912">
        <ele>187.302569</ele>
        <time>2022-03-26T14:39:23.064Z</time>
      </trkpt>
      <trkpt lat="43.68267" lon="1.45927">
        <ele>187.808928</ele>
        <time>2022-03-26T14:39:25.067Z</time>
      </trkpt>
      <trkpt lat="43.68265" lon="1.45941">
        <ele>188.323622</ele>
        <time>2022-03-26T14:39:27.057Z</time>
      </trkpt>
      <trkpt lat="43.68263" lon="1.45955">
        <ele>188.807472</ele>
        <time>2022-03-26T14:39:29.052Z</time>
      </trkpt>
      <trkpt lat="43.68262" lon="1.45974">
        <ele>189.45648</ele>
        <time>2022-03-26T14:39:32.073Z</time>
      </trkpt>
      <trkpt lat="43.68263" lon="1.45989">
        <ele>189.972271</ele>
        <time>2022-03-26T14:39:34.055Z</time>
      </trkpt>
      <trkpt lat="43.68266" lon="1.46004">
        <ele>190.509249</ele>
        <time>2022-03-26T14:39:36.063Z</time>
      </trkpt>
      <trkpt lat="43.68269" lon="1.46018">
        <ele>191.020735</ele>
        <time>2022-03-26T14:39:38.076Z</time>
      </trkpt>
      <trkpt lat="43.68274" lon="1.4603">
        <ele>191.499692</ele>
        <time>2022-03-26T14:39:40.062Z</time>
      </trkpt>
      <trkpt lat="43.68277" lon="1.46043">
        <ele>191.949354</ele>
        <time>2022-03-26T14:39:42.055Z</time>
      </trkpt>
      <trkpt lat="43.68279" lon="1.46055">
        <ele>192.395826</ele>
        <time>2022-03-26T14:39:44.065Z</time>
      </trkpt>
      <trkpt lat="43.68281" lon="1.46068">
        <ele>192.848879</ele>
        <time>2022-03-26T14:39:46.067Z</time>
      </trkpt>
      <trkpt lat="43.68281" lon="1.46082">
        <ele>193.318472</ele>
        <time>2022-03-26T14:39:48.064Z</time>
      </trkpt>
      <trkpt lat="43.68281" lon="1.46096">
        <ele>193.794895</ele>
        <time>2022-03-26T14:39:50.062Z</time>
      </trkpt>
      <trkpt lat="43.68282" lon="1.46109">
        <ele>194.030314</ele>
        <time>2022-03-26T14:39:52.074Z</time>
      </trkpt>
      <trkpt lat="43.68285" lon="1.46126">
        <ele>194.094109</ele>
        <time>2022-03-26T14:39:55.063Z</time>
      </trkpt>
      <trkpt lat="43.6829" lon="1.46136">
        <ele>194.140152</ele>
        <time>2022-03-26T14:39:58.048Z</time>
      </trkpt>
      <trkpt lat="43.68299" lon="1.46146">
        <ele>194.194488</ele>
        <time>2022-03-26T14:40:02.062Z</time>
      </trkpt>
      <trkpt lat="43.68307" lon="1.4616">
        <ele>194.259441</ele>
        <time>2022-03-26T14:40:05.068Z</time>
      </trkpt>
      <trkpt lat="43.68313" lon="1.46171">
        <ele>194.311164</ele>
        <time>2022-03-26T14:40:07.064Z</time>
      </trkpt>
      <trkpt lat="43.68321" lon="1.46185">
        <ele>194.376303</ele>
        <time>2022-03-26T14:40:09.063Z</time>
      </trkpt>
      <trkpt lat="43.6833" lon="1.46201">
        <ele>194.450503</ele>
        <time>2022-03-26T14:40:11.061Z</time>
      </trkpt>
      <trkpt lat="43.68339" lon="1.46218">
        <ele>194.525594</ele>
        <time>2022-03-26T14:40:13.072Z</time>
      </trkpt>
      <trkpt lat="43.6835" lon="1.46233">
        <ele>194.601839</ele>
        <time>2022-03-26T14:40:15.067Z</time>
      </trkpt>
      <trkpt lat="43.68359" lon="1.46246">
        <ele>194.665836</ele>
        <time>2022-03-26T14:40:17.067Z</time>
      </trkpt>
      <trkpt lat="43.68365" lon="1.46258">
        <ele>194.720389</ele>
        <time>2022-03-26T14:40:20.070Z</time>
      </trkpt>
      <trkpt lat="43.68372" lon="1.46246">
        <ele>194.775619</ele>
        <time>2022-03-26T14:40:25.072Z</time>
      </trkpt>
      <trkpt lat="43.68381" lon="1.46243">
        <ele>194.820887</ele>
        <time>2022-03-26T14:40:30.062Z</time>
      </trkpt>
      <trkpt lat="43.684" lon="1.46242">
        <ele>194.87392</ele>
        <time>2022-03-26T14:41:04.064Z</time>
      </trkpt>
      <trkpt lat="43.68409" lon="1.46244">
        <ele>194.745298</ele>
        <time>2022-03-26T14:41:07.066Z</time>
      </trkpt>
      <trkpt lat="43.68421" lon="1.46247">
        <ele>194.576886</ele>
        <time>2022-03-26T14:41:16.063Z</time>
      </trkpt>
      <trkpt lat="43.68429" lon="1.46253">
        <ele>194.449758</ele>
        <time>2022-03-26T14:41:20.059Z</time>
      </trkpt>
      <trkpt lat="43.6844" lon="1.46251">
        <ele>194.286976</ele>
        <time>2022-03-26T14:41:26.061Z</time>
      </trkpt>
      <trkpt lat="43.68451" lon="1.46243">
        <ele>194.122514</ele>
        <time>2022-03-26T14:41:29.076Z</time>
      </trkpt>
      <trkpt lat="43.6846" lon="1.46239">
        <ele>193.978399</ele>
        <time>2022-03-26T14:41:32.066Z</time>
      </trkpt>
      <trkpt lat="43.6847" lon="1.4625">
        <ele>193.802456</ele>
        <time>2022-03-26T14:41:35.056Z</time>
      </trkpt>
      <trkpt lat="43.68478" lon="1.46264">
        <ele>193.620659</ele>
        <time>2022-03-26T14:41:38.064Z</time>
      </trkpt>
      <trkpt lat="43.68489" lon="1.46274">
        <ele>193.435758</ele>
        <time>2022-03-26T14:41:41.062Z</time>
      </trkpt>
      <trkpt lat="43.68498" lon="1.46276">
        <ele>193.304087</ele>
        <time>2022-03-26T14:41:43.069Z</time>
      </trkpt>
      <trkpt lat="43.68508" lon="1.46276">
        <ele>193.166677</ele>
        <time>2022-03-26T14:41:45.066Z</time>
      </trkpt>
      <trkpt lat="43.68517" lon="1.46275">
        <ele>193.034405</ele>
        <time>2022-03-26T14:41:47.060Z</time>
      </trkpt>
      <trkpt lat="43.68527" lon="1.46271">
        <ele>192.891128</ele>
        <time>2022-03-26T14:41:49.066Z</time>
      </trkpt>
      <trkpt lat="43.6854" lon="1.46267">
        <ele>192.714631</ele>
        <time>2022-03-26T14:41:51.058Z</time>
      </trkpt>
      <trkpt lat="43.68551" lon="1.46268">
        <ele>192.554526</ele>
        <time>2022-03-26T14:41:53.064Z</time>
      </trkpt>
      <trkpt lat="43.68561" lon="1.46268">
        <ele>192.410105</ele>
        <time>2022-03-26T14:41:55.070Z</time>
      </trkpt>
      <trkpt lat="43.6857" lon="1.46263">
        <ele>192.502859</ele>
        <time>2022-03-26T14:41:57.051Z</time>
      </trkpt>
      <trkpt lat="43.6858" lon="1.46266">
        <ele>192.655372</ele>
        <time>2022-03-26T14:42:03.067Z</time>
      </trkpt>
      <trkpt lat="43.68588" lon="1.46272">
        <ele>192.801131</ele>
        <time>2022-03-26T14:42:06.054Z</time>
      </trkpt>
      <trkpt lat="43.68599" lon="1.46278">
        <ele>192.997537</ele>
        <time>2022-03-26T14:42:09.081Z</time>
      </trkpt>
      <trkpt lat="43.68609" lon="1.4628">
        <ele>193.14829</ele>
        <time>2022-03-26T14:42:11.068Z</time>
      </trkpt>
      <trkpt lat="43.68621" lon="1.4628">
        <ele>193.342326</ele>
        <time>2022-03-26T14:42:14.067Z</time>
      </trkpt>
      <trkpt lat="43.68633" lon="1.4628">
        <ele>193.531592</ele>
        <time>2022-03-26T14:42:18.083Z</time>
      </trkpt>
      <trkpt lat="43.68641" lon="1.4629">
        <ele>193.694768</ele>
        <time>2022-03-26T14:42:21.050Z</time>
      </trkpt>
      <trkpt lat="43.6865" lon="1.46301">
        <ele>193.885089</ele>
        <time>2022-03-26T14:42:24.053Z</time>
      </trkpt>
      <trkpt lat="43.68659" lon="1.46305">
        <ele>194.042345</ele>
        <time>2022-03-26T14:42:27.057Z</time>
      </trkpt>
      <trkpt lat="43.6867" lon="1.46309">
        <ele>194.213955</ele>
        <time>2022-03-26T14:42:31.083Z</time>
      </trkpt>
      <trkpt lat="43.68678" lon="1.46313">
        <ele>194.355929</ele>
        <time>2022-03-26T14:42:36.063Z</time>
      </trkpt>
      <trkpt lat="43.68689" lon="1.46317">
        <ele>194.531345</ele>
        <time>2022-03-26T14:42:39.066Z</time>
      </trkpt>
      <trkpt lat="43.68694" lon="1.46327">
        <ele>194.677424</ele>
        <time>2022-03-26T14:43:06.076Z</time>
      </trkpt>
      <trkpt lat="43.68706" lon="1.46329">
        <ele>194.858025</ele>
        <time>2022-03-26T14:43:13.063Z</time>
      </trkpt>
      <trkpt lat="43.68715" lon="1.46332">
        <ele>195.009208</ele>
        <time>2022-03-26T14:43:17.056Z</time>
      </trkpt>
      <trkpt lat="43.68725" lon="1.46333">
        <ele>195.175572</ele>
        <time>2022-03-26T14:43:22.073Z</time>
      </trkpt>
      <trkpt lat="43.68734" lon="1.4634">
        <ele>195.575803</ele>
        <time>2022-03-26T14:45:50.068Z</time>
      </trkpt>
      <trkpt lat="43.68745" lon="1.46346">
        <ele>196.107566</ele>
        <time>2022-03-26T14:45:54.065Z</time>
      </trkpt>
      <trkpt lat="43.68754" lon="1.46348">
        <ele>196.542296</ele>
        <time>2022-03-26T14:45:59.067Z</time>
      </trkpt>
      <trkpt lat="43.68767" lon="1.46352">
        <ele>197.127616</ele>
        <time>2022-03-26T14:46:03.073Z</time>
      </trkpt>
      <trkpt lat="43.68777" lon="1.46355">
        <ele>197.644193</ele>
        <time>2022-03-26T14:46:05.065Z</time>
      </trkpt>
      <trkpt lat="43.68787" lon="1.4636">
        <ele>198.139802</ele>
        <time>2022-03-26T14:46:07.074Z</time>
      </trkpt>
      <trkpt lat="43.68797" lon="1.46364">
        <ele>198.590729</ele>
        <time>2022-03-26T14:46:09.079Z</time>
      </trkpt>
      <trkpt lat="43.6881" lon="1.46366">
        <ele>199.193291</ele>
        <time>2022-03-26T14:46:12.066Z</time>
      </trkpt>
      <trkpt lat="43.68819" lon="1.46364">
        <ele>199.6383</ele>
        <time>2022-03-26T14:46:14.058Z</time>
      </trkpt>
      <trkpt lat="43.68831" lon="1.46366">
        <ele>200.179463</ele>
        <time>2022-03-26T14:46:16.064Z</time>
      </trkpt>
      <trkpt lat="43.68839" lon="1.46371">
        <ele>200.5964</ele>
        <time>2022-03-26T14:46:18.066Z</time>
      </trkpt>
      <trkpt lat="43.6885" lon="1.46378">
        <ele>201.185244</ele>
        <time>2022-03-26T14:46:21.059Z</time>
      </trkpt>
      <trkpt lat="43.6886" lon="1.46382">
        <ele>201.626299</ele>
        <time>2022-03-26T14:46:24.062Z</time>
      </trkpt>
      <trkpt lat="43.68869" lon="1.46388">
        <ele>202.098428</ele>
        <time>2022-03-26T14:46:31.057Z</time>
      </trkpt>
      <trkpt lat="43.68875" lon="1.46397">
        <ele>202.533782</ele>
        <time>2022-03-26T14:46:34.053Z</time>
      </trkpt>
      <trkpt lat="43.6888" lon="1.4641">
        <ele>203.017404</ele>
        <time>2022-03-26T14:46:43.045Z</time>
      </trkpt>
      <trkpt lat="43.68889" lon="1.46413">
        <ele>203.475434</ele>
        <time>2022-03-26T14:46:49.071Z</time>
      </trkpt>
      <trkpt lat="43.68899" lon="1.46411">
        <ele>203.948188</ele>
        <time>2022-03-26T14:46:58.070Z</time>
      </trkpt>
      <trkpt lat="43.68908" lon="1.46417">
        <ele>204.426648</ele>
        <time>2022-03-26T14:47:03.062Z</time>
      </trkpt>
      <trkpt lat="43.68917" lon="1.46417">
        <ele>204.882638</ele>
        <time>2022-03-26T14:47:09.076Z</time>
      </trkpt>
      <trkpt lat="43.68928" lon="1.46429">
        <ele>205.582819</ele>
        <time>2022-03-26T14:47:26.052Z</time>
      </trkpt>
      <trkpt lat="43.68933" lon="1.4644">
        <ele>206.048682</ele>
        <time>2022-03-26T14:47:30.060Z</time>
      </trkpt>
      <trkpt lat="43.68939" lon="1.46453">
        <ele>206.609529</ele>
        <time>2022-03-26T14:47:34.060Z</time>
      </trkpt>
      <trkpt lat="43.68946" lon="1.46465">
        <ele>207.138912</ele>
        <time>2022-03-26T14:47:38.072Z</time>
      </trkpt>
      <trkpt lat="43.68958" lon="1.46464">
        <ele>207.734465</ele>
        <time>2022-03-26T14:47:42.053Z</time>
      </trkpt>
      <trkpt lat="43.68972" lon="1.46464">
        <ele>208.418571</ele>
        <time>2022-03-26T14:47:45.072Z</time>
      </trkpt>
      <trkpt lat="43.68982" lon="1.46468">
        <ele>208.967287</ele>
        <time>2022-03-26T14:47:49.056Z</time>
      </trkpt>
      <trkpt lat="43.68991" lon="1.46476">
        <ele>209.476637</ele>
        <time>2022-03-26T14:47:53.057Z</time>
      </trkpt>
      <trkpt lat="43.68998" lon="1.46483">
        <ele>209.923183</ele>
        <time>2022-03-26T14:47:56.070Z</time>
      </trkpt>
      <trkpt lat="43.69009" lon="1.46491">
        <ele>210.500958</ele>
        <time>2022-03-26T14:48:00.056Z</time>
      </trkpt>
      <trkpt lat="43.69015" lon="1.46501">
        <ele>211.009203</ele>
        <time>2022-03-26T14:48:03.057Z</time>
      </trkpt>
      <trkpt lat="43.69015" lon="1.46515">
        <ele>211.511313</ele>
        <time>2022-03-26T14:48:06.076Z</time>
      </trkpt>
      <trkpt lat="43.6901" lon="1.4653">
        <ele>212.094401</ele>
        <time>2022-03-26T14:48:10.064Z</time>
      </trkpt>
      <trkpt lat="43.69004" lon="1.46541">
        <ele>212.498109</ele>
        <time>2022-03-26T14:48:13.057Z</time>
      </trkpt>
      <trkpt lat="43.68999" lon="1.46556">
        <ele>212.533536</ele>
        <time>2022-03-26T14:48:17.060Z</time>
      </trkpt>
      <trkpt lat="43.68995" lon="1.4657">
        <ele>212.564069</ele>
        <time>2022-03-26T14:48:20.068Z</time>
      </trkpt>
      <trkpt lat="43.68988" lon="1.46582">
        <ele>212.596452</ele>
        <time>2022-03-26T14:48:23.065Z</time>
      </trkpt>
      <trkpt lat="43.68975" lon="1.46587">
        <ele>212.634903</ele>
        <time>2022-03-26T14:48:26.066Z</time>
      </trkpt>
      <trkpt lat="43.68965" lon="1.46587">
        <ele>212.663117</ele>
        <time>2022-03-26T14:48:29.057Z</time>
      </trkpt>
      <trkpt lat="43.68956" lon="1.46592">
        <ele>212.692565</ele>
        <time>2022-03-26T14:48:32.056Z</time>
      </trkpt>
      <trkpt lat="43.6895" lon="1.46605">
        <ele>212.724411</ele>
        <time>2022-03-26T14:48:35.058Z</time>
      </trkpt>
      <trkpt lat="43.68952" lon="1.46619">
        <ele>212.753145</ele>
        <time>2022-03-26T14:48:38.067Z</time>
      </trkpt>
      <trkpt lat="43.68954" lon="1.46633">
        <ele>212.783256</ele>
        <time>2022-03-26T14:48:41.055Z</time>
      </trkpt>
      <trkpt lat="43.68958" lon="1.46647">
        <ele>212.814524</ele>
        <time>2022-03-26T14:48:44.053Z</time>
      </trkpt>
      <trkpt lat="43.68969" lon="1.46649">
        <ele>212.84749</ele>
        <time>2022-03-26T14:48:48.070Z</time>
      </trkpt>
      <trkpt lat="43.68979" lon="1.46644">
        <ele>212.876892</ele>
        <time>2022-03-26T14:48:52.077Z</time>
      </trkpt>
      <trkpt lat="43.68988" lon="1.46638">
        <ele>212.907033</ele>
        <time>2022-03-26T14:48:56.057Z</time>
      </trkpt>
      <trkpt lat="43.68998" lon="1.46626">
        <ele>212.943936</ele>
        <time>2022-03-26T14:49:00.063Z</time>
      </trkpt>
      <trkpt lat="43.69006" lon="1.46617">
        <ele>212.974011</ele>
        <time>2022-03-26T14:49:02.068Z</time>
      </trkpt>
      <trkpt lat="43.69015" lon="1.46607">
        <ele>213.007459</ele>
        <time>2022-03-26T14:49:04.089Z</time>
      </trkpt>
      <trkpt lat="43.69026" lon="1.46595">
        <ele>212.335968</ele>
        <time>2022-03-26T14:49:06.062Z</time>
      </trkpt>
      <trkpt lat="43.69038" lon="1.46581">
        <ele>211.520554</ele>
        <time>2022-03-26T14:49:08.074Z</time>
      </trkpt>
      <trkpt lat="43.69049" lon="1.46567">
        <ele>210.723956</ele>
        <time>2022-03-26T14:49:10.063Z</time>
      </trkpt>
      <trkpt lat="43.69057" lon="1.46558">
        <ele>210.188706</ele>
        <time>2022-03-26T14:49:12.065Z</time>
      </trkpt>
      <trkpt lat="43.69065" lon="1.46565">
        <ele>209.689125</ele>
        <time>2022-03-26T14:49:18.062Z</time>
      </trkpt>
      <trkpt lat="43.69072" lon="1.46575">
        <ele>209.169726</ele>
        <time>2022-03-26T14:49:21.065Z</time>
      </trkpt>
      <trkpt lat="43.69082" lon="1.46573">
        <ele>208.627153</ele>
        <time>2022-03-26T14:49:27.084Z</time>
      </trkpt>
      <trkpt lat="43.69092" lon="1.46575">
        <ele>208.085752</ele>
        <time>2022-03-26T14:49:31.071Z</time>
      </trkpt>
      <trkpt lat="43.69107" lon="1.46603">
        <ele>206.783922</ele>
        <time>2022-03-26T14:49:55.062Z</time>
      </trkpt>
      <trkpt lat="43.69109" lon="1.46608">
        <ele>203.137207</ele>
        <time>2022-03-26T14:51:23.066Z</time>
      </trkpt>
      <trkpt lat="43.69113" lon="1.46592">
        <ele>203.494154</ele>
        <time>2022-03-26T14:51:26.060Z</time>
      </trkpt>
      <trkpt lat="43.69123" lon="1.46584">
        <ele>203.833014</ele>
        <time>2022-03-26T14:51:29.053Z</time>
      </trkpt>
      <trkpt lat="43.69131" lon="1.46593">
        <ele>204.12737</ele>
        <time>2022-03-26T14:51:32.069Z</time>
      </trkpt>
      <trkpt lat="43.69133" lon="1.46605">
        <ele>204.397846</ele>
        <time>2022-03-26T14:51:34.080Z</time>
      </trkpt>
      <trkpt lat="43.69135" lon="1.46617">
        <ele>204.666861</ele>
        <time>2022-03-26T14:51:38.059Z</time>
      </trkpt>
      <trkpt lat="43.69143" lon="1.46632">
        <ele>205.059006</ele>
        <time>2022-03-26T14:51:54.067Z</time>
      </trkpt>
      <trkpt lat="43.69144" lon="1.46646">
        <ele>205.362543</ele>
        <time>2022-03-26T14:51:58.070Z</time>
      </trkpt>
      <trkpt lat="43.69147" lon="1.46661">
        <ele>205.691831</ele>
        <time>2022-03-26T14:52:02.056Z</time>
      </trkpt>
      <trkpt lat="43.6915" lon="1.46677">
        <ele>206.052971</ele>
        <time>2022-03-26T14:52:05.059Z</time>
      </trkpt>
      <trkpt lat="43.69153" lon="1.46689">
        <ele>206.324098</ele>
        <time>2022-03-26T14:52:07.068Z</time>
      </trkpt>
      <trkpt lat="43.69156" lon="1.46701">
        <ele>206.604211</ele>
        <time>2022-03-26T14:52:09.069Z</time>
      </trkpt>
      <trkpt lat="43.6916" lon="1.46713">
        <ele>206.888284</ele>
        <time>2022-03-26T14:52:11.071Z</time>
      </trkpt>
      <trkpt lat="43.69162" lon="1.46726">
        <ele>207.178934</ele>
        <time>2022-03-26T14:52:13.061Z</time>
      </trkpt>
      <trkpt lat="43.69163" lon="1.4674">
        <ele>207.471637</ele>
        <time>2022-03-26T14:52:15.067Z</time>
      </trkpt>
      <trkpt lat="43.69163" lon="1.46753">
        <ele>207.762496</ele>
        <time>2022-03-26T14:52:17.059Z</time>
      </trkpt>
      <trkpt lat="43.69166" lon="1.46766">
        <ele>208.037253</ele>
        <time>2022-03-26T14:52:19.069Z</time>
      </trkpt>
      <trkpt lat="43.69175" lon="1.46777">
        <ele>209.252084</ele>
        <time>2022-03-26T14:52:22.062Z</time>
      </trkpt>
      <trkpt lat="43.69187" lon="1.46781">
        <ele>210.935603</ele>
        <time>2022-03-26T14:52:25.067Z</time>
      </trkpt>
      <trkpt lat="43.69197" lon="1.46782">
        <ele>212.352725</ele>
        <time>2022-03-26T14:52:28.046Z</time>
      </trkpt>
      <trkpt lat="43.69208" lon="1.4678">
        <ele>213.94728</ele>
        <time>2022-03-26T14:52:32.073Z</time>
      </trkpt>
      <trkpt lat="43.69217" lon="1.46774">
        <ele>215.338687</ele>
        <time>2022-03-26T14:52:36.056Z</time>
      </trkpt>
      <trkpt lat="43.69227" lon="1.46774">
        <ele>216.642057</ele>
        <time>2022-03-26T14:52:40.059Z</time>
      </trkpt>
      <trkpt lat="43.69234" lon="1.46783">
        <ele>217.977629</ele>
        <time>2022-03-26T14:52:44.064Z</time>
      </trkpt>
      <trkpt lat="43.6924" lon="1.46792">
        <ele>219.258092</ele>
        <time>2022-03-26T14:52:48.053Z</time>
      </trkpt>
      <trkpt lat="43.69248" lon="1.46802">
        <ele>220.772319</ele>
        <time>2022-03-26T14:52:52.051Z</time>
      </trkpt>
      <trkpt lat="43.69257" lon="1.46812">
        <ele>222.344089</ele>
        <time>2022-03-26T14:52:56.048Z</time>
      </trkpt>
      <trkpt lat="43.69264" lon="1.46821">
        <ele>223.68983</ele>
        <time>2022-03-26T14:53:00.065Z</time>
      </trkpt>
      <trkpt lat="43.69275" lon="1.46823">
        <ele>225.268579</ele>
        <time>2022-03-26T14:53:03.054Z</time>
      </trkpt>
      <trkpt lat="43.69285" lon="1.46825">
        <ele>226.705445</ele>
        <time>2022-03-26T14:53:07.070Z</time>
      </trkpt>
      <trkpt lat="43.69295" lon="1.46826">
        <ele>228.05664</ele>
        <time>2022-03-26T14:53:12.050Z</time>
      </trkpt>
      <trkpt lat="43.69294" lon="1.46811">
        <ele>229.597762</ele>
        <time>2022-03-26T14:53:18.064Z</time>
      </trkpt>
      <trkpt lat="43.69294" lon="1.46796">
        <ele>231.117293</ele>
        <time>2022-03-26T14:53:22.069Z</time>
      </trkpt>
      <trkpt lat="43.69295" lon="1.46781">
        <ele>232.641787</ele>
        <time>2022-03-26T14:53:26.056Z</time>
      </trkpt>
      <trkpt lat="43.69295" lon="1.46768">
        <ele>232.899674</ele>
        <time>2022-03-26T14:53:30.065Z</time>
      </trkpt>
      <trkpt lat="43.69293" lon="1.46755">
        <ele>231.905089</ele>
        <time>2022-03-26T14:53:33.061Z</time>
      </trkpt>
      <trkpt lat="43.69292" lon="1.46743">
        <ele>230.874479</ele>
        <time>2022-03-26T14:53:36.069Z</time>
      </trkpt>
      <trkpt lat="43.69284" lon="1.46737">
        <ele>229.858425</ele>
        <time>2022-03-26T14:53:44.096Z</time>
      </trkpt>
      <trkpt lat="43.69274" lon="1.46734">
        <ele>228.696829</ele>
        <time>2022-03-26T14:53:51.060Z</time>
      </trkpt>
      <trkpt lat="43.69265" lon="1.46729">
        <ele>227.644935</ele>
        <time>2022-03-26T14:53:56.064Z</time>
      </trkpt>
      <trkpt lat="43.69243" lon="1.46739">
        <ele>225.068079</ele>
        <time>2022-03-26T14:55:17.070Z</time>
      </trkpt>
      <trkpt lat="43.6924" lon="1.46727">
        <ele>224.066302</ele>
        <time>2022-03-26T14:55:23.056Z</time>
      </trkpt>
      <trkpt lat="43.69231" lon="1.4672">
        <ele>222.905362</ele>
        <time>2022-03-26T14:55:27.066Z</time>
      </trkpt>
      <trkpt lat="43.69224" lon="1.46712">
        <ele>221.900551</ele>
        <time>2022-03-26T14:55:31.068Z</time>
      </trkpt>
      <trkpt lat="43.69225" lon="1.46698">
        <ele>220.824213</ele>
        <time>2022-03-26T14:55:36.062Z</time>
      </trkpt>
      <trkpt lat="43.69221" lon="1.46685">
        <ele>219.719671</ele>
        <time>2022-03-26T14:55:39.062Z</time>
      </trkpt>
      <trkpt lat="43.69224" lon="1.46672">
        <ele>218.581436</ele>
        <time>2022-03-26T14:55:46.046Z</time>
      </trkpt>
      <trkpt lat="43.69222" lon="1.46657">
        <ele>217.333573</ele>
        <time>2022-03-26T14:55:49.059Z</time>
      </trkpt>
      <trkpt lat="43.6922" lon="1.46644">
        <ele>216.295545</ele>
        <time>2022-03-26T14:55:53.062Z</time>
      </trkpt>
      <trkpt lat="43.69211" lon="1.46641">
        <ele>215.257522</ele>
        <time>2022-03-26T14:55:57.070Z</time>
      </trkpt>
      <trkpt lat="43.69201" lon="1.46643">
        <ele>214.164045</ele>
        <time>2022-03-26T14:56:00.086Z</time>
      </trkpt>
      <trkpt lat="43.69187" lon="1.46643">
        <ele>213.141493</ele>
        <time>2022-03-26T14:56:02.045Z</time>
      </trkpt>
      <trkpt lat="43.69178" lon="1.46643">
        <ele>212.73528</ele>
        <time>2022-03-26T14:56:03.078Z</time>
      </trkpt>
      <trkpt lat="43.69167" lon="1.46642">
        <ele>212.302912</ele>
        <time>2022-03-26T14:56:04.070Z</time>
      </trkpt>
      <trkpt lat="43.69158" lon="1.46642">
        <ele>211.913711</ele>
        <time>2022-03-26T14:56:05.065Z</time>
      </trkpt>
      <trkpt lat="43.69145" lon="1.46651">
        <ele>211.29734</ele>
        <time>2022-03-26T14:56:07.066Z</time>
      </trkpt>
      <trkpt lat="43.69143" lon="1.46674">
        <ele>210.57052</ele>
        <time>2022-03-26T14:56:09.065Z</time>
      </trkpt>
      <trkpt lat="43.69148" lon="1.46693">
        <ele>209.977898</ele>
        <time>2022-03-26T14:56:11.078Z</time>
      </trkpt>
      <trkpt lat="43.69153" lon="1.46706">
        <ele>209.515035</ele>
        <time>2022-03-26T14:56:13.061Z</time>
      </trkpt>
      <trkpt lat="43.69159" lon="1.46717">
        <ele>209.068848</ele>
        <time>2022-03-26T14:56:15.066Z</time>
      </trkpt>
      <trkpt lat="43.69161" lon="1.46732">
        <ele>208.607228</ele>
        <time>2022-03-26T14:56:17.066Z</time>
      </trkpt>
      <trkpt lat="43.69161" lon="1.46748">
        <ele>208.138753</ele>
        <time>2022-03-26T14:56:19.063Z</time>
      </trkpt>
      <trkpt lat="43.69162" lon="1.46763">
        <ele>207.655383</ele>
        <time>2022-03-26T14:56:21.066Z</time>
      </trkpt>
      <trkpt lat="43.69162" lon="1.46779">
        <ele>207.164496</ele>
        <time>2022-03-26T14:56:23.054Z</time>
      </trkpt>
      <trkpt lat="43.69161" lon="1.46795">
        <ele>206.674193</ele>
        <time>2022-03-26T14:56:25.075Z</time>
      </trkpt>
      <trkpt lat="43.6916" lon="1.46812">
        <ele>206.172264</ele>
        <time>2022-03-26T14:56:27.070Z</time>
      </trkpt>
      <trkpt lat="43.6916" lon="1.46828">
        <ele>205.922544</ele>
        <time>2022-03-26T14:56:29.062Z</time>
      </trkpt>
      <trkpt lat="43.69158" lon="1.46844">
        <ele>206.10606</ele>
        <time>2022-03-26T14:56:31.069Z</time>
      </trkpt>
      <trkpt lat="43.69155" lon="1.46859">
        <ele>206.288681</ele>
        <time>2022-03-26T14:56:33.067Z</time>
      </trkpt>
      <trkpt lat="43.6915" lon="1.46874">
        <ele>206.475765</ele>
        <time>2022-03-26T14:56:35.068Z</time>
      </trkpt>
      <trkpt lat="43.69144" lon="1.46889">
        <ele>206.669527</ele>
        <time>2022-03-26T14:56:37.055Z</time>
      </trkpt>
      <trkpt lat="43.69139" lon="1.46904">
        <ele>206.857076</ele>
        <time>2022-03-26T14:56:39.077Z</time>
      </trkpt>
      <trkpt lat="43.69134" lon="1.46918">
        <ele>207.03913</ele>
        <time>2022-03-26T14:56:41.068Z</time>
      </trkpt>
      <trkpt lat="43.6913" lon="1.46933">
        <ele>207.214751</ele>
        <time>2022-03-26T14:56:43.063Z</time>
      </trkpt>
      <trkpt lat="43.69128" lon="1.46948">
        <ele>207.397538</ele>
        <time>2022-03-26T14:56:45.062Z</time>
      </trkpt>
      <trkpt lat="43.69126" lon="1.46964">
        <ele>207.579487</ele>
        <time>2022-03-26T14:56:47.063Z</time>
      </trkpt>
      <trkpt lat="43.69125" lon="1.46981">
        <ele>207.771441</ele>
        <time>2022-03-26T14:56:49.068Z</time>
      </trkpt>
      <trkpt lat="43.69122" lon="1.46998">
        <ele>207.969837</ele>
        <time>2022-03-26T14:56:51.062Z</time>
      </trkpt>
      <trkpt lat="43.69119" lon="1.47015">
        <ele>208.170379</ele>
        <time>2022-03-26T14:56:53.059Z</time>
      </trkpt>
      <trkpt lat="43.69117" lon="1.47031">
        <ele>208.361427</ele>
        <time>2022-03-26T14:56:55.063Z</time>
      </trkpt>
      <trkpt lat="43.69115" lon="1.47047">
        <ele>208.55056</ele>
        <time>2022-03-26T14:56:57.058Z</time>
      </trkpt>
      <trkpt lat="43.69111" lon="1.47063">
        <ele>208.746155</ele>
        <time>2022-03-26T14:56:59.060Z</time>
      </trkpt>
      <trkpt lat="43.69106" lon="1.47077">
        <ele>208.951079</ele>
        <time>2022-03-26T14:57:01.066Z</time>
      </trkpt>
      <trkpt lat="43.69105" lon="1.47091">
        <ele>209.13317</ele>
        <time>2022-03-26T14:57:03.071Z</time>
      </trkpt>
      <trkpt lat="43.69109" lon="1.47103">
        <ele>209.310819</ele>
        <time>2022-03-26T14:57:07.070Z</time>
      </trkpt>
      <trkpt lat="43.69106" lon="1.47116">
        <ele>209.49406</ele>
        <time>2022-03-26T14:57:11.067Z</time>
      </trkpt>
      <trkpt lat="43.69102" lon="1.47133">
        <ele>209.730455</ele>
        <time>2022-03-26T14:57:14.065Z</time>
      </trkpt>
      <trkpt lat="43.69096" lon="1.47145">
        <ele>209.924382</ele>
        <time>2022-03-26T14:57:16.078Z</time>
      </trkpt>
      <trkpt lat="43.69091" lon="1.47158">
        <ele>210.123775</ele>
        <time>2022-03-26T14:57:18.067Z</time>
      </trkpt>
      <trkpt lat="43.69086" lon="1.47169">
        <ele>210.292662</ele>
        <time>2022-03-26T14:57:20.057Z</time>
      </trkpt>
      <trkpt lat="43.69079" lon="1.47181">
        <ele>210.494443</ele>
        <time>2022-03-26T14:57:23.072Z</time>
      </trkpt>
      <trkpt lat="43.69074" lon="1.47194">
        <ele>210.684069</ele>
        <time>2022-03-26T14:57:27.061Z</time>
      </trkpt>
      <trkpt lat="43.6907" lon="1.47204">
        <ele>210.852226</ele>
        <time>2022-03-26T14:57:32.081Z</time>
      </trkpt>
      <trkpt lat="43.69066" lon="1.4722">
        <ele>211.069909</ele>
        <time>2022-03-26T14:57:36.069Z</time>
      </trkpt>
      <trkpt lat="43.69062" lon="1.47235">
        <ele>211.282453</ele>
        <time>2022-03-26T14:57:38.067Z</time>
      </trkpt>
      <trkpt lat="43.6906" lon="1.47253">
        <ele>211.5185</ele>
        <time>2022-03-26T14:57:40.062Z</time>
      </trkpt>
      <trkpt lat="43.6906" lon="1.47269">
        <ele>211.734022</ele>
        <time>2022-03-26T14:57:42.065Z</time>
      </trkpt>
      <trkpt lat="43.69059" lon="1.47285">
        <ele>211.948221</ele>
        <time>2022-03-26T14:57:44.062Z</time>
      </trkpt>
      <trkpt lat="43.69059" lon="1.47301">
        <ele>212.114229</ele>
        <time>2022-03-26T14:57:46.063Z</time>
      </trkpt>
      <trkpt lat="43.69059" lon="1.47317">
        <ele>212.261818</ele>
        <time>2022-03-26T14:57:48.068Z</time>
      </trkpt>
      <trkpt lat="43.69059" lon="1.47333">
        <ele>212.410323</ele>
        <time>2022-03-26T14:57:50.065Z</time>
      </trkpt>
      <trkpt lat="43.6906" lon="1.47348">
        <ele>212.554839</ele>
        <time>2022-03-26T14:57:52.068Z</time>
      </trkpt>
      <trkpt lat="43.69061" lon="1.47363">
        <ele>212.694968</ele>
        <time>2022-03-26T14:57:54.060Z</time>
      </trkpt>
      <trkpt lat="43.69062" lon="1.47378">
        <ele>212.835231</ele>
        <time>2022-03-26T14:57:57.075Z</time>
      </trkpt>
      <trkpt lat="43.69064" lon="1.47392">
        <ele>212.974758</ele>
        <time>2022-03-26T14:58:00.061Z</time>
      </trkpt>
      <trkpt lat="43.69064" lon="1.47405">
        <ele>213.097009</ele>
        <time>2022-03-26T14:58:02.066Z</time>
      </trkpt>
      <trkpt lat="43.69068" lon="1.4742">
        <ele>213.245083</ele>
        <time>2022-03-26T14:58:05.063Z</time>
      </trkpt>
      <trkpt lat="43.69077" lon="1.47432">
        <ele>213.412071</ele>
        <time>2022-03-26T14:58:09.060Z</time>
      </trkpt>
      <trkpt lat="43.69083" lon="1.47445">
        <ele>213.55834</ele>
        <time>2022-03-26T14:58:12.064Z</time>
      </trkpt>
      <trkpt lat="43.69087" lon="1.4746">
        <ele>213.706842</ele>
        <time>2022-03-26T14:58:15.070Z</time>
      </trkpt>
      <trkpt lat="43.69087" lon="1.47478">
        <ele>213.878923</ele>
        <time>2022-03-26T14:58:18.068Z</time>
      </trkpt>
      <trkpt lat="43.69085" lon="1.47495">
        <ele>214.036622</ele>
        <time>2022-03-26T14:58:21.064Z</time>
      </trkpt>
      <trkpt lat="43.69089" lon="1.47512">
        <ele>214.201175</ele>
        <time>2022-03-26T14:58:24.071Z</time>
      </trkpt>
      <trkpt lat="43.69091" lon="1.47524">
        <ele>214.320489</ele>
        <time>2022-03-26T14:58:26.075Z</time>
      </trkpt>
      <trkpt lat="43.69088" lon="1.47539">
        <ele>214.645678</ele>
        <time>2022-03-26T14:58:29.073Z</time>
      </trkpt>
      <trkpt lat="43.69083" lon="1.4755">
        <ele>214.950288</ele>
        <time>2022-03-26T14:58:32.079Z</time>
      </trkpt>
      <trkpt lat="43.6908" lon="1.47564">
        <ele>215.277007</ele>
        <time>2022-03-26T14:58:34.070Z</time>
      </trkpt>
      <trkpt lat="43.69079" lon="1.47577">
        <ele>215.572099</ele>
        <time>2022-03-26T14:58:36.068Z</time>
      </trkpt>
      <trkpt lat="43.69078" lon="1.47595">
        <ele>215.982161</ele>
        <time>2022-03-26T14:58:39.068Z</time>
      </trkpt>
      <trkpt lat="43.6907" lon="1.47625">
        <ele>216.706005</ele>
        <time>2022-03-26T14:59:00.061Z</time>
      </trkpt>
      <trkpt lat="43.69064" lon="1.47648">
        <ele>217.283844</ele>
        <time>2022-03-26T14:59:22.066Z</time>
      </trkpt>
      <trkpt lat="43.69062" lon="1.47661">
        <ele>217.582088</ele>
        <time>2022-03-26T14:59:26.079Z</time>
      </trkpt>
      <trkpt lat="43.69063" lon="1.47674">
        <ele>217.874753</ele>
        <time>2022-03-26T14:59:29.066Z</time>
      </trkpt>
      <trkpt lat="43.69067" lon="1.47686">
        <ele>218.171332</ele>
        <time>2022-03-26T14:59:33.069Z</time>
      </trkpt>
      <trkpt lat="43.69071" lon="1.47702">
        <ele>218.552423</ele>
        <time>2022-03-26T14:59:36.063Z</time>
      </trkpt>
      <trkpt lat="43.69077" lon="1.47715">
        <ele>218.901143</ele>
        <time>2022-03-26T14:59:39.060Z</time>
      </trkpt>
      <trkpt lat="43.69084" lon="1.47729">
        <ele>219.295207</ele>
        <time>2022-03-26T14:59:42.059Z</time>
      </trkpt>
      <trkpt lat="43.69085" lon="1.47743">
        <ele>219.613777</ele>
        <time>2022-03-26T14:59:46.071Z</time>
      </trkpt>
      <trkpt lat="43.69082" lon="1.47759">
        <ele>219.973181</ele>
        <time>2022-03-26T14:59:50.055Z</time>
      </trkpt>
      <trkpt lat="43.6908" lon="1.47776">
        <ele>220.180389</ele>
        <time>2022-03-26T14:59:54.069Z</time>
      </trkpt>
      <trkpt lat="43.69081" lon="1.47793">
        <ele>220.367278</ele>
        <time>2022-03-26T14:59:57.057Z</time>
      </trkpt>
      <trkpt lat="43.69079" lon="1.47807">
        <ele>220.526186</ele>
        <time>2022-03-26T15:00:00.077Z</time>
      </trkpt>
      <trkpt lat="43.69074" lon="1.47819">
        <ele>220.684914</ele>
        <time>2022-03-26T15:00:03.071Z</time>
      </trkpt>
      <trkpt lat="43.6907" lon="1.47832">
        <ele>220.832183</ele>
        <time>2022-03-26T15:00:06.066Z</time>
      </trkpt>
      <trkpt lat="43.69066" lon="1.47844">
        <ele>220.987148</ele>
        <time>2022-03-26T15:00:09.061Z</time>
      </trkpt>
      <trkpt lat="43.69065" lon="1.47858">
        <ele>221.133134</ele>
        <time>2022-03-26T15:00:12.066Z</time>
      </trkpt>
      <trkpt lat="43.6906" lon="1.47873">
        <ele>221.320617</ele>
        <time>2022-03-26T15:00:15.065Z</time>
      </trkpt>
      <trkpt lat="43.69057" lon="1.47885">
        <ele>221.459259</ele>
        <time>2022-03-26T15:00:18.055Z</time>
      </trkpt>
      <trkpt lat="43.69048" lon="1.47914">
        <ele>221.80099</ele>
        <time>2022-03-26T15:00:21.067Z</time>
      </trkpt>
      <trkpt lat="43.69045" lon="1.4793">
        <ele>221.993385</ele>
        <time>2022-03-26T15:00:25.064Z</time>
      </trkpt>
      <trkpt lat="43.69051" lon="1.4794">
        <ele>222.137982</ele>
        <time>2022-03-26T15:00:34.068Z</time>
      </trkpt>
      <trkpt lat="43.69056" lon="1.47952">
        <ele>222.283453</ele>
        <time>2022-03-26T15:00:39.078Z</time>
      </trkpt>
      <trkpt lat="43.6905" lon="1.4797">
        <ele>222.506915</ele>
        <time>2022-03-26T15:00:58.068Z</time>
      </trkpt>
      <trkpt lat="43.69046" lon="1.47983">
        <ele>222.655196</ele>
        <time>2022-03-26T15:01:03.066Z</time>
      </trkpt>
      <trkpt lat="43.69043" lon="1.47995">
        <ele>222.816072</ele>
        <time>2022-03-26T15:01:10.060Z</time>
      </trkpt>
      <trkpt lat="43.69041" lon="1.48007">
        <ele>222.984667</ele>
        <time>2022-03-26T15:01:18.061Z</time>
      </trkpt>
      <trkpt lat="43.6904" lon="1.48021">
        <ele>223.171769</ele>
        <time>2022-03-26T15:01:20.061Z</time>
      </trkpt>
      <trkpt lat="43.69037" lon="1.48038">
        <ele>223.406698</ele>
        <time>2022-03-26T15:01:25.054Z</time>
      </trkpt>
      <trkpt lat="43.6903" lon="1.48047">
        <ele>223.58315</ele>
        <time>2022-03-26T15:01:29.071Z</time>
      </trkpt>
      <trkpt lat="43.69023" lon="1.48054">
        <ele>223.752648</ele>
        <time>2022-03-26T15:01:34.069Z</time>
      </trkpt>
      <trkpt lat="43.69032" lon="1.48046">
        <ele>223.955224</ele>
        <time>2022-03-26T15:01:45.068Z</time>
      </trkpt>
      <trkpt lat="43.69039" lon="1.48035">
        <ele>224.162222</ele>
        <time>2022-03-26T15:01:50.065Z</time>
      </trkpt>
      <trkpt lat="43.69048" lon="1.4802">
        <ele>224.412755</ele>
        <time>2022-03-26T15:01:53.058Z</time>
      </trkpt>
      <trkpt lat="43.69058" lon="1.48009">
        <ele>224.655816</ele>
        <time>2022-03-26T15:01:55.061Z</time>
      </trkpt>
      <trkpt lat="43.69069" lon="1.48002">
        <ele>224.874071</ele>
        <time>2022-03-26T15:01:57.049Z</time>
      </trkpt>
      <trkpt lat="43.69078" lon="1.47999">
        <ele>225.050248</ele>
        <time>2022-03-26T15:01:59.064Z</time>
      </trkpt>
      <trkpt lat="43.6909" lon="1.47994">
        <ele>225.283553</ele>
        <time>2022-03-26T15:02:02.050Z</time>
      </trkpt>
      <trkpt lat="43.69102" lon="1.47989">
        <ele>225.531589</ele>
        <time>2022-03-26T15:02:05.066Z</time>
      </trkpt>
      <trkpt lat="43.69113" lon="1.47985">
        <ele>225.733853</ele>
        <time>2022-03-26T15:02:07.055Z</time>
      </trkpt>
      <trkpt lat="43.69124" lon="1.47984">
        <ele>225.940848</ele>
        <time>2022-03-26T15:02:09.061Z</time>
      </trkpt>
      <trkpt lat="43.69134" lon="1.47994">
        <ele>226.253885</ele>
        <time>2022-03-26T15:02:12.066Z</time>
      </trkpt>
      <trkpt lat="43.69143" lon="1.48006">
        <ele>226.704916</ele>
        <time>2022-03-26T15:02:15.066Z</time>
      </trkpt>
      <trkpt lat="43.69152" lon="1.48013">
        <ele>227.082932</ele>
        <time>2022-03-26T15:02:18.069Z</time>
      </trkpt>
      <trkpt lat="43.69162" lon="1.48003">
        <ele>227.55847</ele>
        <time>2022-03-26T15:02:21.066Z</time>
      </trkpt>
      <trkpt lat="43.69172" lon="1.47989">
        <ele>228.071358</ele>
        <time>2022-03-26T15:02:23.063Z</time>
      </trkpt>
      <trkpt lat="43.69181" lon="1.47984">
        <ele>228.42929</ele>
        <time>2022-03-26T15:02:25.070Z</time>
      </trkpt>
      <trkpt lat="43.69192" lon="1.47989">
        <ele>228.877498</ele>
        <time>2022-03-26T15:02:28.061Z</time>
      </trkpt>
      <trkpt lat="43.69205" lon="1.47992">
        <ele>229.368452</ele>
        <time>2022-03-26T15:02:31.068Z</time>
      </trkpt>
      <trkpt lat="43.69217" lon="1.47996">
        <ele>229.835352</ele>
        <time>2022-03-26T15:02:34.064Z</time>
      </trkpt>
      <trkpt lat="43.69229" lon="1.48001">
        <ele>230.294758</ele>
        <time>2022-03-26T15:02:37.061Z</time>
      </trkpt>
      <trkpt lat="43.69239" lon="1.48002">
        <ele>230.646891</ele>
        <time>2022-03-26T15:02:39.064Z</time>
      </trkpt>
      <trkpt lat="43.69249" lon="1.47999">
        <ele>231.04189</ele>
        <time>2022-03-26T15:02:41.078Z</time>
      </trkpt>
      <trkpt lat="43.69261" lon="1.47993">
        <ele>231.49888</ele>
        <time>2022-03-26T15:02:43.075Z</time>
      </trkpt>
      <trkpt lat="43.69273" lon="1.47985">
        <ele>232.022293</ele>
        <time>2022-03-26T15:02:45.068Z</time>
      </trkpt>
      <trkpt lat="43.69282" lon="1.47972">
        <ele>232.496531</ele>
        <time>2022-03-26T15:02:47.073Z</time>
      </trkpt>
      <trkpt lat="43.69284" lon="1.47952">
        <ele>233.010593</ele>
        <time>2022-03-26T15:02:49.060Z</time>
      </trkpt>
      <trkpt lat="43.69283" lon="1.47931">
        <ele>233.538456</ele>
        <time>2022-03-26T15:02:51.063Z</time>
      </trkpt>
      <trkpt lat="43.69284" lon="1.47913">
        <ele>233.988797</ele>
        <time>2022-03-26T15:02:53.056Z</time>
      </trkpt>
      <trkpt lat="43.69285" lon="1.47898">
        <ele>234.376519</ele>
        <time>2022-03-26T15:02:55.067Z</time>
      </trkpt>
      <trkpt lat="43.6929" lon="1.47884">
        <ele>234.761584</ele>
        <time>2022-03-26T15:02:57.064Z</time>
      </trkpt>
      <trkpt lat="43.69296" lon="1.47872">
        <ele>235.11021</ele>
        <time>2022-03-26T15:02:59.066Z</time>
      </trkpt>
      <trkpt lat="43.69302" lon="1.47861">
        <ele>235.456948</ele>
        <time>2022-03-26T15:03:01.067Z</time>
      </trkpt>
      <trkpt lat="43.69308" lon="1.4785">
        <ele>235.814007</ele>
        <time>2022-03-26T15:03:03.064Z</time>
      </trkpt>
      <trkpt lat="43.69315" lon="1.47838">
        <ele>236.19359</ele>
        <time>2022-03-26T15:03:05.067Z</time>
      </trkpt>
      <trkpt lat="43.69321" lon="1.47826">
        <ele>236.556456</ele>
        <time>2022-03-26T15:03:07.068Z</time>
      </trkpt>
      <trkpt lat="43.69326" lon="1.47815">
        <ele>236.907609</ele>
        <time>2022-03-26T15:03:09.060Z</time>
      </trkpt>
      <trkpt lat="43.69332" lon="1.47804">
        <ele>237.242096</ele>
        <time>2022-03-26T15:03:11.067Z</time>
      </trkpt>
      <trkpt lat="43.69338" lon="1.47793">
        <ele>237.580598</ele>
        <time>2022-03-26T15:03:13.068Z</time>
      </trkpt>
      <trkpt lat="43.69346" lon="1.4778">
        <ele>238.015877</ele>
        <time>2022-03-26T15:03:16.064Z</time>
      </trkpt>
      <trkpt lat="43.69358" lon="1.47778">
        <ele>238.424335</ele>
        <time>2022-03-26T15:03:19.063Z</time>
      </trkpt>
      <trkpt lat="43.69368" lon="1.47777">
        <ele>238.76409</ele>
        <time>2022-03-26T15:03:21.075Z</time>
      </trkpt>
      <trkpt lat="43.69378" lon="1.47777">
        <ele>239.141634</ele>
        <time>2022-03-26T15:03:23.063Z</time>
      </trkpt>
      <trkpt lat="43.6939" lon="1.47777">
        <ele>239.578959</ele>
        <time>2022-03-26T15:03:25.074Z</time>
      </trkpt>
      <trkpt lat="43.69401" lon="1.47777">
        <ele>240.020053</ele>
        <time>2022-03-26T15:03:27.077Z</time>
      </trkpt>
      <trkpt lat="43.69413" lon="1.47776">
        <ele>240.468887</ele>
        <time>2022-03-26T15:03:29.065Z</time>
      </trkpt>
      <trkpt lat="43.69425" lon="1.47776">
        <ele>240.921422</ele>
        <time>2022-03-26T15:03:31.070Z</time>
      </trkpt>
      <trkpt lat="43.69437" lon="1.47775">
        <ele>241.365283</ele>
        <time>2022-03-26T15:03:33.060Z</time>
      </trkpt>
      <trkpt lat="43.69445" lon="1.47764">
        <ele>241.802547</ele>
        <time>2022-03-26T15:03:35.074Z</time>
      </trkpt>
      <trkpt lat="43.69452" lon="1.4775">
        <ele>242.272367</ele>
        <time>2022-03-26T15:03:37.073Z</time>
      </trkpt>
      <trkpt lat="43.69457" lon="1.47736">
        <ele>242.705602</ele>
        <time>2022-03-26T15:03:39.067Z</time>
      </trkpt>
      <trkpt lat="43.69463" lon="1.47722">
        <ele>243.14008</ele>
        <time>2022-03-26T15:03:41.068Z</time>
      </trkpt>
      <trkpt lat="43.69468" lon="1.47708">
        <ele>243.580857</ele>
        <time>2022-03-26T15:03:43.067Z</time>
      </trkpt>
      <trkpt lat="43.69475" lon="1.47695">
        <ele>244.002039</ele>
        <time>2022-03-26T15:03:45.073Z</time>
      </trkpt>
      <trkpt lat="43.69481" lon="1.47684">
        <ele>244.394174</ele>
        <time>2022-03-26T15:03:47.080Z</time>
      </trkpt>
      <trkpt lat="43.69483" lon="1.47671">
        <ele>244.768386</ele>
        <time>2022-03-26T15:03:49.067Z</time>
      </trkpt>
      <trkpt lat="43.69485" lon="1.47655">
        <ele>245.192485</ele>
        <time>2022-03-26T15:03:51.051Z</time>
      </trkpt>
      <trkpt lat="43.69488" lon="1.47641">
        <ele>245.60611</ele>
        <time>2022-03-26T15:03:53.074Z</time>
      </trkpt>
      <trkpt lat="43.6949" lon="1.47627">
        <ele>245.992406</ele>
        <time>2022-03-26T15:03:55.068Z</time>
      </trkpt>
      <trkpt lat="43.69491" lon="1.47614">
        <ele>246.382687</ele>
        <time>2022-03-26T15:03:57.061Z</time>
      </trkpt>
      <trkpt lat="43.69492" lon="1.476">
        <ele>246.793931</ele>
        <time>2022-03-26T15:03:59.064Z</time>
      </trkpt>
      <trkpt lat="43.69496" lon="1.47587">
        <ele>247.192857</ele>
        <time>2022-03-26T15:04:01.054Z</time>
      </trkpt>
      <trkpt lat="43.69501" lon="1.47573">
        <ele>247.61922</ele>
        <time>2022-03-26T15:04:03.071Z</time>
      </trkpt>
      <trkpt lat="43.69508" lon="1.47559">
        <ele>248.111723</ele>
        <time>2022-03-26T15:04:05.053Z</time>
      </trkpt>
      <trkpt lat="43.69516" lon="1.47546">
        <ele>248.599175</ele>
        <time>2022-03-26T15:04:07.063Z</time>
      </trkpt>
      <trkpt lat="43.69523" lon="1.47535">
        <ele>249.036898</ele>
        <time>2022-03-26T15:04:09.056Z</time>
      </trkpt>
      <trkpt lat="43.69529" lon="1.47525">
        <ele>249.416574</ele>
        <time>2022-03-26T15:04:11.064Z</time>
      </trkpt>
      <trkpt lat="43.69537" lon="1.47513">
        <ele>249.869428</ele>
        <time>2022-03-26T15:04:14.060Z</time>
      </trkpt>
      <trkpt lat="43.69548" lon="1.47515">
        <ele>250.318197</ele>
        <time>2022-03-26T15:04:18.057Z</time>
      </trkpt>
      <trkpt lat="43.69559" lon="1.47526">
        <ele>250.849789</ele>
        <time>2022-03-26T15:04:21.058Z</time>
      </trkpt>
      <trkpt lat="43.69567" lon="1.47535">
        <ele>251.254225</ele>
        <time>2022-03-26T15:04:23.066Z</time>
      </trkpt>
      <trkpt lat="43.69575" lon="1.47545">
        <ele>251.684811</ele>
        <time>2022-03-26T15:04:25.067Z</time>
      </trkpt>
      <trkpt lat="43.69579" lon="1.47559">
        <ele>252.111236</ele>
        <time>2022-03-26T15:04:27.085Z</time>
      </trkpt>
      <trkpt lat="43.6958" lon="1.47575">
        <ele>252.563645</ele>
        <time>2022-03-26T15:04:29.091Z</time>
      </trkpt>
      <trkpt lat="43.69582" lon="1.47591">
        <ele>253.015262</ele>
        <time>2022-03-26T15:04:31.056Z</time>
      </trkpt>
      <trkpt lat="43.69585" lon="1.47606">
        <ele>253.264952</ele>
        <time>2022-03-26T15:04:33.058Z</time>
      </trkpt>
      <trkpt lat="43.69591" lon="1.47621">
        <ele>253.528382</ele>
        <time>2022-03-26T15:04:35.078Z</time>
      </trkpt>
      <trkpt lat="43.69597" lon="1.47635">
        <ele>253.790107</ele>
        <time>2022-03-26T15:04:37.055Z</time>
      </trkpt>
      <trkpt lat="43.69603" lon="1.47649">
        <ele>254.052562</ele>
        <time>2022-03-26T15:04:39.067Z</time>
      </trkpt>
      <trkpt lat="43.69609" lon="1.47664">
        <ele>254.309848</ele>
        <time>2022-03-26T15:04:41.073Z</time>
      </trkpt>
      <trkpt lat="43.69615" lon="1.47678">
        <ele>254.564996</ele>
        <time>2022-03-26T15:04:43.098Z</time>
      </trkpt>
      <trkpt lat="43.69621" lon="1.47692">
        <ele>254.815299</ele>
        <time>2022-03-26T15:04:45.060Z</time>
      </trkpt>
      <trkpt lat="43.69626" lon="1.47706">
        <ele>255.066756</ele>
        <time>2022-03-26T15:04:47.048Z</time>
      </trkpt>
      <trkpt lat="43.69631" lon="1.47719">
        <ele>255.301525</ele>
        <time>2022-03-26T15:04:49.053Z</time>
      </trkpt>
      <trkpt lat="43.69636" lon="1.47731">
        <ele>255.510743</ele>
        <time>2022-03-26T15:04:51.065Z</time>
      </trkpt>
      <trkpt lat="43.6964" lon="1.47745">
        <ele>255.754653</ele>
        <time>2022-03-26T15:04:54.068Z</time>
      </trkpt>
      <trkpt lat="43.69643" lon="1.47759">
        <ele>255.976521</ele>
        <time>2022-03-26T15:04:58.064Z</time>
      </trkpt>
      <trkpt lat="43.69651" lon="1.47769">
        <ele>256.220518</ele>
        <time>2022-03-26T15:05:01.065Z</time>
      </trkpt>
      <trkpt lat="43.69659" lon="1.47777">
        <ele>256.426083</ele>
        <time>2022-03-26T15:05:03.050Z</time>
      </trkpt>
      <trkpt lat="43.69668" lon="1.47785">
        <ele>256.654839</ele>
        <time>2022-03-26T15:05:05.056Z</time>
      </trkpt>
      <trkpt lat="43.69676" lon="1.47795">
        <ele>256.897305</ele>
        <time>2022-03-26T15:05:07.067Z</time>
      </trkpt>
      <trkpt lat="43.69684" lon="1.47804">
        <ele>256.839802</ele>
        <time>2022-03-26T15:05:09.067Z</time>
      </trkpt>
      <trkpt lat="43.69692" lon="1.47813">
        <ele>256.788576</ele>
        <time>2022-03-26T15:05:11.066Z</time>
      </trkpt>
      <trkpt lat="43.69701" lon="1.4782">
        <ele>256.731635</ele>
        <time>2022-03-26T15:05:15.068Z</time>
      </trkpt>
      <trkpt lat="43.6971" lon="1.47827">
        <ele>256.673761</ele>
        <time>2022-03-26T15:05:20.059Z</time>
      </trkpt>
      <trkpt lat="43.69718" lon="1.47833">
        <ele>256.623878</ele>
        <time>2022-03-26T15:05:24.069Z</time>
      </trkpt>
      <trkpt lat="43.69727" lon="1.47838">
        <ele>256.572514</ele>
        <time>2022-03-26T15:05:28.082Z</time>
      </trkpt>
      <trkpt lat="43.69737" lon="1.47839">
        <ele>256.515789</ele>
        <time>2022-03-26T15:05:33.074Z</time>
      </trkpt>
      <trkpt lat="43.69746" lon="1.47835">
        <ele>256.465134</ele>
        <time>2022-03-26T15:05:39.063Z</time>
      </trkpt>
      <trkpt lat="43.69756" lon="1.47836">
        <ele>256.414433</ele>
        <time>2022-03-26T15:05:43.058Z</time>
      </trkpt>
      <trkpt lat="43.69766" lon="1.47836">
        <ele>256.357309</ele>
        <time>2022-03-26T15:05:46.072Z</time>
      </trkpt>
      <trkpt lat="43.69777" lon="1.47833">
        <ele>256.294047</ele>
        <time>2022-03-26T15:05:49.062Z</time>
      </trkpt>
      <trkpt lat="43.6979" lon="1.47827">
        <ele>256.2241</ele>
        <time>2022-03-26T15:05:52.066Z</time>
      </trkpt>
      <trkpt lat="43.69803" lon="1.47822">
        <ele>256.149647</ele>
        <time>2022-03-26T15:05:55.082Z</time>
      </trkpt>
      <trkpt lat="43.69812" lon="1.47819">
        <ele>256.099301</ele>
        <time>2022-03-26T15:05:57.071Z</time>
      </trkpt>
      <trkpt lat="43.69825" lon="1.47815">
        <ele>256.028286</ele>
        <time>2022-03-26T15:06:00.077Z</time>
      </trkpt>
      <trkpt lat="43.69833" lon="1.47811">
        <ele>255.978032</ele>
        <time>2022-03-26T15:06:02.065Z</time>
      </trkpt>
      <trkpt lat="43.69843" lon="1.47806">
        <ele>255.920848</ele>
        <time>2022-03-26T15:06:04.055Z</time>
      </trkpt>
      <trkpt lat="43.69853" lon="1.47802">
        <ele>255.501159</ele>
        <time>2022-03-26T15:06:06.061Z</time>
      </trkpt>
      <trkpt lat="43.69867" lon="1.478">
        <ele>254.957416</ele>
        <time>2022-03-26T15:06:09.072Z</time>
      </trkpt>
      <trkpt lat="43.69876" lon="1.47795">
        <ele>254.548185</ele>
        <time>2022-03-26T15:06:11.072Z</time>
      </trkpt>
      <trkpt lat="43.69885" lon="1.47787">
        <ele>254.101892</ele>
        <time>2022-03-26T15:06:13.064Z</time>
      </trkpt>
      <trkpt lat="43.69894" lon="1.47776">
        <ele>253.615853</ele>
        <time>2022-03-26T15:06:15.065Z</time>
      </trkpt>
      <trkpt lat="43.69904" lon="1.47764">
        <ele>253.103851</ele>
        <time>2022-03-26T15:06:17.052Z</time>
      </trkpt>
      <trkpt lat="43.69913" lon="1.47751">
        <ele>252.562972</ele>
        <time>2022-03-26T15:06:19.062Z</time>
      </trkpt>
      <trkpt lat="43.69923" lon="1.47737">
        <ele>252.000825</ele>
        <time>2022-03-26T15:06:21.048Z</time>
      </trkpt>
      <trkpt lat="43.69933" lon="1.47722">
        <ele>251.385201</ele>
        <time>2022-03-26T15:06:23.071Z</time>
      </trkpt>
      <trkpt lat="43.69945" lon="1.47706">
        <ele>250.699043</ele>
        <time>2022-03-26T15:06:25.073Z</time>
      </trkpt>
      <trkpt lat="43.69951" lon="1.47697">
        <ele>250.3281</ele>
        <time>2022-03-26T15:06:26.069Z</time>
      </trkpt>
      <trkpt lat="43.69958" lon="1.47687">
        <ele>249.941494</ele>
        <time>2022-03-26T15:06:27.056Z</time>
      </trkpt>
      <trkpt lat="43.69965" lon="1.47678">
        <ele>249.53115</ele>
        <time>2022-03-26T15:06:28.067Z</time>
      </trkpt>
      <trkpt lat="43.69973" lon="1.47668">
        <ele>249.110849</ele>
        <time>2022-03-26T15:06:29.061Z</time>
      </trkpt>
      <trkpt lat="43.69981" lon="1.47658">
        <ele>248.682569</ele>
        <time>2022-03-26T15:06:30.063Z</time>
      </trkpt>
      <trkpt lat="43.69989" lon="1.47648">
        <ele>248.329771</ele>
        <time>2022-03-26T15:06:31.064Z</time>
      </trkpt>
      <trkpt lat="43.69997" lon="1.47639">
        <ele>248.003854</ele>
        <time>2022-03-26T15:06:32.064Z</time>
      </trkpt>
      <trkpt lat="43.70006" lon="1.47632">
        <ele>247.686229</ele>
        <time>2022-03-26T15:06:33.067Z</time>
      </trkpt>
      <trkpt lat="43.70015" lon="1.47626">
        <ele>247.370301</ele>
        <time>2022-03-26T15:06:34.065Z</time>
      </trkpt>
      <trkpt lat="43.70025" lon="1.47622">
        <ele>247.057858</ele>
        <time>2022-03-26T15:06:35.080Z</time>
      </trkpt>
      <trkpt lat="43.70035" lon="1.47619">
        <ele>246.733835</ele>
        <time>2022-03-26T15:06:36.068Z</time>
      </trkpt>
      <trkpt lat="43.70046" lon="1.47618">
        <ele>246.414949</ele>
        <time>2022-03-26T15:06:37.064Z</time>
      </trkpt>
      <trkpt lat="43.70056" lon="1.47618">
        <ele>246.100087</ele>
        <time>2022-03-26T15:06:38.070Z</time>
      </trkpt>
      <trkpt lat="43.70066" lon="1.4762">
        <ele>245.792666</ele>
        <time>2022-03-26T15:06:39.062Z</time>
      </trkpt>
      <trkpt lat="43.70076" lon="1.47622">
        <ele>245.482792</ele>
        <time>2022-03-26T15:06:40.065Z</time>
      </trkpt>
      <trkpt lat="43.70085" lon="1.47624">
        <ele>245.17862</ele>
        <time>2022-03-26T15:06:41.064Z</time>
      </trkpt>
      <trkpt lat="43.70095" lon="1.47627">
        <ele>244.886995</ele>
        <time>2022-03-26T15:06:42.067Z</time>
      </trkpt>
      <trkpt lat="43.70103" lon="1.47629">
        <ele>244.609687</ele>
        <time>2022-03-26T15:06:43.057Z</time>
      </trkpt>
      <trkpt lat="43.70121" lon="1.47632">
        <ele>244.049773</ele>
        <time>2022-03-26T15:06:45.069Z</time>
      </trkpt>
      <trkpt lat="43.70131" lon="1.47632">
        <ele>243.762666</ele>
        <time>2022-03-26T15:06:46.066Z</time>
      </trkpt>
      <trkpt lat="43.7014" lon="1.47631">
        <ele>243.479779</ele>
        <time>2022-03-26T15:06:47.067Z</time>
      </trkpt>
      <trkpt lat="43.70157" lon="1.47623">
        <ele>242.959382</ele>
        <time>2022-03-26T15:06:49.067Z</time>
      </trkpt>
      <trkpt lat="43.70166" lon="1.47617">
        <ele>242.758256</ele>
        <time>2022-03-26T15:06:50.059Z</time>
      </trkpt>
      <trkpt lat="43.70174" lon="1.47611">
        <ele>242.56402</ele>
        <time>2022-03-26T15:06:51.060Z</time>
      </trkpt>
      <trkpt lat="43.70183" lon="1.47606">
        <ele>242.368312</ele>
        <time>2022-03-26T15:06:52.066Z</time>
      </trkpt>
      <trkpt lat="43.70192" lon="1.47603">
        <ele>242.180438</ele>
        <time>2022-03-26T15:06:53.061Z</time>
      </trkpt>
      <trkpt lat="43.70209" lon="1.47606">
        <ele>241.83734</ele>
        <time>2022-03-26T15:06:55.064Z</time>
      </trkpt>
      <trkpt lat="43.70222" lon="1.47616">
        <ele>241.521215</ele>
        <time>2022-03-26T15:06:57.063Z</time>
      </trkpt>
      <trkpt lat="43.70232" lon="1.47626">
        <ele>241.259938</ele>
        <time>2022-03-26T15:06:59.066Z</time>
      </trkpt>
      <trkpt lat="43.70241" lon="1.47633">
        <ele>241.045237</ele>
        <time>2022-03-26T15:07:01.050Z</time>
      </trkpt>
      <trkpt lat="43.70247" lon="1.47643">
        <ele>240.856112</ele>
        <time>2022-03-26T15:07:05.073Z</time>
      </trkpt>
      <trkpt lat="43.70257" lon="1.47649">
        <ele>240.62489</ele>
        <time>2022-03-26T15:09:59.058Z</time>
      </trkpt>
      <trkpt lat="43.70265" lon="1.47655">
        <ele>240.435717</ele>
        <time>2022-03-26T15:10:03.061Z</time>
      </trkpt>
      <trkpt lat="43.70276" lon="1.47662">
        <ele>240.187714</ele>
        <time>2022-03-26T15:10:07.054Z</time>
      </trkpt>
      <trkpt lat="43.70287" lon="1.4767">
        <ele>239.94088</ele>
        <time>2022-03-26T15:10:11.061Z</time>
      </trkpt>
      <trkpt lat="43.70296" lon="1.47676">
        <ele>239.727937</ele>
        <time>2022-03-26T15:10:14.055Z</time>
      </trkpt>
      <trkpt lat="43.70306" lon="1.47683">
        <ele>239.488073</ele>
        <time>2022-03-26T15:10:17.054Z</time>
      </trkpt>
      <trkpt lat="43.70319" lon="1.47691">
        <ele>239.130829</ele>
        <time>2022-03-26T15:10:20.055Z</time>
      </trkpt>
      <trkpt lat="43.7033" lon="1.47697">
        <ele>238.739946</ele>
        <time>2022-03-26T15:10:22.053Z</time>
      </trkpt>
      <trkpt lat="43.70343" lon="1.47702">
        <ele>238.299535</ele>
        <time>2022-03-26T15:10:24.056Z</time>
      </trkpt>
      <trkpt lat="43.70357" lon="1.47708">
        <ele>237.857869</ele>
        <time>2022-03-26T15:10:26.059Z</time>
      </trkpt>
      <trkpt lat="43.70367" lon="1.47713">
        <ele>237.496607</ele>
        <time>2022-03-26T15:10:28.059Z</time>
      </trkpt>
      <trkpt lat="43.70378" lon="1.47719">
        <ele>237.135823</ele>
        <time>2022-03-26T15:10:30.057Z</time>
      </trkpt>
      <trkpt lat="43.7039" lon="1.47725">
        <ele>236.721149</ele>
        <time>2022-03-26T15:10:32.048Z</time>
      </trkpt>
      <trkpt lat="43.70403" lon="1.4773">
        <ele>236.284294</ele>
        <time>2022-03-26T15:10:34.050Z</time>
      </trkpt>
      <trkpt lat="43.70417" lon="1.47735">
        <ele>235.83773</ele>
        <time>2022-03-26T15:10:36.057Z</time>
      </trkpt>
      <trkpt lat="43.7043" lon="1.47742">
        <ele>235.388254</ele>
        <time>2022-03-26T15:10:38.050Z</time>
      </trkpt>
      <trkpt lat="43.70443" lon="1.4775">
        <ele>234.924877</ele>
        <time>2022-03-26T15:10:40.056Z</time>
      </trkpt>
      <trkpt lat="43.70457" lon="1.47756">
        <ele>234.464966</ele>
        <time>2022-03-26T15:10:42.054Z</time>
      </trkpt>
      <trkpt lat="43.7047" lon="1.47763">
        <ele>234.009582</ele>
        <time>2022-03-26T15:10:44.059Z</time>
      </trkpt>
      <trkpt lat="43.70484" lon="1.47767">
        <ele>233.573194</ele>
        <time>2022-03-26T15:10:46.064Z</time>
      </trkpt>
      <trkpt lat="43.70498" lon="1.4777">
        <ele>233.294342</ele>
        <time>2022-03-26T15:10:48.058Z</time>
      </trkpt>
      <trkpt lat="43.70512" lon="1.47772">
        <ele>233.007486</ele>
        <time>2022-03-26T15:10:50.053Z</time>
      </trkpt>
      <trkpt lat="43.70526" lon="1.47774">
        <ele>232.721879</ele>
        <time>2022-03-26T15:10:52.057Z</time>
      </trkpt>
      <trkpt lat="43.7054" lon="1.47775">
        <ele>232.443095</ele>
        <time>2022-03-26T15:10:54.055Z</time>
      </trkpt>
      <trkpt lat="43.70553" lon="1.47777">
        <ele>232.167539</ele>
        <time>2022-03-26T15:10:56.046Z</time>
      </trkpt>
      <trkpt lat="43.70568" lon="1.47778">
        <ele>231.877646</ele>
        <time>2022-03-26T15:10:58.063Z</time>
      </trkpt>
      <trkpt lat="43.70581" lon="1.47781">
        <ele>231.608794</ele>
        <time>2022-03-26T15:11:00.058Z</time>
      </trkpt>
      <trkpt lat="43.70593" lon="1.47782">
        <ele>231.373825</ele>
        <time>2022-03-26T15:11:02.070Z</time>
      </trkpt>
      <trkpt lat="43.70602" lon="1.47783">
        <ele>231.188124</ele>
        <time>2022-03-26T15:11:04.074Z</time>
      </trkpt>
      <trkpt lat="43.70614" lon="1.47784">
        <ele>230.936674</ele>
        <time>2022-03-26T15:11:07.054Z</time>
      </trkpt>
      <trkpt lat="43.70623" lon="1.47786">
        <ele>230.755568</ele>
        <time>2022-03-26T15:11:09.056Z</time>
      </trkpt>
      <trkpt lat="43.70633" lon="1.47787">
        <ele>230.548867</ele>
        <time>2022-03-26T15:11:11.060Z</time>
      </trkpt>
      <trkpt lat="43.70645" lon="1.4779">
        <ele>230.316389</ele>
        <time>2022-03-26T15:11:13.054Z</time>
      </trkpt>
      <trkpt lat="43.70657" lon="1.47792">
        <ele>230.07212</ele>
        <time>2022-03-26T15:11:15.066Z</time>
      </trkpt>
      <trkpt lat="43.70669" lon="1.47794">
        <ele>229.939517</ele>
        <time>2022-03-26T15:11:17.058Z</time>
      </trkpt>
      <trkpt lat="43.70681" lon="1.47797">
        <ele>229.893548</ele>
        <time>2022-03-26T15:11:19.080Z</time>
      </trkpt>
      <trkpt lat="43.70692" lon="1.47801">
        <ele>229.851478</ele>
        <time>2022-03-26T15:11:21.084Z</time>
      </trkpt>
      <trkpt lat="43.70704" lon="1.47805">
        <ele>229.805123</ele>
        <time>2022-03-26T15:11:23.050Z</time>
      </trkpt>
      <trkpt lat="43.70716" lon="1.4781">
        <ele>229.757747</ele>
        <time>2022-03-26T15:11:25.061Z</time>
      </trkpt>
      <trkpt lat="43.70727" lon="1.47815">
        <ele>229.71168</ele>
        <time>2022-03-26T15:11:27.064Z</time>
      </trkpt>
      <trkpt lat="43.70739" lon="1.47821">
        <ele>229.666168</ele>
        <time>2022-03-26T15:11:29.058Z</time>
      </trkpt>
      <trkpt lat="43.70749" lon="1.47827">
        <ele>229.622409</ele>
        <time>2022-03-26T15:11:31.058Z</time>
      </trkpt>
      <trkpt lat="43.7076" lon="1.47833">
        <ele>229.579715</ele>
        <time>2022-03-26T15:11:33.092Z</time>
      </trkpt>
      <trkpt lat="43.7077" lon="1.47839">
        <ele>229.538923</ele>
        <time>2022-03-26T15:11:35.058Z</time>
      </trkpt>
      <trkpt lat="43.7078" lon="1.47844">
        <ele>229.498132</ele>
        <time>2022-03-26T15:11:37.052Z</time>
      </trkpt>
      <trkpt lat="43.7079" lon="1.4785">
        <ele>229.454261</ele>
        <time>2022-03-26T15:11:39.063Z</time>
      </trkpt>
      <trkpt lat="43.70802" lon="1.47855">
        <ele>229.407538</ele>
        <time>2022-03-26T15:11:41.061Z</time>
      </trkpt>
      <trkpt lat="43.70814" lon="1.4786">
        <ele>229.35914</ele>
        <time>2022-03-26T15:11:43.056Z</time>
      </trkpt>
      <trkpt lat="43.70827" lon="1.47862">
        <ele>229.309619</ele>
        <time>2022-03-26T15:11:45.049Z</time>
      </trkpt>
      <trkpt lat="43.7084" lon="1.4786">
        <ele>229.198443</ele>
        <time>2022-03-26T15:11:47.057Z</time>
      </trkpt>
      <trkpt lat="43.70853" lon="1.47848">
        <ele>228.986813</ele>
        <time>2022-03-26T15:11:49.058Z</time>
      </trkpt>
      <trkpt lat="43.70865" lon="1.47834">
        <ele>228.777455</ele>
        <time>2022-03-26T15:11:51.056Z</time>
      </trkpt>
      <trkpt lat="43.70876" lon="1.47822">
        <ele>228.579009</ele>
        <time>2022-03-26T15:11:53.057Z</time>
      </trkpt>
      <trkpt lat="43.70888" lon="1.47813">
        <ele>228.392172</ele>
        <time>2022-03-26T15:11:55.066Z</time>
      </trkpt>
      <trkpt lat="43.70902" lon="1.47806">
        <ele>228.190051</ele>
        <time>2022-03-26T15:11:57.045Z</time>
      </trkpt>
      <trkpt lat="43.70918" lon="1.478">
        <ele>227.96091</ele>
        <time>2022-03-26T15:11:59.064Z</time>
      </trkpt>
      <trkpt lat="43.70935" lon="1.47799">
        <ele>227.738917</ele>
        <time>2022-03-26T15:12:01.058Z</time>
      </trkpt>
      <trkpt lat="43.70951" lon="1.47802">
        <ele>227.519705</ele>
        <time>2022-03-26T15:12:03.058Z</time>
      </trkpt>
      <trkpt lat="43.70967" lon="1.47805">
        <ele>227.30119</ele>
        <time>2022-03-26T15:12:05.065Z</time>
      </trkpt>
      <trkpt lat="43.70982" lon="1.4781">
        <ele>227.084637</ele>
        <time>2022-03-26T15:12:07.061Z</time>
      </trkpt>
      <trkpt lat="43.70996" lon="1.4782">
        <ele>226.868922</ele>
        <time>2022-03-26T15:12:09.067Z</time>
      </trkpt>
      <trkpt lat="43.71009" lon="1.4783">
        <ele>226.705544</ele>
        <time>2022-03-26T15:12:11.053Z</time>
      </trkpt>
      <trkpt lat="43.7102" lon="1.47837">
        <ele>226.57981</ele>
        <time>2022-03-26T15:12:13.060Z</time>
      </trkpt>
      <trkpt lat="43.7103" lon="1.47839">
        <ele>226.479181</ele>
        <time>2022-03-26T15:12:15.059Z</time>
      </trkpt>
      <trkpt lat="43.71038" lon="1.47843">
        <ele>226.385025</ele>
        <time>2022-03-26T15:12:17.062Z</time>
      </trkpt>
      <trkpt lat="43.71045" lon="1.47851">
        <ele>226.287527</ele>
        <time>2022-03-26T15:12:19.058Z</time>
      </trkpt>
      <trkpt lat="43.71053" lon="1.4786">
        <ele>226.184838</ele>
        <time>2022-03-26T15:12:21.051Z</time>
      </trkpt>
      <trkpt lat="43.71061" lon="1.47868">
        <ele>226.075129</ele>
        <time>2022-03-26T15:12:23.060Z</time>
      </trkpt>
      <trkpt lat="43.71069" lon="1.47878">
        <ele>225.963014</ele>
        <time>2022-03-26T15:12:25.065Z</time>
      </trkpt>
      <trkpt lat="43.712" lon="1.47906">
        <ele>223.991608</ele>
        <time>2022-03-26T15:12:54.056Z</time>
      </trkpt>
      <trkpt lat="43.7121" lon="1.47895">
        <ele>223.756723</ele>
        <time>2022-03-26T15:12:57.063Z</time>
      </trkpt>
      <trkpt lat="43.71219" lon="1.47882">
        <ele>223.530995</ele>
        <time>2022-03-26T15:13:00.057Z</time>
      </trkpt>
      <trkpt lat="43.71222" lon="1.4787">
        <ele>223.35749</ele>
        <time>2022-03-26T15:13:02.050Z</time>
      </trkpt>
      <trkpt lat="43.71226" lon="1.47856">
        <ele>223.158657</ele>
        <time>2022-03-26T15:13:04.097Z</time>
      </trkpt>
      <trkpt lat="43.71229" lon="1.47841">
        <ele>222.954048</ele>
        <time>2022-03-26T15:13:06.091Z</time>
      </trkpt>
      <trkpt lat="43.71234" lon="1.47825">
        <ele>222.733091</ele>
        <time>2022-03-26T15:13:08.061Z</time>
      </trkpt>
      <trkpt lat="43.71239" lon="1.4781">
        <ele>222.516085</ele>
        <time>2022-03-26T15:13:10.055Z</time>
      </trkpt>
      <trkpt lat="43.71243" lon="1.47794">
        <ele>222.290657</ele>
        <time>2022-03-26T15:13:12.053Z</time>
      </trkpt>
      <trkpt lat="43.71249" lon="1.47777">
        <ele>222.050362</ele>
        <time>2022-03-26T15:13:14.052Z</time>
      </trkpt>
      <trkpt lat="43.71256" lon="1.47761">
        <ele>221.805683</ele>
        <time>2022-03-26T15:13:16.060Z</time>
      </trkpt>
      <trkpt lat="43.71263" lon="1.47746">
        <ele>221.600214</ele>
        <time>2022-03-26T15:13:18.057Z</time>
      </trkpt>
      <trkpt lat="43.71271" lon="1.47732">
        <ele>221.428778</ele>
        <time>2022-03-26T15:13:20.057Z</time>
      </trkpt>
      <trkpt lat="43.71276" lon="1.47718">
        <ele>221.2788</ele>
        <time>2022-03-26T15:13:22.048Z</time>
      </trkpt>
      <trkpt lat="43.71283" lon="1.47706">
        <ele>221.128537</ele>
        <time>2022-03-26T15:13:24.057Z</time>
      </trkpt>
      <trkpt lat="43.71288" lon="1.47695">
        <ele>221.001939</ele>
        <time>2022-03-26T15:13:26.052Z</time>
      </trkpt>
      <trkpt lat="43.71304" lon="1.47692">
        <ele>220.788537</ele>
        <time>2022-03-26T15:14:47.085Z</time>
      </trkpt>
      <trkpt lat="43.71321" lon="1.47707">
        <ele>220.511348</ele>
        <time>2022-03-26T15:15:59.078Z</time>
      </trkpt>
      <trkpt lat="43.71331" lon="1.47714">
        <ele>220.358877</ele>
        <time>2022-03-26T15:16:02.078Z</time>
      </trkpt>
      <trkpt lat="43.71341" lon="1.47716">
        <ele>220.225122</ele>
        <time>2022-03-26T15:16:06.067Z</time>
      </trkpt>
      <trkpt lat="43.71352" lon="1.47725">
        <ele>220.055109</ele>
        <time>2022-03-26T15:16:10.073Z</time>
      </trkpt>
      <trkpt lat="43.71363" lon="1.47736">
        <ele>219.873539</ele>
        <time>2022-03-26T15:16:13.079Z</time>
      </trkpt>
      <trkpt lat="43.7137" lon="1.47744">
        <ele>219.75044</ele>
        <time>2022-03-26T15:16:15.071Z</time>
      </trkpt>
      <trkpt lat="43.71378" lon="1.47751">
        <ele>219.625178</ele>
        <time>2022-03-26T15:16:17.082Z</time>
      </trkpt>
      <trkpt lat="43.71386" lon="1.47759">
        <ele>219.493801</ele>
        <time>2022-03-26T15:16:19.075Z</time>
      </trkpt>
      <trkpt lat="43.71394" lon="1.47767">
        <ele>219.36234</ele>
        <time>2022-03-26T15:16:21.077Z</time>
      </trkpt>
      <trkpt lat="43.71401" lon="1.47774">
        <ele>219.331908</ele>
        <time>2022-03-26T15:16:23.059Z</time>
      </trkpt>
      <trkpt lat="43.7141" lon="1.47781">
        <ele>219.553881</ele>
        <time>2022-03-26T15:16:25.065Z</time>
      </trkpt>
      <trkpt lat="43.71419" lon="1.47789">
        <ele>219.79361</ele>
        <time>2022-03-26T15:16:27.062Z</time>
      </trkpt>
      <trkpt lat="43.71428" lon="1.47797">
        <ele>220.028717</ele>
        <time>2022-03-26T15:16:29.073Z</time>
      </trkpt>
      <trkpt lat="43.71436" lon="1.47805">
        <ele>220.258321</ele>
        <time>2022-03-26T15:16:31.066Z</time>
      </trkpt>
      <trkpt lat="43.71445" lon="1.47813">
        <ele>220.487863</ele>
        <time>2022-03-26T15:16:33.065Z</time>
      </trkpt>
      <trkpt lat="43.71453" lon="1.47821">
        <ele>220.717404</ele>
        <time>2022-03-26T15:16:35.069Z</time>
      </trkpt>
      <trkpt lat="43.71462" lon="1.4783">
        <ele>220.954283</ele>
        <time>2022-03-26T15:16:38.072Z</time>
      </trkpt>
      <trkpt lat="43.71471" lon="1.47838">
        <ele>221.19028</ele>
        <time>2022-03-26T15:16:42.073Z</time>
      </trkpt>
      <trkpt lat="43.71482" lon="1.47848">
        <ele>221.485949</ele>
        <time>2022-03-26T15:16:45.085Z</time>
      </trkpt>
      <trkpt lat="43.71614" lon="1.47804">
        <ele>223.55766</ele>
        <time>2022-03-26T15:17:29.065Z</time>
      </trkpt>
      <trkpt lat="43.71622" lon="1.47791">
        <ele>223.589376</ele>
        <time>2022-03-26T15:17:31.068Z</time>
      </trkpt>
      <trkpt lat="43.71629" lon="1.47779">
        <ele>223.619651</ele>
        <time>2022-03-26T15:17:33.064Z</time>
      </trkpt>
      <trkpt lat="43.71637" lon="1.47769">
        <ele>223.648882</ele>
        <time>2022-03-26T15:17:35.075Z</time>
      </trkpt>
      <trkpt lat="43.71644" lon="1.47757">
        <ele>223.679456</ele>
        <time>2022-03-26T15:17:37.074Z</time>
      </trkpt>
      <trkpt lat="43.71651" lon="1.47745">
        <ele>223.708914</ele>
        <time>2022-03-26T15:17:39.069Z</time>
      </trkpt>
      <trkpt lat="43.71659" lon="1.47733">
        <ele>223.740398</ele>
        <time>2022-03-26T15:17:41.059Z</time>
      </trkpt>
      <trkpt lat="43.71667" lon="1.47722">
        <ele>223.771556</ele>
        <time>2022-03-26T15:17:43.062Z</time>
      </trkpt>
      <trkpt lat="43.71673" lon="1.4771">
        <ele>223.581466</ele>
        <time>2022-03-26T15:17:45.063Z</time>
      </trkpt>
      <trkpt lat="43.7168" lon="1.477">
        <ele>223.356131</ele>
        <time>2022-03-26T15:17:47.068Z</time>
      </trkpt>
      <trkpt lat="43.71687" lon="1.47692">
        <ele>223.139398</ele>
        <time>2022-03-26T15:17:49.067Z</time>
      </trkpt>
      <trkpt lat="43.71694" lon="1.47682">
        <ele>222.903352</ele>
        <time>2022-03-26T15:17:51.076Z</time>
      </trkpt>
      <trkpt lat="43.71701" lon="1.47671">
        <ele>222.663184</ele>
        <time>2022-03-26T15:17:53.075Z</time>
      </trkpt>
      <trkpt lat="43.71708" lon="1.47661">
        <ele>222.417902</ele>
        <time>2022-03-26T15:17:55.071Z</time>
      </trkpt>
      <trkpt lat="43.71715" lon="1.47651">
        <ele>222.18867</ele>
        <time>2022-03-26T15:17:57.074Z</time>
      </trkpt>
      <trkpt lat="43.71722" lon="1.47641">
        <ele>221.966628</ele>
        <time>2022-03-26T15:17:59.077Z</time>
      </trkpt>
      <trkpt lat="43.71729" lon="1.47632">
        <ele>221.740128</ele>
        <time>2022-03-26T15:18:01.067Z</time>
      </trkpt>
      <trkpt lat="43.71736" lon="1.4762">
        <ele>221.475</ele>
        <time>2022-03-26T15:18:03.069Z</time>
      </trkpt>
      <trkpt lat="43.71744" lon="1.47607">
        <ele>221.188873</ele>
        <time>2022-03-26T15:18:05.074Z</time>
      </trkpt>
      <trkpt lat="43.71752" lon="1.47595">
        <ele>220.92401</ele>
        <time>2022-03-26T15:18:07.062Z</time>
      </trkpt>
      <trkpt lat="43.7176" lon="1.47583">
        <ele>220.656102</ele>
        <time>2022-03-26T15:18:09.069Z</time>
      </trkpt>
      <trkpt lat="43.71767" lon="1.47571">
        <ele>220.403807</ele>
        <time>2022-03-26T15:18:11.071Z</time>
      </trkpt>
      <trkpt lat="43.71774" lon="1.4756">
        <ele>220.146437</ele>
        <time>2022-03-26T15:18:13.065Z</time>
      </trkpt>
      <trkpt lat="43.71781" lon="1.47548">
        <ele>219.898186</ele>
        <time>2022-03-26T15:18:15.078Z</time>
      </trkpt>
      <trkpt lat="43.71788" lon="1.47536">
        <ele>219.640364</ele>
        <time>2022-03-26T15:18:17.075Z</time>
      </trkpt>
      <trkpt lat="43.71795" lon="1.47524">
        <ele>218.807696</ele>
        <time>2022-03-26T15:18:19.071Z</time>
      </trkpt>
      <trkpt lat="43.71803" lon="1.47513">
        <ele>217.930755</ele>
        <time>2022-03-26T15:18:21.075Z</time>
      </trkpt>
      <trkpt lat="43.7181" lon="1.47501">
        <ele>217.08657</ele>
        <time>2022-03-26T15:18:23.075Z</time>
      </trkpt>
      <trkpt lat="43.71815" lon="1.47487">
        <ele>216.208061</ele>
        <time>2022-03-26T15:18:26.077Z</time>
      </trkpt>
      <trkpt lat="43.71819" lon="1.47476">
        <ele>215.504551</ele>
        <time>2022-03-26T15:18:30.039Z</time>
      </trkpt>
      <trkpt lat="43.71814" lon="1.47451">
        <ele>214.039336</ele>
        <time>2022-03-26T15:19:10.078Z</time>
      </trkpt>
      <trkpt lat="43.71807" lon="1.47442">
        <ele>213.293104</ele>
        <time>2022-03-26T15:19:13.058Z</time>
      </trkpt>
      <trkpt lat="43.71804" lon="1.47429">
        <ele>212.515544</ele>
        <time>2022-03-26T15:19:16.060Z</time>
      </trkpt>
      <trkpt lat="43.71795" lon="1.47424">
        <ele>211.750276</ele>
        <time>2022-03-26T15:19:19.056Z</time>
      </trkpt>
      <trkpt lat="43.71783" lon="1.47425">
        <ele>210.866598</ele>
        <time>2022-03-26T15:19:22.049Z</time>
      </trkpt>
      <trkpt lat="43.71768" lon="1.47433">
        <ele>209.594328</ele>
        <time>2022-03-26T15:19:44.065Z</time>
      </trkpt>
      <trkpt lat="43.71762" lon="1.47424">
        <ele>208.891632</ele>
        <time>2022-03-26T15:19:52.057Z</time>
      </trkpt>
      <trkpt lat="43.71766" lon="1.47412">
        <ele>208.119707</ele>
        <time>2022-03-26T15:19:59.056Z</time>
      </trkpt>
      <trkpt lat="43.71773" lon="1.47401">
        <ele>207.345592</ele>
        <time>2022-03-26T15:20:03.056Z</time>
      </trkpt>
      <trkpt lat="43.7178" lon="1.4739">
        <ele>206.512407</ele>
        <time>2022-03-26T15:20:07.057Z</time>
      </trkpt>
      <trkpt lat="43.71789" lon="1.47383">
        <ele>205.71751</ele>
        <time>2022-03-26T15:20:11.054Z</time>
      </trkpt>
      <trkpt lat="43.71797" lon="1.47375">
        <ele>205.621663</ele>
        <time>2022-03-26T15:20:15.052Z</time>
      </trkpt>
      <trkpt lat="43.71804" lon="1.47367">
        <ele>205.530944</ele>
        <time>2022-03-26T15:20:18.054Z</time>
      </trkpt>
      <trkpt lat="43.71821" lon="1.47349">
        <ele>205.326562</ele>
        <time>2022-03-26T15:20:56.060Z</time>
      </trkpt>
      <trkpt lat="43.71831" lon="1.47343">
        <ele>205.224709</ele>
        <time>2022-03-26T15:21:00.050Z</time>
      </trkpt>
      <trkpt lat="43.71848" lon="1.47321">
        <ele>205.001695</ele>
        <time>2022-03-26T15:21:57.053Z</time>
      </trkpt>
      <trkpt lat="43.71856" lon="1.4731">
        <ele>204.893487</ele>
        <time>2022-03-26T15:22:00.059Z</time>
      </trkpt>
      <trkpt lat="43.71863" lon="1.47302">
        <ele>204.798308</ele>
        <time>2022-03-26T15:22:03.062Z</time>
      </trkpt>
      <trkpt lat="43.71873" lon="1.47294">
        <ele>204.693315</ele>
        <time>2022-03-26T15:22:07.057Z</time>
      </trkpt>
      <trkpt lat="43.71881" lon="1.47287">
        <ele>204.598567</ele>
        <time>2022-03-26T15:22:10.057Z</time>
      </trkpt>
      <trkpt lat="43.71889" lon="1.4728">
        <ele>204.511046</ele>
        <time>2022-03-26T15:22:13.058Z</time>
      </trkpt>
      <trkpt lat="43.71896" lon="1.47272">
        <ele>204.416733</ele>
        <time>2022-03-26T15:22:17.053Z</time>
      </trkpt>
      <trkpt lat="43.71902" lon="1.47263">
        <ele>204.327989</ele>
        <time>2022-03-26T15:22:21.064Z</time>
      </trkpt>
      <trkpt lat="43.71911" lon="1.47255">
        <ele>204.228199</ele>
        <time>2022-03-26T15:22:26.057Z</time>
      </trkpt>
      <trkpt lat="43.7192" lon="1.47246">
        <ele>204.123493</ele>
        <time>2022-03-26T15:22:30.057Z</time>
      </trkpt>
      <trkpt lat="43.71926" lon="1.47233">
        <ele>204.018165</ele>
        <time>2022-03-26T15:22:34.056Z</time>
      </trkpt>
      <trkpt lat="43.71935" lon="1.47212">
        <ele>203.787286</ele>
        <time>2022-03-26T15:23:15.060Z</time>
      </trkpt>
      <trkpt lat="43.71941" lon="1.47201">
        <ele>203.652746</ele>
        <time>2022-03-26T15:23:18.061Z</time>
      </trkpt>
      <trkpt lat="43.71947" lon="1.4719">
        <ele>203.521929</ele>
        <time>2022-03-26T15:23:21.055Z</time>
      </trkpt>
      <trkpt lat="43.71955" lon="1.47178">
        <ele>203.356795</ele>
        <time>2022-03-26T15:23:24.051Z</time>
      </trkpt>
      <trkpt lat="43.71966" lon="1.47167">
        <ele>203.173179</ele>
        <time>2022-03-26T15:23:27.053Z</time>
      </trkpt>
      <trkpt lat="43.71975" lon="1.47155">
        <ele>203.010063</ele>
        <time>2022-03-26T15:23:30.060Z</time>
      </trkpt>
      <trkpt lat="43.71984" lon="1.47146">
        <ele>202.849135</ele>
        <time>2022-03-26T15:23:33.055Z</time>
      </trkpt>
      <trkpt lat="43.71993" lon="1.47135">
        <ele>202.697292</ele>
        <time>2022-03-26T15:23:36.053Z</time>
      </trkpt>
      <trkpt lat="43.72" lon="1.47126">
        <ele>202.555149</ele>
        <time>2022-03-26T15:23:39.066Z</time>
      </trkpt>
      <trkpt lat="43.72009" lon="1.47119">
        <ele>202.427434</ele>
        <time>2022-03-26T15:23:42.055Z</time>
      </trkpt>
      <trkpt lat="43.72027" lon="1.47105">
        <ele>202.133819</ele>
        <time>2022-03-26T15:25:19.061Z</time>
      </trkpt>
      <trkpt lat="43.72035" lon="1.47095">
        <ele>202.00031</ele>
        <time>2022-03-26T15:25:22.052Z</time>
      </trkpt>
      <trkpt lat="43.72045" lon="1.47081">
        <ele>201.809114</ele>
        <time>2022-03-26T15:25:25.055Z</time>
      </trkpt>
      <trkpt lat="43.72053" lon="1.47072">
        <ele>201.665481</ele>
        <time>2022-03-26T15:25:27.066Z</time>
      </trkpt>
      <trkpt lat="43.72061" lon="1.47062">
        <ele>201.538667</ele>
        <time>2022-03-26T15:25:29.063Z</time>
      </trkpt>
      <trkpt lat="43.72069" lon="1.47053">
        <ele>201.541346</ele>
        <time>2022-03-26T15:25:31.048Z</time>
      </trkpt>
      <trkpt lat="43.72079" lon="1.47044">
        <ele>201.544311</ele>
        <time>2022-03-26T15:25:34.060Z</time>
      </trkpt>
      <trkpt lat="43.72084" lon="1.47034">
        <ele>201.546647</ele>
        <time>2022-03-26T15:25:38.057Z</time>
      </trkpt>
      <trkpt lat="43.72095" lon="1.47022">
        <ele>201.550172</ele>
        <time>2022-03-26T15:25:41.054Z</time>
      </trkpt>
      <trkpt lat="43.72104" lon="1.47015">
        <ele>201.552793</ele>
        <time>2022-03-26T15:25:43.055Z</time>
      </trkpt>
      <trkpt lat="43.72111" lon="1.47009">
        <ele>201.555084</ele>
        <time>2022-03-26T15:25:45.060Z</time>
      </trkpt>
      <trkpt lat="43.7212" lon="1.47002">
        <ele>201.557547</ele>
        <time>2022-03-26T15:25:47.049Z</time>
      </trkpt>
      <trkpt lat="43.72129" lon="1.46994">
        <ele>201.560371</ele>
        <time>2022-03-26T15:25:49.054Z</time>
      </trkpt>
      <trkpt lat="43.72138" lon="1.46987">
        <ele>201.563088</ele>
        <time>2022-03-26T15:25:51.054Z</time>
      </trkpt>
      <trkpt lat="43.72147" lon="1.4698">
        <ele>201.565585</ele>
        <time>2022-03-26T15:25:53.066Z</time>
      </trkpt>
      <trkpt lat="43.72157" lon="1.46969">
        <ele>201.568837</ele>
        <time>2022-03-26T15:25:56.067Z</time>
      </trkpt>
      <trkpt lat="43.72167" lon="1.4696">
        <ele>201.571966</ele>
        <time>2022-03-26T15:25:59.047Z</time>
      </trkpt>
      <trkpt lat="43.72178" lon="1.46949">
        <ele>201.575438</ele>
        <time>2022-03-26T15:26:02.050Z</time>
      </trkpt>
      <trkpt lat="43.72186" lon="1.46939">
        <ele>201.578165</ele>
        <time>2022-03-26T15:26:04.054Z</time>
      </trkpt>
      <trkpt lat="43.72196" lon="1.4693">
        <ele>201.581183</ele>
        <time>2022-03-26T15:26:06.052Z</time>
      </trkpt>
      <trkpt lat="43.72206" lon="1.46923">
        <ele>201.584094</ele>
        <time>2022-03-26T15:26:08.054Z</time>
      </trkpt>
      <trkpt lat="43.72217" lon="1.46918">
        <ele>201.438377</ele>
        <time>2022-03-26T15:26:10.059Z</time>
      </trkpt>
      <trkpt lat="43.72226" lon="1.4691">
        <ele>201.282939</ele>
        <time>2022-03-26T15:26:12.057Z</time>
      </trkpt>
      <trkpt lat="43.72236" lon="1.46904">
        <ele>201.124329</ele>
        <time>2022-03-26T15:26:14.059Z</time>
      </trkpt>
      <trkpt lat="43.72245" lon="1.46897">
        <ele>200.98018</ele>
        <time>2022-03-26T15:26:16.055Z</time>
      </trkpt>
      <trkpt lat="43.72255" lon="1.4689">
        <ele>200.831921</ele>
        <time>2022-03-26T15:26:18.054Z</time>
      </trkpt>
      <trkpt lat="43.72262" lon="1.46882">
        <ele>200.695667</ele>
        <time>2022-03-26T15:26:20.055Z</time>
      </trkpt>
      <trkpt lat="43.7227" lon="1.46875">
        <ele>200.566676</ele>
        <time>2022-03-26T15:26:22.053Z</time>
      </trkpt>
      <trkpt lat="43.7228" lon="1.46863">
        <ele>200.381495</ele>
        <time>2022-03-26T15:26:25.055Z</time>
      </trkpt>
      <trkpt lat="43.72287" lon="1.46855">
        <ele>200.243664</ele>
        <time>2022-03-26T15:26:27.054Z</time>
      </trkpt>
      <trkpt lat="43.72295" lon="1.46847">
        <ele>200.104282</ele>
        <time>2022-03-26T15:26:29.050Z</time>
      </trkpt>
      <trkpt lat="43.72303" lon="1.46841">
        <ele>199.976031</ele>
        <time>2022-03-26T15:26:32.047Z</time>
      </trkpt>
      <trkpt lat="43.72313" lon="1.46836">
        <ele>199.828159</ele>
        <time>2022-03-26T15:26:35.055Z</time>
      </trkpt>
      <trkpt lat="43.72327" lon="1.4683">
        <ele>199.630309</ele>
        <time>2022-03-26T15:26:38.055Z</time>
      </trkpt>
      <trkpt lat="43.72336" lon="1.46824">
        <ele>199.479391</ele>
        <time>2022-03-26T15:26:40.055Z</time>
      </trkpt>
      <trkpt lat="43.72346" lon="1.46818">
        <ele>199.336203</ele>
        <time>2022-03-26T15:26:42.055Z</time>
      </trkpt>
      <trkpt lat="43.72355" lon="1.46814">
        <ele>199.191921</ele>
        <time>2022-03-26T15:26:44.048Z</time>
      </trkpt>
      <trkpt lat="43.72364" lon="1.4681">
        <ele>199.058745</ele>
        <time>2022-03-26T15:26:46.052Z</time>
      </trkpt>
      <trkpt lat="43.72373" lon="1.46806">
        <ele>199.051782</ele>
        <time>2022-03-26T15:26:48.054Z</time>
      </trkpt>
      <trkpt lat="43.72382" lon="1.46802">
        <ele>199.060575</ele>
        <time>2022-03-26T15:26:50.059Z</time>
      </trkpt>
      <trkpt lat="43.72391" lon="1.46797">
        <ele>199.06937</ele>
        <time>2022-03-26T15:26:52.059Z</time>
      </trkpt>
      <trkpt lat="43.72399" lon="1.4679">
        <ele>199.078653</ele>
        <time>2022-03-26T15:26:54.052Z</time>
      </trkpt>
      <trkpt lat="43.72406" lon="1.46781">
        <ele>199.087614</ele>
        <time>2022-03-26T15:26:57.059Z</time>
      </trkpt>
      <trkpt lat="43.72417" lon="1.46766">
        <ele>199.101339</ele>
        <time>2022-03-26T15:27:15.068Z</time>
      </trkpt>
      <trkpt lat="43.72405" lon="1.46776">
        <ele>199.114071</ele>
        <time>2022-03-26T15:27:37.055Z</time>
      </trkpt>
      <trkpt lat="43.72393" lon="1.46758">
        <ele>199.129883</ele>
        <time>2022-03-26T15:27:58.042Z</time>
      </trkpt>
      <trkpt lat="43.72398" lon="1.46745">
        <ele>199.139708</ele>
        <time>2022-03-26T15:28:03.054Z</time>
      </trkpt>
      <trkpt lat="43.72396" lon="1.46728">
        <ele>199.150792</ele>
        <time>2022-03-26T15:28:08.066Z</time>
      </trkpt>
      <trkpt lat="43.72386" lon="1.46723">
        <ele>199.161185</ele>
        <time>2022-03-26T15:28:12.057Z</time>
      </trkpt>
      <trkpt lat="43.72376" lon="1.4672">
        <ele>199.170506</ele>
        <time>2022-03-26T15:28:15.049Z</time>
      </trkpt>
      <trkpt lat="43.72365" lon="1.46715">
        <ele>199.181017</ele>
        <time>2022-03-26T15:28:18.051Z</time>
      </trkpt>
      <trkpt lat="43.72354" lon="1.46711">
        <ele>199.191709</ele>
        <time>2022-03-26T15:28:21.048Z</time>
      </trkpt>
      <trkpt lat="43.72343" lon="1.46705">
        <ele>199.202665</ele>
        <time>2022-03-26T15:28:24.065Z</time>
      </trkpt>
      <trkpt lat="43.72333" lon="1.46696">
        <ele>199.423428</ele>
        <time>2022-03-26T15:28:27.055Z</time>
      </trkpt>
      <trkpt lat="43.72323" lon="1.46686">
        <ele>200.164911</ele>
        <time>2022-03-26T15:28:30.055Z</time>
      </trkpt>
      <trkpt lat="43.72314" lon="1.46678">
        <ele>200.835977</ele>
        <time>2022-03-26T15:28:33.053Z</time>
      </trkpt>
      <trkpt lat="43.72306" lon="1.4667">
        <ele>201.49709</ele>
        <time>2022-03-26T15:28:36.066Z</time>
      </trkpt>
      <trkpt lat="43.72297" lon="1.46662">
        <ele>202.168971</ele>
        <time>2022-03-26T15:28:39.060Z</time>
      </trkpt>
      <trkpt lat="43.72287" lon="1.46655">
        <ele>202.873541</ele>
        <time>2022-03-26T15:28:42.055Z</time>
      </trkpt>
      <trkpt lat="43.72276" lon="1.46647">
        <ele>203.633087</ele>
        <time>2022-03-26T15:28:45.052Z</time>
      </trkpt>
      <trkpt lat="43.72264" lon="1.4664">
        <ele>204.472985</ele>
        <time>2022-03-26T15:28:48.065Z</time>
      </trkpt>
      <trkpt lat="43.72253" lon="1.46632">
        <ele>205.253674</ele>
        <time>2022-03-26T15:28:51.054Z</time>
      </trkpt>
      <trkpt lat="43.72242" lon="1.46627">
        <ele>205.990301</ele>
        <time>2022-03-26T15:28:54.064Z</time>
      </trkpt>
      <trkpt lat="43.7223" lon="1.46622">
        <ele>206.779744</ele>
        <time>2022-03-26T15:28:57.058Z</time>
      </trkpt>
      <trkpt lat="43.72218" lon="1.46618">
        <ele>207.593728</ele>
        <time>2022-03-26T15:29:00.054Z</time>
      </trkpt>
      <trkpt lat="43.72206" lon="1.46613">
        <ele>208.369919</ele>
        <time>2022-03-26T15:29:03.059Z</time>
      </trkpt>
      <trkpt lat="43.72195" lon="1.4661">
        <ele>209.108523</ele>
        <time>2022-03-26T15:29:06.047Z</time>
      </trkpt>
      <trkpt lat="43.72184" lon="1.46607">
        <ele>209.82336</ele>
        <time>2022-03-26T15:29:09.053Z</time>
      </trkpt>
      <trkpt lat="43.72174" lon="1.46602">
        <ele>210.489449</ele>
        <time>2022-03-26T15:29:12.055Z</time>
      </trkpt>
      <trkpt lat="43.72173" lon="1.4659">
        <ele>210.624181</ele>
        <time>2022-03-26T15:29:15.058Z</time>
      </trkpt>
      <trkpt lat="43.72174" lon="1.46577">
        <ele>210.614341</ele>
        <time>2022-03-26T15:29:17.060Z</time>
      </trkpt>
      <trkpt lat="43.72178" lon="1.46563">
        <ele>210.60244</ele>
        <time>2022-03-26T15:29:19.050Z</time>
      </trkpt>
      <trkpt lat="43.72183" lon="1.4655">
        <ele>210.590802</ele>
        <time>2022-03-26T15:29:21.050Z</time>
      </trkpt>
      <trkpt lat="43.7219" lon="1.46537">
        <ele>210.578522</ele>
        <time>2022-03-26T15:29:23.058Z</time>
      </trkpt>
      <trkpt lat="43.72196" lon="1.46523">
        <ele>210.56617</ele>
        <time>2022-03-26T15:29:25.065Z</time>
      </trkpt>
      <trkpt lat="43.72202" lon="1.46511">
        <ele>210.554089</ele>
        <time>2022-03-26T15:29:27.056Z</time>
      </trkpt>
      <trkpt lat="43.72209" lon="1.46497">
        <ele>210.541059</ele>
        <time>2022-03-26T15:29:29.055Z</time>
      </trkpt>
      <trkpt lat="43.72215" lon="1.46483">
        <ele>210.528838</ele>
        <time>2022-03-26T15:29:31.055Z</time>
      </trkpt>
      <trkpt lat="43.72227" lon="1.4648">
        <ele>210.515648</ele>
        <time>2022-03-26T15:29:34.055Z</time>
      </trkpt>
      <trkpt lat="43.72236" lon="1.46487">
        <ele>210.505287</ele>
        <time>2022-03-26T15:29:36.056Z</time>
      </trkpt>
      <trkpt lat="43.72245" lon="1.46496">
        <ele>210.492644</ele>
        <time>2022-03-26T15:29:38.051Z</time>
      </trkpt>
      <trkpt lat="43.72255" lon="1.46505">
        <ele>210.480534</ele>
        <time>2022-03-26T15:29:40.063Z</time>
      </trkpt>
      <trkpt lat="43.72264" lon="1.46509">
        <ele>210.469671</ele>
        <time>2022-03-26T15:29:42.052Z</time>
      </trkpt>
      <trkpt lat="43.72273" lon="1.46519">
        <ele>210.457284</ele>
        <time>2022-03-26T15:29:45.055Z</time>
      </trkpt>
      <trkpt lat="43.7228" lon="1.46528">
        <ele>210.446888</ele>
        <time>2022-03-26T15:29:47.052Z</time>
      </trkpt>
      <trkpt lat="43.72291" lon="1.46536">
        <ele>210.088686</ele>
        <time>2022-03-26T15:29:49.056Z</time>
      </trkpt>
      <trkpt lat="43.72303" lon="1.46545">
        <ele>208.984706</ele>
        <time>2022-03-26T15:29:51.051Z</time>
      </trkpt>
      <trkpt lat="43.72315" lon="1.46555">
        <ele>207.793134</ele>
        <time>2022-03-26T15:29:53.056Z</time>
      </trkpt>
      <trkpt lat="43.72327" lon="1.46569">
        <ele>206.496126</ele>
        <time>2022-03-26T15:29:55.056Z</time>
      </trkpt>
      <trkpt lat="43.72336" lon="1.46575">
        <ele>205.662296</ele>
        <time>2022-03-26T15:29:57.059Z</time>
      </trkpt>
      <trkpt lat="43.72347" lon="1.46575">
        <ele>204.757261</ele>
        <time>2022-03-26T15:30:01.063Z</time>
      </trkpt>
      <trkpt lat="43.72355" lon="1.46562">
        <ele>203.773834</ele>
        <time>2022-03-26T15:30:05.051Z</time>
      </trkpt>
      <trkpt lat="43.72358" lon="1.46548">
        <ele>202.915906</ele>
        <time>2022-03-26T15:30:07.056Z</time>
      </trkpt>
      <trkpt lat="43.72361" lon="1.46536">
        <ele>202.169596</ele>
        <time>2022-03-26T15:30:09.051Z</time>
      </trkpt>
      <trkpt lat="43.72365" lon="1.46525">
        <ele>201.420052</ele>
        <time>2022-03-26T15:30:12.050Z</time>
      </trkpt>
      <trkpt lat="43.72364" lon="1.46512">
        <ele>200.651283</ele>
        <time>2022-03-26T15:30:15.052Z</time>
      </trkpt>
      <trkpt lat="43.72365" lon="1.46499">
        <ele>199.866154</ele>
        <time>2022-03-26T15:30:18.060Z</time>
      </trkpt>
      <trkpt lat="43.72363" lon="1.46486">
        <ele>199.099523</ele>
        <time>2022-03-26T15:30:21.055Z</time>
      </trkpt>
      <trkpt lat="43.72363" lon="1.46472">
        <ele>198.237475</ele>
        <time>2022-03-26T15:30:25.056Z</time>
      </trkpt>
      <trkpt lat="43.72363" lon="1.46454">
        <ele>197.20184</ele>
        <time>2022-03-26T15:30:28.049Z</time>
      </trkpt>
      <trkpt lat="43.72359" lon="1.4644">
        <ele>196.267989</ele>
        <time>2022-03-26T15:30:32.060Z</time>
      </trkpt>
      <trkpt lat="43.72357" lon="1.46425">
        <ele>195.660421</ele>
        <time>2022-03-26T15:30:35.051Z</time>
      </trkpt>
      <trkpt lat="43.72351" lon="1.46412">
        <ele>195.707545</ele>
        <time>2022-03-26T15:30:38.055Z</time>
      </trkpt>
      <trkpt lat="43.72344" lon="1.46398">
        <ele>195.756513</ele>
        <time>2022-03-26T15:30:42.056Z</time>
      </trkpt>
      <trkpt lat="43.72338" lon="1.46384">
        <ele>195.804275</ele>
        <time>2022-03-26T15:30:45.055Z</time>
      </trkpt>
      <trkpt lat="43.72338" lon="1.46371">
        <ele>195.841303</ele>
        <time>2022-03-26T15:30:47.052Z</time>
      </trkpt>
      <trkpt lat="43.72336" lon="1.46354">
        <ele>195.8921</ele>
        <time>2022-03-26T15:30:50.056Z</time>
      </trkpt>
      <trkpt lat="43.72334" lon="1.46338">
        <ele>195.939814</ele>
        <time>2022-03-26T15:30:53.051Z</time>
      </trkpt>
      <trkpt lat="43.72332" lon="1.46324">
        <ele>195.982774</ele>
        <time>2022-03-26T15:30:56.057Z</time>
      </trkpt>
      <trkpt lat="43.7233" lon="1.46311">
        <ele>196.019496</ele>
        <time>2022-03-26T15:30:58.067Z</time>
      </trkpt>
      <trkpt lat="43.72327" lon="1.46297">
        <ele>196.064517</ele>
        <time>2022-03-26T15:31:00.064Z</time>
      </trkpt>
      <trkpt lat="43.7232" lon="1.46284">
        <ele>196.10993</ele>
        <time>2022-03-26T15:31:03.046Z</time>
      </trkpt>
      <trkpt lat="43.72315" lon="1.46274">
        <ele>196.147786</ele>
        <time>2022-03-26T15:31:05.056Z</time>
      </trkpt>
      <trkpt lat="43.72312" lon="1.46261">
        <ele>196.187058</ele>
        <time>2022-03-26T15:31:07.058Z</time>
      </trkpt>
      <trkpt lat="43.72311" lon="1.46248">
        <ele>196.225026</ele>
        <time>2022-03-26T15:31:09.051Z</time>
      </trkpt>
      <trkpt lat="43.72314" lon="1.46231">
        <ele>196.27475</ele>
        <time>2022-03-26T15:31:12.059Z</time>
      </trkpt>
      <trkpt lat="43.72316" lon="1.46219">
        <ele>196.311654</ele>
        <time>2022-03-26T15:31:15.054Z</time>
      </trkpt>
      <trkpt lat="43.72318" lon="1.46205">
        <ele>196.353138</ele>
        <time>2022-03-26T15:31:19.054Z</time>
      </trkpt>
      <trkpt lat="43.7231" lon="1.46172">
        <ele>197.170169</ele>
        <time>2022-03-26T15:32:00.056Z</time>
      </trkpt>
      <trkpt lat="43.72314" lon="1.46161">
        <ele>197.558022</ele>
        <time>2022-03-26T15:32:05.067Z</time>
      </trkpt>
      <trkpt lat="43.72314" lon="1.46146">
        <ele>198.010525</ele>
        <time>2022-03-26T15:32:09.061Z</time>
      </trkpt>
      <trkpt lat="43.72309" lon="1.46132">
        <ele>198.468055</ele>
        <time>2022-03-26T15:32:11.058Z</time>
      </trkpt>
      <trkpt lat="43.72307" lon="1.46119">
        <ele>198.837328</ele>
        <time>2022-03-26T15:32:14.056Z</time>
      </trkpt>
      <trkpt lat="43.72305" lon="1.46103">
        <ele>199.346154</ele>
        <time>2022-03-26T15:32:17.050Z</time>
      </trkpt>
      <trkpt lat="43.72305" lon="1.46087">
        <ele>199.795458</ele>
        <time>2022-03-26T15:32:20.069Z</time>
      </trkpt>
      <trkpt lat="43.72306" lon="1.46071">
        <ele>200.299063</ele>
        <time>2022-03-26T15:32:24.059Z</time>
      </trkpt>
      <trkpt lat="43.72303" lon="1.46053">
        <ele>200.82165</ele>
        <time>2022-03-26T15:32:27.078Z</time>
      </trkpt>
      <trkpt lat="43.72301" lon="1.46039">
        <ele>201.266108</ele>
        <time>2022-03-26T15:32:29.060Z</time>
      </trkpt>
      <trkpt lat="43.72297" lon="1.46024">
        <ele>201.716611</ele>
        <time>2022-03-26T15:32:31.061Z</time>
      </trkpt>
      <trkpt lat="43.72294" lon="1.46007">
        <ele>202.241376</ele>
        <time>2022-03-26T15:32:34.058Z</time>
      </trkpt>
      <trkpt lat="43.72291" lon="1.45991">
        <ele>202.742711</ele>
        <time>2022-03-26T15:32:38.053Z</time>
      </trkpt>
      <trkpt lat="43.72286" lon="1.45977">
        <ele>203.218922</ele>
        <time>2022-03-26T15:32:41.054Z</time>
      </trkpt>
      <trkpt lat="43.72282" lon="1.45963">
        <ele>203.663834</ele>
        <time>2022-03-26T15:32:43.057Z</time>
      </trkpt>
      <trkpt lat="43.72277" lon="1.45948">
        <ele>204.03856</ele>
        <time>2022-03-26T15:32:45.055Z</time>
      </trkpt>
      <trkpt lat="43.7227" lon="1.45938">
        <ele>204.326734</ele>
        <time>2022-03-26T15:32:48.063Z</time>
      </trkpt>
      <trkpt lat="43.72258" lon="1.45925">
        <ele>204.776186</ele>
        <time>2022-03-26T15:33:07.055Z</time>
      </trkpt>
      <trkpt lat="43.72251" lon="1.45916">
        <ele>205.042764</ele>
        <time>2022-03-26T15:33:51.064Z</time>
      </trkpt>
      <trkpt lat="43.72246" lon="1.45927">
        <ele>205.308832</ele>
        <time>2022-03-26T15:33:57.062Z</time>
      </trkpt>
      <trkpt lat="43.72236" lon="1.45932">
        <ele>205.631478</ele>
        <time>2022-03-26T15:34:01.059Z</time>
      </trkpt>
      <trkpt lat="43.72229" lon="1.45926">
        <ele>151.9</ele>
        <time>2022-03-26T15:34:04.067Z</time>
      </trkpt>
      <trkpt lat="43.72222" lon="1.45903">
        <ele>151</ele>
      </trkpt>
      <trkpt lat="43.72203" lon="1.45869">
        <ele>152.2</ele>
      </trkpt>
      <trkpt lat="43.72201" lon="1.45828">
        <ele>153.7</ele>
      </trkpt>
      <trkpt lat="43.7218" lon="1.45785">
        <ele>157.1</ele>
      </trkpt>
      <trkpt lat="43.72167" lon="1.45746">
        <ele>159</ele>
      </trkpt>
      <trkpt lat="43.72165" lon="1.45688">
        <ele>159.3</ele>
      </trkpt>
      <trkpt lat="43.72167" lon="1.45661">
        <ele>158.9</ele>
      </trkpt>
      <trkpt lat="43.7216" lon="1.45657">
        <ele>160.2</ele>
      </trkpt>
      <trkpt lat="43.72133" lon="1.45619">
        <ele>165.8</ele>
        <time>2022-03-26T15:38:25.065Z</time>
      </trkpt>
      <trkpt lat="43.72141" lon="1.45605">
        <ele>217.220182</ele>
        <time>2022-03-26T15:38:48.070Z</time>
      </trkpt>
      <trkpt lat="43.72146" lon="1.45594">
        <ele>216.920088</ele>
        <time>2022-03-26T15:38:53.069Z</time>
      </trkpt>
      <trkpt lat="43.72142" lon="1.45582">
        <ele>216.853881</ele>
        <time>2022-03-26T15:38:57.066Z</time>
      </trkpt>
      <trkpt lat="43.72137" lon="1.45571">
        <ele>216.789965</ele>
        <time>2022-03-26T15:38:59.064Z</time>
      </trkpt>
      <trkpt lat="43.72134" lon="1.45555">
        <ele>216.708256</ele>
        <time>2022-03-26T15:39:02.068Z</time>
      </trkpt>
      <trkpt lat="43.72132" lon="1.45542">
        <ele>216.639561</ele>
        <time>2022-03-26T15:39:06.064Z</time>
      </trkpt>
      <trkpt lat="43.72128" lon="1.45527">
        <ele>216.560117</ele>
        <time>2022-03-26T15:39:10.066Z</time>
      </trkpt>
      <trkpt lat="43.72124" lon="1.45515">
        <ele>216.490086</ele>
        <time>2022-03-26T15:39:12.068Z</time>
      </trkpt>
      <trkpt lat="43.72121" lon="1.45502">
        <ele>216.423003</ele>
        <time>2022-03-26T15:39:15.065Z</time>
      </trkpt>
      <trkpt lat="43.72114" lon="1.45489">
        <ele>216.341032</ele>
        <time>2022-03-26T15:39:19.070Z</time>
      </trkpt>
      <trkpt lat="43.72107" lon="1.45479">
        <ele>216.269513</ele>
        <time>2022-03-26T15:39:22.067Z</time>
      </trkpt>
      <trkpt lat="43.72102" lon="1.45467">
        <ele>216.196826</ele>
        <time>2022-03-26T15:39:27.069Z</time>
      </trkpt>
      <trkpt lat="43.72093" lon="1.45458">
        <ele>216.119145</ele>
        <time>2022-03-26T15:39:30.069Z</time>
      </trkpt>
      <trkpt lat="43.72081" lon="1.45458">
        <ele>216.037268</ele>
        <time>2022-03-26T15:39:40.061Z</time>
      </trkpt>
      <trkpt lat="43.72074" lon="1.45447">
        <ele>215.964524</ele>
        <time>2022-03-26T15:39:44.071Z</time>
      </trkpt>
      <trkpt lat="43.72065" lon="1.4544">
        <ele>215.892636</ele>
        <time>2022-03-26T15:39:49.059Z</time>
      </trkpt>
      <trkpt lat="43.72056" lon="1.45444">
        <ele>215.825459</ele>
        <time>2022-03-26T15:39:56.066Z</time>
      </trkpt>
      <trkpt lat="43.72048" lon="1.4545">
        <ele>215.762678</ele>
        <time>2022-03-26T15:40:02.055Z</time>
      </trkpt>
      <trkpt lat="43.7204" lon="1.45443">
        <ele>215.689946</ele>
        <time>2022-03-26T15:40:06.065Z</time>
      </trkpt>
      <trkpt lat="43.72035" lon="1.4543">
        <ele>215.608111</ele>
        <time>2022-03-26T15:40:11.055Z</time>
      </trkpt>
      <trkpt lat="43.72031" lon="1.45419">
        <ele>215.534766</ele>
        <time>2022-03-26T15:40:16.068Z</time>
      </trkpt>
      <trkpt lat="43.72023" lon="1.45412">
        <ele>215.453064</ele>
        <time>2022-03-26T15:40:22.056Z</time>
      </trkpt>
      <trkpt lat="43.72015" lon="1.45405">
        <ele>215.379636</ele>
        <time>2022-03-26T15:40:24.078Z</time>
      </trkpt>
      <trkpt lat="43.71992" lon="1.45419">
        <ele>215.180503</ele>
        <time>2022-03-26T15:42:58.070Z</time>
      </trkpt>
      <trkpt lat="43.71983" lon="1.4542">
        <ele>215.103798</ele>
        <time>2022-03-26T15:43:04.067Z</time>
      </trkpt>
      <trkpt lat="43.71971" lon="1.45423">
        <ele>215.007139</ele>
        <time>2022-03-26T15:43:08.051Z</time>
      </trkpt>
      <trkpt lat="43.71962" lon="1.45425">
        <ele>214.927303</ele>
        <time>2022-03-26T15:43:13.064Z</time>
      </trkpt>
      <trkpt lat="43.71953" lon="1.45433">
        <ele>214.839579</ele>
        <time>2022-03-26T15:43:16.053Z</time>
      </trkpt>
      <trkpt lat="43.71943" lon="1.45432">
        <ele>214.763835</ele>
        <time>2022-03-26T15:43:23.057Z</time>
      </trkpt>
      <trkpt lat="43.71933" lon="1.45439">
        <ele>214.673129</ele>
        <time>2022-03-26T15:43:26.054Z</time>
      </trkpt>
      <trkpt lat="43.71925" lon="1.45442">
        <ele>214.599997</ele>
        <time>2022-03-26T15:43:34.057Z</time>
      </trkpt>
      <trkpt lat="43.71912" lon="1.45441">
        <ele>214.501479</ele>
        <time>2022-03-26T15:43:38.061Z</time>
      </trkpt>
      <trkpt lat="43.71902" lon="1.45447">
        <ele>214.412981</ele>
        <time>2022-03-26T15:43:41.051Z</time>
      </trkpt>
      <trkpt lat="43.71897" lon="1.45461">
        <ele>214.321416</ele>
        <time>2022-03-26T15:43:45.062Z</time>
      </trkpt>
      <trkpt lat="43.71885" lon="1.4547">
        <ele>214.275468</ele>
        <time>2022-03-26T15:43:49.055Z</time>
      </trkpt>
      <trkpt lat="43.71876" lon="1.45478">
        <ele>214.412693</ele>
        <time>2022-03-26T15:43:54.056Z</time>
      </trkpt>
      <trkpt lat="43.7187" lon="1.4549">
        <ele>214.551632</ele>
        <time>2022-03-26T15:43:59.059Z</time>
      </trkpt>
      <trkpt lat="43.71867" lon="1.45505">
        <ele>214.699251</ele>
        <time>2022-03-26T15:44:03.056Z</time>
      </trkpt>
      <trkpt lat="43.71861" lon="1.45514">
        <ele>214.819839</ele>
        <time>2022-03-26T15:44:08.061Z</time>
      </trkpt>
      <trkpt lat="43.71846" lon="1.45523">
        <ele>215.026879</ele>
        <time>2022-03-26T15:44:13.056Z</time>
      </trkpt>
      <trkpt lat="43.71837" lon="1.45518">
        <ele>215.153593</ele>
        <time>2022-03-26T15:44:21.066Z</time>
      </trkpt>
      <trkpt lat="43.71827" lon="1.45516">
        <ele>215.290916</ele>
        <time>2022-03-26T15:44:26.058Z</time>
      </trkpt>
      <trkpt lat="43.71818" lon="1.45517">
        <ele>215.411948</ele>
        <time>2022-03-26T15:44:32.050Z</time>
      </trkpt>
      <trkpt lat="43.7181" lon="1.45509">
        <ele>215.544258</ele>
        <time>2022-03-26T15:44:38.058Z</time>
      </trkpt>
      <trkpt lat="43.71801" lon="1.455">
        <ele>215.688777</ele>
        <time>2022-03-26T15:44:43.068Z</time>
      </trkpt>
      <trkpt lat="43.71795" lon="1.45491">
        <ele>215.812821</ele>
        <time>2022-03-26T15:44:47.054Z</time>
      </trkpt>
      <trkpt lat="43.7179" lon="1.45477">
        <ele>215.962537</ele>
        <time>2022-03-26T15:44:51.052Z</time>
      </trkpt>
      <trkpt lat="43.71788" lon="1.45462">
        <ele>216.106156</ele>
        <time>2022-03-26T15:44:55.069Z</time>
      </trkpt>
      <trkpt lat="43.71794" lon="1.45451">
        <ele>216.234348</ele>
        <time>2022-03-26T15:44:58.068Z</time>
      </trkpt>
      <trkpt lat="43.71801" lon="1.45443">
        <ele>216.359734</ele>
        <time>2022-03-26T15:45:02.054Z</time>
      </trkpt>
      <trkpt lat="43.71804" lon="1.45428">
        <ele>216.505178</ele>
        <time>2022-03-26T15:45:06.068Z</time>
      </trkpt>
      <trkpt lat="43.71804" lon="1.45414">
        <ele>216.615242</ele>
        <time>2022-03-26T15:45:10.066Z</time>
      </trkpt>
      <trkpt lat="43.71809" lon="1.45402">
        <ele>216.621517</ele>
        <time>2022-03-26T15:45:13.064Z</time>
      </trkpt>
      <trkpt lat="43.71815" lon="1.4539">
        <ele>216.628343</ele>
        <time>2022-03-26T15:45:16.059Z</time>
      </trkpt>
      <trkpt lat="43.71823" lon="1.45377">
        <ele>216.635876</ele>
        <time>2022-03-26T15:45:19.056Z</time>
      </trkpt>
      <trkpt lat="43.71831" lon="1.45368">
        <ele>216.642071</ele>
        <time>2022-03-26T15:45:22.066Z</time>
      </trkpt>
      <trkpt lat="43.71834" lon="1.45353">
        <ele>216.649008</ele>
        <time>2022-03-26T15:45:26.059Z</time>
      </trkpt>
      <trkpt lat="43.71833" lon="1.45339">
        <ele>216.65532</ele>
        <time>2022-03-26T15:45:30.054Z</time>
      </trkpt>
      <trkpt lat="43.7184" lon="1.45329">
        <ele>216.661183</ele>
        <time>2022-03-26T15:45:40.065Z</time>
      </trkpt>
      <trkpt lat="43.71846" lon="1.45318">
        <ele>216.667178</ele>
        <time>2022-03-26T15:45:51.065Z</time>
      </trkpt>
      <trkpt lat="43.71873" lon="1.45327">
        <ele>216.684407</ele>
        <time>2022-03-26T15:49:35.064Z</time>
      </trkpt>
      <trkpt lat="43.71878" lon="1.45339">
        <ele>216.690537</ele>
        <time>2022-03-26T15:49:40.076Z</time>
      </trkpt>
      <trkpt lat="43.71889" lon="1.45366">
        <ele>216.704238</ele>
        <time>2022-03-26T15:50:06.065Z</time>
      </trkpt>
      <trkpt lat="43.71893" lon="1.45377">
        <ele>216.709927</ele>
        <time>2022-03-26T15:50:12.059Z</time>
      </trkpt>
      <trkpt lat="43.71899" lon="1.45388">
        <ele>216.715962</ele>
        <time>2022-03-26T15:50:17.075Z</time>
      </trkpt>
      <trkpt lat="43.71908" lon="1.45391">
        <ele>216.722149</ele>
        <time>2022-03-26T15:50:23.079Z</time>
      </trkpt>
      <trkpt lat="43.71917" lon="1.45398">
        <ele>216.799167</ele>
        <time>2022-03-26T15:50:28.065Z</time>
      </trkpt>
      <trkpt lat="43.71926" lon="1.45401">
        <ele>216.946719</ele>
        <time>2022-03-26T15:50:30.068Z</time>
      </trkpt>
      <trkpt lat="43.71933" lon="1.45409">
        <ele>217.097227</ele>
        <time>2022-03-26T15:50:35.069Z</time>
      </trkpt>
      <trkpt lat="43.71943" lon="1.45407">
        <ele>217.253655</ele>
        <time>2022-03-26T15:50:39.069Z</time>
      </trkpt>
      <trkpt lat="43.71954" lon="1.45403">
        <ele>217.431248</ele>
        <time>2022-03-26T15:50:43.051Z</time>
      </trkpt>
      <trkpt lat="43.71963" lon="1.45397">
        <ele>217.587429</ele>
        <time>2022-03-26T15:50:47.060Z</time>
      </trkpt>
      <trkpt lat="43.71973" lon="1.4539">
        <ele>217.767427</ele>
        <time>2022-03-26T15:50:52.069Z</time>
      </trkpt>
      <trkpt lat="43.71982" lon="1.45386">
        <ele>217.92097</ele>
        <time>2022-03-26T15:50:55.060Z</time>
      </trkpt>
      <trkpt lat="43.71992" lon="1.45382">
        <ele>218.094977</ele>
        <time>2022-03-26T15:50:59.060Z</time>
      </trkpt>
      <trkpt lat="43.72003" lon="1.45378">
        <ele>218.266638</ele>
        <time>2022-03-26T15:51:03.066Z</time>
      </trkpt>
      <trkpt lat="43.7201" lon="1.45369">
        <ele>218.425619</ele>
        <time>2022-03-26T15:51:07.059Z</time>
      </trkpt>
      <trkpt lat="43.72014" lon="1.45357">
        <ele>218.576808</ele>
        <time>2022-03-26T15:51:11.063Z</time>
      </trkpt>
      <trkpt lat="43.72015" lon="1.45342">
        <ele>218.74336</ele>
        <time>2022-03-26T15:51:17.068Z</time>
      </trkpt>
      <trkpt lat="43.72015" lon="1.4533">
        <ele>218.889918</ele>
        <time>2022-03-26T15:51:21.057Z</time>
      </trkpt>
      <trkpt lat="43.72014" lon="1.45317">
        <ele>219.042109</ele>
        <time>2022-03-26T15:51:24.061Z</time>
      </trkpt>
      <trkpt lat="43.72017" lon="1.45304">
        <ele>219.198011</ele>
        <time>2022-03-26T15:51:29.067Z</time>
      </trkpt>
      <trkpt lat="43.72013" lon="1.45289">
        <ele>219.379802</ele>
        <time>2022-03-26T15:51:34.061Z</time>
      </trkpt>
      <trkpt lat="43.72015" lon="1.45275">
        <ele>219.5451</ele>
        <time>2022-03-26T15:51:41.065Z</time>
      </trkpt>
      <trkpt lat="43.72019" lon="1.45261">
        <ele>219.517019</ele>
        <time>2022-03-26T15:51:45.064Z</time>
      </trkpt>
      <trkpt lat="43.72026" lon="1.45249">
        <ele>219.395154</ele>
        <time>2022-03-26T15:51:49.067Z</time>
      </trkpt>
      <trkpt lat="43.72035" lon="1.45251">
        <ele>219.291868</ele>
        <time>2022-03-26T15:51:54.066Z</time>
      </trkpt>
      <trkpt lat="43.72045" lon="1.45252">
        <ele>219.188194</ele>
        <time>2022-03-26T15:51:59.056Z</time>
      </trkpt>
      <trkpt lat="43.72054" lon="1.45257">
        <ele>219.078117</ele>
        <time>2022-03-26T15:52:04.058Z</time>
      </trkpt>
      <trkpt lat="43.72062" lon="1.45267">
        <ele>218.966358</ele>
        <time>2022-03-26T15:52:08.069Z</time>
      </trkpt>
      <trkpt lat="43.72067" lon="1.45279">
        <ele>218.858624</ele>
        <time>2022-03-26T15:52:11.065Z</time>
      </trkpt>
      <trkpt lat="43.7207" lon="1.45292">
        <ele>218.747897</ele>
        <time>2022-03-26T15:52:14.068Z</time>
      </trkpt>
      <trkpt lat="43.7207" lon="1.45308">
        <ele>218.622521</ele>
        <time>2022-03-26T15:52:17.060Z</time>
      </trkpt>
      <trkpt lat="43.72073" lon="1.45326">
        <ele>218.481872</ele>
        <time>2022-03-26T15:52:21.069Z</time>
      </trkpt>
      <trkpt lat="43.72073" lon="1.4534">
        <ele>218.37337</ele>
        <time>2022-03-26T15:52:24.062Z</time>
      </trkpt>
      <trkpt lat="43.72077" lon="1.45351">
        <ele>218.274903</ele>
        <time>2022-03-26T15:52:28.049Z</time>
      </trkpt>
      <trkpt lat="43.7208" lon="1.45364">
        <ele>218.170017</ele>
        <time>2022-03-26T15:52:31.058Z</time>
      </trkpt>
      <trkpt lat="43.72089" lon="1.45367">
        <ele>218.068175</ele>
        <time>2022-03-26T15:52:34.066Z</time>
      </trkpt>
      <trkpt lat="43.72098" lon="1.45365">
        <ele>217.971146</ele>
        <time>2022-03-26T15:52:36.059Z</time>
      </trkpt>
      <trkpt lat="43.72108" lon="1.45373">
        <ele>217.845005</ele>
        <time>2022-03-26T15:52:39.067Z</time>
      </trkpt>
      <trkpt lat="43.72117" lon="1.45385">
        <ele>217.713965</ele>
        <time>2022-03-26T15:52:42.066Z</time>
      </trkpt>
      <trkpt lat="43.72128" lon="1.45391">
        <ele>217.391199</ele>
        <time>2022-03-26T15:52:47.056Z</time>
      </trkpt>
      <trkpt lat="43.72137" lon="1.45391">
        <ele>217.020821</ele>
        <time>2022-03-26T15:52:50.057Z</time>
      </trkpt>
      <trkpt lat="43.72147" lon="1.45392">
        <ele>216.613801</ele>
        <time>2022-03-26T15:52:54.067Z</time>
      </trkpt>
      <trkpt lat="43.72155" lon="1.45402">
        <ele>216.146572</ele>
        <time>2022-03-26T15:52:59.063Z</time>
      </trkpt>
      <trkpt lat="43.7216" lon="1.45414">
        <ele>215.747309</ele>
        <time>2022-03-26T15:53:02.077Z</time>
      </trkpt>
      <trkpt lat="43.72167" lon="1.45422">
        <ele>215.369627</ele>
        <time>2022-03-26T15:53:04.064Z</time>
      </trkpt>
      <trkpt lat="43.72173" lon="1.45432">
        <ele>215.004166</ele>
        <time>2022-03-26T15:53:06.067Z</time>
      </trkpt>
      <trkpt lat="43.72177" lon="1.45447">
        <ele>214.512825</ele>
        <time>2022-03-26T15:53:09.064Z</time>
      </trkpt>
      <trkpt lat="43.72182" lon="1.45463">
        <ele>214.007522</ele>
        <time>2022-03-26T15:53:12.065Z</time>
      </trkpt>
      <trkpt lat="43.72188" lon="1.45477">
        <ele>213.524578</ele>
        <time>2022-03-26T15:53:15.055Z</time>
      </trkpt>
      <trkpt lat="43.72189" lon="1.45495">
        <ele>213.006954</ele>
        <time>2022-03-26T15:53:18.067Z</time>
      </trkpt>
      <trkpt lat="43.7219" lon="1.45511">
        <ele>212.534563</ele>
        <time>2022-03-26T15:53:21.060Z</time>
      </trkpt>
      <trkpt lat="43.72194" lon="1.45525">
        <ele>212.090466</ele>
        <time>2022-03-26T15:53:26.056Z</time>
      </trkpt>
      <trkpt lat="43.72194" lon="1.45541">
        <ele>211.613931</ele>
        <time>2022-03-26T15:53:30.064Z</time>
      </trkpt>
      <trkpt lat="43.72196" lon="1.45556">
        <ele>211.17394</ele>
        <time>2022-03-26T15:53:34.066Z</time>
      </trkpt>
      <trkpt lat="43.72201" lon="1.45567">
        <ele>210.793854</ele>
        <time>2022-03-26T15:53:39.063Z</time>
      </trkpt>
      <trkpt lat="43.722" lon="1.45591">
        <ele>210.210374</ele>
        <time>2022-03-26T15:55:45.092Z</time>
      </trkpt>
      <trkpt lat="43.72198" lon="1.45606">
        <ele>209.975212</ele>
        <time>2022-03-26T15:55:48.072Z</time>
      </trkpt>
      <trkpt lat="43.72198" lon="1.45621">
        <ele>209.732991</ele>
        <time>2022-03-26T15:55:51.068Z</time>
      </trkpt>
      <trkpt lat="43.72199" lon="1.45636">
        <ele>209.50984</ele>
        <time>2022-03-26T15:55:54.087Z</time>
      </trkpt>
      <trkpt lat="43.72198" lon="1.45648">
        <ele>209.31357</ele>
        <time>2022-03-26T15:55:57.068Z</time>
      </trkpt>
      <trkpt lat="43.72197" lon="1.45661">
        <ele>209.104692</ele>
        <time>2022-03-26T15:56:03.060Z</time>
      </trkpt>
      <trkpt lat="43.72198" lon="1.45685">
        <ele>207.408539</ele>
        <time>2022-03-26T15:56:58.075Z</time>
      </trkpt>
      <trkpt lat="43.72203" lon="1.45701">
        <ele>207.147709</ele>
        <time>2022-03-26T15:57:01.069Z</time>
      </trkpt>
      <trkpt lat="43.72204" lon="1.45716">
        <ele>206.907119</ele>
        <time>2022-03-26T15:57:05.064Z</time>
      </trkpt>
      <trkpt lat="43.72207" lon="1.45731">
        <ele>206.665743</ele>
        <time>2022-03-26T15:57:09.064Z</time>
      </trkpt>
      <trkpt lat="43.7221" lon="1.45743">
        <ele>206.471771</ele>
        <time>2022-03-26T15:57:12.066Z</time>
      </trkpt>
      <trkpt lat="43.72213" lon="1.45756">
        <ele>206.357414</ele>
        <time>2022-03-26T15:57:15.064Z</time>
      </trkpt>
      <trkpt lat="43.72216" lon="1.45768">
        <ele>206.24745</ele>
        <time>2022-03-26T15:57:18.080Z</time>
      </trkpt>
      <trkpt lat="43.72216" lon="1.45783">
        <ele>206.114252</ele>
        <time>2022-03-26T15:57:21.079Z</time>
      </trkpt>
      <trkpt lat="43.72218" lon="1.45799">
        <ele>205.969184</ele>
        <time>2022-03-26T15:57:24.095Z</time>
      </trkpt>
      <trkpt lat="43.7222" lon="1.45814">
        <ele>205.842179</ele>
        <time>2022-03-26T15:57:28.065Z</time>
      </trkpt>
      <trkpt lat="43.72225" lon="1.45826">
        <ele>205.722234</ele>
        <time>2022-03-26T15:57:32.068Z</time>
      </trkpt>
      <trkpt lat="43.7223" lon="1.45836">
        <ele>205.612996</ele>
        <time>2022-03-26T15:57:35.055Z</time>
      </trkpt>
      <trkpt lat="43.72233" lon="1.45848">
        <ele>205.500219</ele>
        <time>2022-03-26T15:57:39.079Z</time>
      </trkpt>
      <trkpt lat="43.72233" lon="1.45865">
        <ele>205.355042</ele>
        <time>2022-03-26T15:57:43.075Z</time>
      </trkpt>
      <trkpt lat="43.72233" lon="1.45878">
        <ele>205.242202</ele>
        <time>2022-03-26T15:57:47.059Z</time>
      </trkpt>
      <trkpt lat="43.72241" lon="1.45888">
        <ele>205.110252</ele>
        <time>2022-03-26T15:57:51.072Z</time>
      </trkpt>
      <trkpt lat="43.72247" lon="1.45898">
        <ele>204.992631</ele>
        <time>2022-03-26T15:57:54.069Z</time>
      </trkpt>
      <trkpt lat="43.72255" lon="1.45908">
        <ele>204.866597</ele>
        <time>2022-03-26T15:58:00.069Z</time>
      </trkpt>
      <trkpt lat="43.72263" lon="1.45911">
        <ele>204.75733</ele>
        <time>2022-03-26T15:58:14.063Z</time>
      </trkpt>
      <trkpt lat="43.7227" lon="1.45922">
        <ele>204.637309</ele>
        <time>2022-03-26T15:58:24.062Z</time>
      </trkpt>
      <trkpt lat="43.72278" lon="1.45933">
        <ele>204.500833</ele>
        <time>2022-03-26T15:58:29.074Z</time>
      </trkpt>
      <trkpt lat="43.72287" lon="1.4594">
        <ele>204.367428</ele>
        <time>2022-03-26T15:58:34.064Z</time>
      </trkpt>
      <trkpt lat="43.72296" lon="1.4594">
        <ele>204.552518</ele>
        <time>2022-03-26T15:58:39.057Z</time>
      </trkpt>
      <trkpt lat="43.72319" lon="1.45949">
        <ele>209.360444</ele>
        <time>2022-03-26T16:03:56.055Z</time>
      </trkpt>
      <trkpt lat="43.72326" lon="1.4596">
        <ele>208.751465</ele>
        <time>2022-03-26T16:04:01.059Z</time>
      </trkpt>
      <trkpt lat="43.72332" lon="1.45973">
        <ele>208.16684</ele>
        <time>2022-03-26T16:04:05.058Z</time>
      </trkpt>
      <trkpt lat="43.72339" lon="1.4598">
        <ele>208.162161</ele>
        <time>2022-03-26T16:04:10.049Z</time>
      </trkpt>
      <trkpt lat="43.7235" lon="1.45979">
        <ele>208.156997</ele>
        <time>2022-03-26T16:04:16.058Z</time>
      </trkpt>
      <trkpt lat="43.72358" lon="1.45972">
        <ele>208.152189</ele>
        <time>2022-03-26T16:04:20.057Z</time>
      </trkpt>
      <trkpt lat="43.72365" lon="1.45964">
        <ele>208.147289</ele>
        <time>2022-03-26T16:04:25.054Z</time>
      </trkpt>
      <trkpt lat="43.72374" lon="1.45959">
        <ele>208.142512</ele>
        <time>2022-03-26T16:04:30.058Z</time>
      </trkpt>
      <trkpt lat="43.72378" lon="1.45972">
        <ele>208.137593</ele>
        <time>2022-03-26T16:04:36.062Z</time>
      </trkpt>
      <trkpt lat="43.72375" lon="1.45984">
        <ele>208.132834</ele>
        <time>2022-03-26T16:04:41.077Z</time>
      </trkpt>
      <trkpt lat="43.72366" lon="1.45997">
        <ele>208.126346</ele>
        <time>2022-03-26T16:04:48.059Z</time>
      </trkpt>
      <trkpt lat="43.72361" lon="1.46007">
        <ele>208.121811</ele>
        <time>2022-03-26T16:04:50.068Z</time>
      </trkpt>
      <trkpt lat="43.72354" lon="1.46019">
        <ele>208.116361</ele>
        <time>2022-03-26T16:04:52.079Z</time>
      </trkpt>
      <trkpt lat="43.72348" lon="1.46031">
        <ele>208.110973</ele>
        <time>2022-03-26T16:04:54.073Z</time>
      </trkpt>
      <trkpt lat="43.72341" lon="1.46044">
        <ele>208.105052</ele>
        <time>2022-03-26T16:04:56.071Z</time>
      </trkpt>
      <trkpt lat="43.72336" lon="1.4606">
        <ele>208.098679</ele>
        <time>2022-03-26T16:04:58.065Z</time>
      </trkpt>
      <trkpt lat="43.7233" lon="1.46076">
        <ele>208.092228</ele>
        <time>2022-03-26T16:05:00.081Z</time>
      </trkpt>
      <trkpt lat="43.72329" lon="1.46091">
        <ele>208.086654</ele>
        <time>2022-03-26T16:05:03.061Z</time>
      </trkpt>
      <trkpt lat="43.7233" lon="1.46108">
        <ele>208.080362</ele>
        <time>2022-03-26T16:05:07.071Z</time>
      </trkpt>
      <trkpt lat="43.72332" lon="1.46125">
        <ele>208.090105</ele>
        <time>2022-03-26T16:05:10.065Z</time>
      </trkpt>
      <trkpt lat="43.72335" lon="1.46137">
        <ele>208.11519</ele>
        <time>2022-03-26T16:05:12.053Z</time>
      </trkpt>
      <trkpt lat="43.7234" lon="1.46151">
        <ele>208.145573</ele>
        <time>2022-03-26T16:05:15.055Z</time>
      </trkpt>
      <trkpt lat="43.72342" lon="1.46166">
        <ele>208.177083</ele>
        <time>2022-03-26T16:05:18.056Z</time>
      </trkpt>
      <trkpt lat="43.7235" lon="1.46182">
        <ele>208.213154</ele>
        <time>2022-03-26T16:05:21.060Z</time>
      </trkpt>
      <trkpt lat="43.72354" lon="1.46194">
        <ele>208.239905</ele>
        <time>2022-03-26T16:05:24.057Z</time>
      </trkpt>
      <trkpt lat="43.72351" lon="1.4621">
        <ele>208.274562</ele>
        <time>2022-03-26T16:05:27.058Z</time>
      </trkpt>
      <trkpt lat="43.72348" lon="1.46226">
        <ele>208.307321</ele>
        <time>2022-03-26T16:05:29.075Z</time>
      </trkpt>
      <trkpt lat="43.7235" lon="1.4624">
        <ele>208.336209</ele>
        <time>2022-03-26T16:05:31.068Z</time>
      </trkpt>
      <trkpt lat="43.72357" lon="1.4625">
        <ele>208.361723</ele>
        <time>2022-03-26T16:05:33.068Z</time>
      </trkpt>
      <trkpt lat="43.72367" lon="1.46259">
        <ele>208.394658</ele>
        <time>2022-03-26T16:05:36.053Z</time>
      </trkpt>
      <trkpt lat="43.72374" lon="1.46269">
        <ele>208.423195</ele>
        <time>2022-03-26T16:05:41.054Z</time>
      </trkpt>
      <trkpt lat="43.7238" lon="1.4628">
        <ele>208.450738</ele>
        <time>2022-03-26T16:05:46.066Z</time>
      </trkpt>
      <trkpt lat="43.72383" lon="1.46296">
        <ele>208.482685</ele>
        <time>2022-03-26T16:05:50.064Z</time>
      </trkpt>
      <trkpt lat="43.72384" lon="1.46312">
        <ele>208.513722</ele>
        <time>2022-03-26T16:05:52.054Z</time>
      </trkpt>
      <trkpt lat="43.72384" lon="1.46328">
        <ele>208.54636</ele>
        <time>2022-03-26T16:05:54.063Z</time>
      </trkpt>
      <trkpt lat="43.72387" lon="1.46342">
        <ele>208.532602</ele>
        <time>2022-03-26T16:05:56.071Z</time>
      </trkpt>
      <trkpt lat="43.72389" lon="1.46354">
        <ele>208.416475</ele>
        <time>2022-03-26T16:05:58.070Z</time>
      </trkpt>
      <trkpt lat="43.7239" lon="1.46369">
        <ele>208.277006</ele>
        <time>2022-03-26T16:06:00.077Z</time>
      </trkpt>
      <trkpt lat="43.72392" lon="1.46389">
        <ele>208.089623</ele>
        <time>2022-03-26T16:06:02.067Z</time>
      </trkpt>
      <trkpt lat="43.72394" lon="1.46408">
        <ele>207.910697</ele>
        <time>2022-03-26T16:06:04.065Z</time>
      </trkpt>
      <trkpt lat="43.72396" lon="1.4642">
        <ele>207.790824</ele>
        <time>2022-03-26T16:06:06.062Z</time>
      </trkpt>
      <trkpt lat="43.72396" lon="1.46434">
        <ele>207.665422</ele>
        <time>2022-03-26T16:06:09.069Z</time>
      </trkpt>
      <trkpt lat="43.72398" lon="1.46451">
        <ele>207.503518</ele>
        <time>2022-03-26T16:06:12.070Z</time>
      </trkpt>
      <trkpt lat="43.724" lon="1.46463">
        <ele>207.387414</ele>
        <time>2022-03-26T16:06:15.067Z</time>
      </trkpt>
      <trkpt lat="43.72404" lon="1.46479">
        <ele>207.228157</ele>
        <time>2022-03-26T16:06:18.059Z</time>
      </trkpt>
      <trkpt lat="43.72406" lon="1.46493">
        <ele>207.093342</ele>
        <time>2022-03-26T16:06:21.066Z</time>
      </trkpt>
      <trkpt lat="43.72407" lon="1.46509">
        <ele>206.944597</ele>
        <time>2022-03-26T16:06:24.063Z</time>
      </trkpt>
      <trkpt lat="43.7241" lon="1.46523">
        <ele>206.8098</ele>
        <time>2022-03-26T16:06:27.063Z</time>
      </trkpt>
      <trkpt lat="43.72413" lon="1.46539">
        <ele>206.656993</ele>
        <time>2022-03-26T16:06:30.056Z</time>
      </trkpt>
      <trkpt lat="43.72416" lon="1.46555">
        <ele>206.500246</ele>
        <time>2022-03-26T16:06:33.065Z</time>
      </trkpt>
      <trkpt lat="43.72421" lon="1.46568">
        <ele>206.364133</ele>
        <time>2022-03-26T16:06:37.069Z</time>
      </trkpt>
      <trkpt lat="43.72425" lon="1.46579">
        <ele>206.243449</ele>
        <time>2022-03-26T16:06:40.060Z</time>
      </trkpt>
      <trkpt lat="43.72432" lon="1.46589">
        <ele>206.413646</ele>
        <time>2022-03-26T16:06:44.059Z</time>
      </trkpt>
      <trkpt lat="43.72439" lon="1.46601">
        <ele>206.616811</ele>
        <time>2022-03-26T16:06:50.054Z</time>
      </trkpt>
      <trkpt lat="43.72445" lon="1.4661">
        <ele>206.779098</ele>
        <time>2022-03-26T16:06:54.065Z</time>
      </trkpt>
      <trkpt lat="43.7245" lon="1.46621">
        <ele>206.945304</ele>
        <time>2022-03-26T16:06:58.057Z</time>
      </trkpt>
      <trkpt lat="43.72454" lon="1.46636">
        <ele>207.153702</ele>
        <time>2022-03-26T16:07:03.079Z</time>
      </trkpt>
      <trkpt lat="43.72452" lon="1.46648">
        <ele>207.31682</ele>
        <time>2022-03-26T16:07:05.062Z</time>
      </trkpt>
      <trkpt lat="43.72456" lon="1.46664">
        <ele>207.531801</ele>
        <time>2022-03-26T16:07:08.084Z</time>
      </trkpt>
      <trkpt lat="43.72459" lon="1.46676">
        <ele>207.696298</ele>
        <time>2022-03-26T16:07:10.063Z</time>
      </trkpt>
      <trkpt lat="43.72464" lon="1.46687">
        <ele>207.86986</ele>
        <time>2022-03-26T16:07:12.067Z</time>
      </trkpt>
      <trkpt lat="43.72473" lon="1.46694">
        <ele>208.062965</ele>
        <time>2022-03-26T16:07:15.071Z</time>
      </trkpt>
      <trkpt lat="43.72487" lon="1.46687">
        <ele>208.324516</ele>
        <time>2022-03-26T16:07:53.061Z</time>
      </trkpt>
      <trkpt lat="43.72498" lon="1.46686">
        <ele>208.520098</ele>
        <time>2022-03-26T16:07:56.066Z</time>
      </trkpt>
      <trkpt lat="43.72509" lon="1.46684">
        <ele>208.733013</ele>
        <time>2022-03-26T16:07:59.054Z</time>
      </trkpt>
      <trkpt lat="43.72519" lon="1.46677">
        <ele>208.929813</ele>
        <time>2022-03-26T16:08:02.065Z</time>
      </trkpt>
      <trkpt lat="43.72524" lon="1.46664">
        <ele>209.123488</ele>
        <time>2022-03-26T16:08:06.068Z</time>
      </trkpt>
      <trkpt lat="43.72533" lon="1.4666">
        <ele>209.285245</ele>
        <time>2022-03-26T16:08:09.072Z</time>
      </trkpt>
      <trkpt lat="43.72542" lon="1.46655">
        <ele>209.46407</ele>
        <time>2022-03-26T16:08:11.070Z</time>
      </trkpt>
      <trkpt lat="43.72549" lon="1.46646">
        <ele>209.517751</ele>
        <time>2022-03-26T16:08:15.070Z</time>
      </trkpt>
      <trkpt lat="43.7255" lon="1.46633">
        <ele>209.550524</ele>
        <time>2022-03-26T16:08:20.060Z</time>
      </trkpt>
      <trkpt lat="43.72554" lon="1.4662">
        <ele>209.586672</ele>
        <time>2022-03-26T16:08:25.064Z</time>
      </trkpt>
      <trkpt lat="43.72561" lon="1.46612">
        <ele>209.619921</ele>
        <time>2022-03-26T16:08:31.062Z</time>
      </trkpt>
      <trkpt lat="43.72572" lon="1.46612">
        <ele>209.659417</ele>
        <time>2022-03-26T16:08:36.068Z</time>
      </trkpt>
      <trkpt lat="43.72584" lon="1.4661">
        <ele>209.700619</ele>
        <time>2022-03-26T16:08:43.073Z</time>
      </trkpt>
      <trkpt lat="43.72581" lon="1.46626">
        <ele>209.744199</ele>
        <time>2022-03-26T16:09:01.069Z</time>
      </trkpt>
      <trkpt lat="43.72576" lon="1.46639">
        <ele>209.781489</ele>
        <time>2022-03-26T16:09:04.082Z</time>
      </trkpt>
      <trkpt lat="43.7257" lon="1.46649">
        <ele>209.814054</ele>
        <time>2022-03-26T16:09:09.058Z</time>
      </trkpt>
      <trkpt lat="43.72565" lon="1.4666">
        <ele>209.847204</ele>
        <time>2022-03-26T16:09:12.060Z</time>
      </trkpt>
      <trkpt lat="43.72563" lon="1.46673">
        <ele>209.880915</ele>
        <time>2022-03-26T16:09:21.079Z</time>
      </trkpt>
      <trkpt lat="43.72574" lon="1.46672">
        <ele>209.919422</ele>
        <time>2022-03-26T16:09:27.060Z</time>
      </trkpt>
      <trkpt lat="43.72584" lon="1.46669">
        <ele>209.955756</ele>
        <time>2022-03-26T16:09:31.066Z</time>
      </trkpt>
      <trkpt lat="43.72593" lon="1.46668">
        <ele>209.988358</ele>
        <time>2022-03-26T16:09:34.074Z</time>
      </trkpt>
      <trkpt lat="43.72602" lon="1.46671">
        <ele>210.020425</ele>
        <time>2022-03-26T16:09:37.053Z</time>
      </trkpt>
      <trkpt lat="43.72612" lon="1.46673">
        <ele>210.056671</ele>
        <time>2022-03-26T16:09:40.070Z</time>
      </trkpt>
      <trkpt lat="43.72624" lon="1.46679">
        <ele>210.0992</ele>
        <time>2022-03-26T16:09:43.070Z</time>
      </trkpt>
      <trkpt lat="43.72633" lon="1.46685">
        <ele>210.311976</ele>
        <time>2022-03-26T16:09:46.072Z</time>
      </trkpt>
      <trkpt lat="43.72643" lon="1.46694">
        <ele>211.108167</ele>
        <time>2022-03-26T16:09:49.069Z</time>
      </trkpt>
      <trkpt lat="43.72653" lon="1.46701">
        <ele>211.887593</ele>
        <time>2022-03-26T16:09:52.059Z</time>
      </trkpt>
      <trkpt lat="43.72664" lon="1.46701">
        <ele>212.694265</ele>
        <time>2022-03-26T16:09:56.078Z</time>
      </trkpt>
      <trkpt lat="43.72674" lon="1.46698">
        <ele>213.38829</ele>
        <time>2022-03-26T16:09:59.065Z</time>
      </trkpt>
      <trkpt lat="43.72685" lon="1.467">
        <ele>214.192034</ele>
        <time>2022-03-26T16:10:03.069Z</time>
      </trkpt>
      <trkpt lat="43.72696" lon="1.46704">
        <ele>214.976472</ele>
        <time>2022-03-26T16:10:07.087Z</time>
      </trkpt>
      <trkpt lat="43.72705" lon="1.46708">
        <ele>215.655236</ele>
        <time>2022-03-26T16:10:10.059Z</time>
      </trkpt>
      <trkpt lat="43.72714" lon="1.46715">
        <ele>216.3956</ele>
        <time>2022-03-26T16:10:14.056Z</time>
      </trkpt>
      <trkpt lat="43.72723" lon="1.46719">
        <ele>217.042223</ele>
        <time>2022-03-26T16:10:17.064Z</time>
      </trkpt>
      <trkpt lat="43.72733" lon="1.46718">
        <ele>217.716082</ele>
        <time>2022-03-26T16:10:21.061Z</time>
      </trkpt>
      <trkpt lat="43.72742" lon="1.46717">
        <ele>218.379244</ele>
        <time>2022-03-26T16:10:25.059Z</time>
      </trkpt>
      <trkpt lat="43.72751" lon="1.46723">
        <ele>219.07998</ele>
        <time>2022-03-26T16:10:29.065Z</time>
      </trkpt>
      <trkpt lat="43.72759" lon="1.46734">
        <ele>219.833278</ele>
        <time>2022-03-26T16:10:34.071Z</time>
      </trkpt>
      <trkpt lat="43.72767" lon="1.46743">
        <ele>220.552173</ele>
        <time>2022-03-26T16:10:39.060Z</time>
      </trkpt>
      <trkpt lat="43.72775" lon="1.4675">
        <ele>221.260642</ele>
        <time>2022-03-26T16:10:42.074Z</time>
      </trkpt>
      <trkpt lat="43.72784" lon="1.46752">
        <ele>221.905548</ele>
        <time>2022-03-26T16:10:46.066Z</time>
      </trkpt>
      <trkpt lat="43.72789" lon="1.46766">
        <ele>222.671308</ele>
        <time>2022-03-26T16:10:57.060Z</time>
      </trkpt>
      <trkpt lat="43.72795" lon="1.46778">
        <ele>222.067643</ele>
        <time>2022-03-26T16:11:02.070Z</time>
      </trkpt>
      <trkpt lat="43.72801" lon="1.46788">
        <ele>221.390086</ele>
        <time>2022-03-26T16:11:04.073Z</time>
      </trkpt>
      <trkpt lat="43.72807" lon="1.468">
        <ele>220.586354</ele>
        <time>2022-03-26T16:11:07.074Z</time>
      </trkpt>
      <trkpt lat="43.72812" lon="1.46812">
        <ele>219.848879</ele>
        <time>2022-03-26T16:11:10.075Z</time>
      </trkpt>
      <trkpt lat="43.72818" lon="1.46824">
        <ele>219.066481</ele>
        <time>2022-03-26T16:11:15.056Z</time>
      </trkpt>
      <trkpt lat="43.72823" lon="1.46835">
        <ele>218.389525</ele>
        <time>2022-03-26T16:11:19.068Z</time>
      </trkpt>
      <trkpt lat="43.72828" lon="1.46848">
        <ele>217.606532</ele>
        <time>2022-03-26T16:11:23.079Z</time>
      </trkpt>
      <trkpt lat="43.72833" lon="1.46863">
        <ele>216.747036</ele>
        <time>2022-03-26T16:11:26.076Z</time>
      </trkpt>
      <trkpt lat="43.72835" lon="1.46875">
        <ele>216.045369</ele>
        <time>2022-03-26T16:11:29.072Z</time>
      </trkpt>
      <trkpt lat="43.72839" lon="1.46888">
        <ele>215.312342</ele>
        <time>2022-03-26T16:11:32.068Z</time>
      </trkpt>
      <trkpt lat="43.72844" lon="1.46922">
        <ele>213.455582</ele>
        <time>2022-03-26T16:11:55.058Z</time>
      </trkpt>
      <trkpt lat="43.72847" lon="1.46937">
        <ele>212.641851</ele>
        <time>2022-03-26T16:11:58.071Z</time>
      </trkpt>
      <trkpt lat="43.72849" lon="1.46953">
        <ele>211.78329</ele>
        <time>2022-03-26T16:12:01.079Z</time>
      </trkpt>
      <trkpt lat="43.72852" lon="1.46966">
        <ele>211.071845</ele>
        <time>2022-03-26T16:12:03.066Z</time>
      </trkpt>
      <trkpt lat="43.72858" lon="1.46979">
        <ele>210.212922</ele>
        <time>2022-03-26T16:12:05.073Z</time>
      </trkpt>
      <trkpt lat="43.72865" lon="1.4699">
        <ele>209.457468</ele>
        <time>2022-03-26T16:12:07.059Z</time>
      </trkpt>
      <trkpt lat="43.72874" lon="1.47">
        <ele>208.793948</ele>
        <time>2022-03-26T16:12:10.068Z</time>
      </trkpt>
      <trkpt lat="43.72881" lon="1.4701">
        <ele>208.188767</ele>
        <time>2022-03-26T16:12:14.067Z</time>
      </trkpt>
      <trkpt lat="43.72892" lon="1.47008">
        <ele>207.564636</ele>
        <time>2022-03-26T16:12:17.064Z</time>
      </trkpt>
      <trkpt lat="43.72901" lon="1.4701">
        <ele>207.030392</ele>
        <time>2022-03-26T16:12:20.089Z</time>
      </trkpt>
      <trkpt lat="43.72895" lon="1.47">
        <ele>206.50542</ele>
        <time>2022-03-26T16:12:29.064Z</time>
      </trkpt>
      <trkpt lat="43.72883" lon="1.47021">
        <ele>205.40163</ele>
        <time>2022-03-26T16:12:51.063Z</time>
      </trkpt>
      <trkpt lat="43.72891" lon="1.4703">
        <ele>204.820776</ele>
        <time>2022-03-26T16:12:55.069Z</time>
      </trkpt>
      <trkpt lat="43.72899" lon="1.47043">
        <ele>204.10176</ele>
        <time>2022-03-26T16:12:59.077Z</time>
      </trkpt>
      <trkpt lat="43.72905" lon="1.47055">
        <ele>203.481531</ele>
        <time>2022-03-26T16:13:01.067Z</time>
      </trkpt>
      <trkpt lat="43.7291" lon="1.4707">
        <ele>202.786452</ele>
        <time>2022-03-26T16:13:03.060Z</time>
      </trkpt>
      <trkpt lat="43.72916" lon="1.47083">
        <ele>202.134729</ele>
        <time>2022-03-26T16:13:05.068Z</time>
      </trkpt>
      <trkpt lat="43.72916" lon="1.47096">
        <ele>201.588834</ele>
        <time>2022-03-26T16:13:09.057Z</time>
      </trkpt>
      <trkpt lat="43.72921" lon="1.47108">
        <ele>201.024875</ele>
        <time>2022-03-26T16:13:20.077Z</time>
      </trkpt>
      <trkpt lat="43.72926" lon="1.4712">
        <ele>200.471519</ele>
        <time>2022-03-26T16:13:23.074Z</time>
      </trkpt>
      <trkpt lat="43.72931" lon="1.47133">
        <ele>199.826404</ele>
        <time>2022-03-26T16:13:27.067Z</time>
      </trkpt>
      <trkpt lat="43.72927" lon="1.47145">
        <ele>199.278977</ele>
        <time>2022-03-26T16:13:37.071Z</time>
      </trkpt>
      <trkpt lat="43.72914" lon="1.47148">
        <ele>198.698626</ele>
        <time>2022-03-26T16:13:40.065Z</time>
      </trkpt>
      <trkpt lat="43.72904" lon="1.47153">
        <ele>198.307578</ele>
        <time>2022-03-26T16:13:42.066Z</time>
      </trkpt>
      <trkpt lat="43.72895" lon="1.47162">
        <ele>197.855572</ele>
        <time>2022-03-26T16:13:45.060Z</time>
      </trkpt>
      <trkpt lat="43.72888" lon="1.4717">
        <ele>197.4955</ele>
        <time>2022-03-26T16:13:51.080Z</time>
      </trkpt>
      <trkpt lat="43.72875" lon="1.47177">
        <ele>196.961005</ele>
        <time>2022-03-26T16:14:08.068Z</time>
      </trkpt>
      <trkpt lat="43.72851" lon="1.47157">
        <ele>195.89857</ele>
        <time>2022-03-26T16:16:25.063Z</time>
      </trkpt>
      <trkpt lat="43.72847" lon="1.47158">
        <ele>187.542948</ele>
        <time>2022-03-26T16:18:01.077Z</time>
      </trkpt>
      <trkpt lat="43.72839" lon="1.4715">
        <ele>187.261117</ele>
        <time>2022-03-26T16:18:04.064Z</time>
      </trkpt>
      <trkpt lat="43.72832" lon="1.47142">
        <ele>186.998996</ele>
        <time>2022-03-26T16:18:07.066Z</time>
      </trkpt>
      <trkpt lat="43.72825" lon="1.47135">
        <ele>187.021908</ele>
        <time>2022-03-26T16:18:10.064Z</time>
      </trkpt>
      <trkpt lat="43.72815" lon="1.47125">
        <ele>187.50114</ele>
        <time>2022-03-26T16:18:13.070Z</time>
      </trkpt>
      <trkpt lat="43.72807" lon="1.47117">
        <ele>187.921165</ele>
        <time>2022-03-26T16:18:16.068Z</time>
      </trkpt>
      <trkpt lat="43.72797" lon="1.47108">
        <ele>188.366099</ele>
        <time>2022-03-26T16:18:19.069Z</time>
      </trkpt>
      <trkpt lat="43.72789" lon="1.47101">
        <ele>188.759907</ele>
        <time>2022-03-26T16:18:22.078Z</time>
      </trkpt>
      <trkpt lat="43.7278" lon="1.47092">
        <ele>189.193078</ele>
        <time>2022-03-26T16:18:25.081Z</time>
      </trkpt>
      <trkpt lat="43.7276" lon="1.471">
        <ele>190.007951</ele>
        <time>2022-03-26T16:18:34.076Z</time>
      </trkpt>
      <trkpt lat="43.7274" lon="1.47106">
        <ele>148.7</ele>
        <time>2022-03-26T16:22:17.083Z</time>
      </trkpt>
      <trkpt lat="43.7273" lon="1.47105">
        <ele>149.5</ele>
        <time>2022-03-26T16:22:21.081Z</time>
      </trkpt>
      <trkpt lat="43.7272" lon="1.47103">
        <ele>197.522746</ele>
        <time>2022-03-26T16:22:24.078Z</time>
      </trkpt>
      <trkpt lat="43.72709" lon="1.47107">
        <ele>197.797348</ele>
        <time>2022-03-26T16:22:27.068Z</time>
      </trkpt>
      <trkpt lat="43.72702" lon="1.47116">
        <ele>198.036151</ele>
        <time>2022-03-26T16:22:30.060Z</time>
      </trkpt>
      <trkpt lat="43.7269" lon="1.47115">
        <ele>198.339659</ele>
        <time>2022-03-26T16:22:34.067Z</time>
      </trkpt>
      <trkpt lat="43.72684" lon="1.47105">
        <ele>198.720377</ele>
        <time>2022-03-26T16:22:37.068Z</time>
      </trkpt>
      <trkpt lat="43.72676" lon="1.47095">
        <ele>199.42033</ele>
        <time>2022-03-26T16:22:41.067Z</time>
      </trkpt>
      <trkpt lat="43.72667" lon="1.47084">
        <ele>200.165607</ele>
        <time>2022-03-26T16:22:45.065Z</time>
      </trkpt>
      <trkpt lat="43.72658" lon="1.47079">
        <ele>200.836812</ele>
        <time>2022-03-26T16:22:48.069Z</time>
      </trkpt>
      <trkpt lat="43.72648" lon="1.47088">
        <ele>201.654549</ele>
        <time>2022-03-26T16:22:52.066Z</time>
      </trkpt>
      <trkpt lat="43.72638" lon="1.47092">
        <ele>202.319194</ele>
        <time>2022-03-26T16:22:57.077Z</time>
      </trkpt>
      <trkpt lat="43.72631" lon="1.47102">
        <ele>203.019997</ele>
        <time>2022-03-26T16:23:02.073Z</time>
      </trkpt>
      <trkpt lat="43.72621" lon="1.47109">
        <ele>203.71316</ele>
        <time>2022-03-26T16:23:06.065Z</time>
      </trkpt>
      <trkpt lat="43.72616" lon="1.47119">
        <ele>204.333652</ele>
        <time>2022-03-26T16:23:10.068Z</time>
      </trkpt>
      <trkpt lat="43.72607" lon="1.47125">
        <ele>204.946226</ele>
        <time>2022-03-26T16:23:14.072Z</time>
      </trkpt>
      <trkpt lat="43.72606" lon="1.47139">
        <ele>205.594307</ele>
        <time>2022-03-26T16:23:19.083Z</time>
      </trkpt>
      <trkpt lat="43.72594" lon="1.47143">
        <ele>206.355374</ele>
        <time>2022-03-26T16:23:24.076Z</time>
      </trkpt>
      <trkpt lat="43.72587" lon="1.47154">
        <ele>207.055075</ele>
        <time>2022-03-26T16:23:27.070Z</time>
      </trkpt>
      <trkpt lat="43.72577" lon="1.47155">
        <ele>207.733404</ele>
        <time>2022-03-26T16:23:32.067Z</time>
      </trkpt>
      <trkpt lat="43.7257" lon="1.47162">
        <ele>208.33287</ele>
        <time>2022-03-26T16:23:36.079Z</time>
      </trkpt>
      <trkpt lat="43.72564" lon="1.47173">
        <ele>208.930276</ele>
        <time>2022-03-26T16:23:40.070Z</time>
      </trkpt>
      <trkpt lat="43.72562" lon="1.47186">
        <ele>209.573451</ele>
        <time>2022-03-26T16:23:44.077Z</time>
      </trkpt>
      <trkpt lat="43.72557" lon="1.47198">
        <ele>210.239253</ele>
        <time>2022-03-26T16:23:49.065Z</time>
      </trkpt>
      <trkpt lat="43.72551" lon="1.47219">
        <ele>210.609459</ele>
        <time>2022-03-26T16:23:56.084Z</time>
      </trkpt>
      <trkpt lat="43.72553" lon="1.47233">
        <ele>210.820217</ele>
        <time>2022-03-26T16:24:00.067Z</time>
      </trkpt>
      <trkpt lat="43.72555" lon="1.47247">
        <ele>211.019542</ele>
        <time>2022-03-26T16:24:05.069Z</time>
      </trkpt>
      <trkpt lat="43.72559" lon="1.47262">
        <ele>211.233158</ele>
        <time>2022-03-26T16:24:08.066Z</time>
      </trkpt>
      <trkpt lat="43.7256" lon="1.47275">
        <ele>211.422181</ele>
        <time>2022-03-26T16:24:11.073Z</time>
      </trkpt>
      <trkpt lat="43.72562" lon="1.47289">
        <ele>211.628647</ele>
        <time>2022-03-26T16:24:16.065Z</time>
      </trkpt>
      <trkpt lat="43.72563" lon="1.47307">
        <ele>211.882543</ele>
        <time>2022-03-26T16:24:19.083Z</time>
      </trkpt>
      <trkpt lat="43.72558" lon="1.47319">
        <ele>212.078973</ele>
        <time>2022-03-26T16:24:23.067Z</time>
      </trkpt>
      <trkpt lat="43.72515" lon="1.473">
        <ele>169.1</ele>
      </trkpt>
      <trkpt lat="43.72436" lon="1.47196">
        <ele>177.3</ele>
      </trkpt>
      <trkpt lat="43.72098" lon="1.47563">
        <ele>181.5</ele>
      </trkpt>
      <trkpt lat="43.71863" lon="1.47791">
        <ele>182.6</ele>
      </trkpt>
      <trkpt lat="43.71711" lon="1.4802">
        <ele>183</ele>
      </trkpt>
      <trkpt lat="43.71688" lon="1.48077">
        <ele>182.2</ele>
      </trkpt>
      <trkpt lat="43.71642" lon="1.48049">
        <ele>181.1</ele>
      </trkpt>
      <trkpt lat="43.71539" lon="1.48087">
        <ele>180</ele>
      </trkpt>
      <trkpt lat="43.71415" lon="1.48108">
        <ele>178.9</ele>
      </trkpt>
      <trkpt lat="43.71318" lon="1.48356">
        <ele>185.2</ele>
      </trkpt>
      <trkpt lat="43.71155" lon="1.48586">
        <ele>189</ele>
      </trkpt>
      <trkpt lat="43.7093" lon="1.48331">
        <ele>186</ele>
      </trkpt>
      <trkpt lat="43.7068" lon="1.48166">
        <ele>187.5</ele>
      </trkpt>
      <trkpt lat="43.7049" lon="1.47786">
        <ele>234.2531</ele>
        <time>2022-03-26T17:01:10.081Z</time>
      </trkpt>
      <trkpt lat="43.70482" lon="1.47774">
        <ele>234.268959</ele>
        <time>2022-03-26T17:01:12.078Z</time>
      </trkpt>
      <trkpt lat="43.70473" lon="1.47765">
        <ele>234.515099</ele>
        <time>2022-03-26T17:01:14.065Z</time>
      </trkpt>
      <trkpt lat="43.70463" lon="1.47759">
        <ele>234.793481</ele>
        <time>2022-03-26T17:01:16.068Z</time>
      </trkpt>
      <trkpt lat="43.70453" lon="1.47753">
        <ele>235.072667</ele>
        <time>2022-03-26T17:01:18.096Z</time>
      </trkpt>
      <trkpt lat="43.70442" lon="1.47747">
        <ele>235.369365</ele>
        <time>2022-03-26T17:01:20.068Z</time>
      </trkpt>
      <trkpt lat="43.7043" lon="1.47741">
        <ele>235.677238</ele>
        <time>2022-03-26T17:01:22.089Z</time>
      </trkpt>
      <trkpt lat="43.70419" lon="1.47736">
        <ele>235.983353</ele>
        <time>2022-03-26T17:01:24.081Z</time>
      </trkpt>
      <trkpt lat="43.70408" lon="1.4773">
        <ele>236.274096</ele>
        <time>2022-03-26T17:01:26.079Z</time>
      </trkpt>
      <trkpt lat="43.70397" lon="1.47725">
        <ele>236.557694</ele>
        <time>2022-03-26T17:01:28.082Z</time>
      </trkpt>
      <trkpt lat="43.70387" lon="1.4772">
        <ele>236.842492</ele>
        <time>2022-03-26T17:01:30.089Z</time>
      </trkpt>
      <trkpt lat="43.70376" lon="1.47714">
        <ele>237.126185</ele>
        <time>2022-03-26T17:01:32.072Z</time>
      </trkpt>
      <trkpt lat="43.70366" lon="1.47709">
        <ele>237.40351</ele>
        <time>2022-03-26T17:01:34.073Z</time>
      </trkpt>
      <trkpt lat="43.70356" lon="1.47703">
        <ele>237.67018</ele>
        <time>2022-03-26T17:01:36.074Z</time>
      </trkpt>
      <trkpt lat="43.70346" lon="1.47699">
        <ele>237.942537</ele>
        <time>2022-03-26T17:01:38.087Z</time>
      </trkpt>
      <trkpt lat="43.70335" lon="1.47694">
        <ele>238.208708</ele>
        <time>2022-03-26T17:01:40.077Z</time>
      </trkpt>
      <trkpt lat="43.70325" lon="1.47689">
        <ele>238.481744</ele>
        <time>2022-03-26T17:01:42.076Z</time>
      </trkpt>
      <trkpt lat="43.70315" lon="1.47683">
        <ele>238.764111</ele>
        <time>2022-03-26T17:01:44.066Z</time>
      </trkpt>
      <trkpt lat="43.70304" lon="1.47677">
        <ele>238.859996</ele>
        <time>2022-03-26T17:01:46.077Z</time>
      </trkpt>
      <trkpt lat="43.70295" lon="1.47672">
        <ele>238.939029</ele>
        <time>2022-03-26T17:01:48.079Z</time>
      </trkpt>
      <trkpt lat="43.70285" lon="1.47666">
        <ele>239.024188</ele>
        <time>2022-03-26T17:01:50.080Z</time>
      </trkpt>
      <trkpt lat="43.70274" lon="1.47659">
        <ele>239.117358</ele>
        <time>2022-03-26T17:01:52.101Z</time>
      </trkpt>
      <trkpt lat="43.70264" lon="1.47652">
        <ele>239.209876</ele>
        <time>2022-03-26T17:01:54.075Z</time>
      </trkpt>
      <trkpt lat="43.70253" lon="1.47644">
        <ele>239.300837</ele>
        <time>2022-03-26T17:01:56.083Z</time>
      </trkpt>
      <trkpt lat="43.70243" lon="1.47636">
        <ele>239.396151</ele>
        <time>2022-03-26T17:01:58.076Z</time>
      </trkpt>
      <trkpt lat="43.70232" lon="1.47626">
        <ele>239.496795</ele>
        <time>2022-03-26T17:02:00.113Z</time>
      </trkpt>
      <trkpt lat="43.7022" lon="1.47616">
        <ele>239.606336</ele>
        <time>2022-03-26T17:02:02.081Z</time>
      </trkpt>
      <trkpt lat="43.70206" lon="1.47608">
        <ele>239.72026</ele>
        <time>2022-03-26T17:02:04.081Z</time>
      </trkpt>
      <trkpt lat="43.70191" lon="1.47604">
        <ele>239.843118</ele>
        <time>2022-03-26T17:02:06.074Z</time>
      </trkpt>
      <trkpt lat="43.70175" lon="1.47606">
        <ele>239.96942</ele>
        <time>2022-03-26T17:02:08.066Z</time>
      </trkpt>
      <trkpt lat="43.70162" lon="1.47613">
        <ele>240.078787</ele>
        <time>2022-03-26T17:02:10.076Z</time>
      </trkpt>
      <trkpt lat="43.7015" lon="1.47619">
        <ele>240.178945</ele>
        <time>2022-03-26T17:02:12.079Z</time>
      </trkpt>
      <trkpt lat="43.70139" lon="1.47624">
        <ele>240.365753</ele>
        <time>2022-03-26T17:02:14.075Z</time>
      </trkpt>
      <trkpt lat="43.70129" lon="1.47628">
        <ele>240.53775</ele>
        <time>2022-03-26T17:02:16.076Z</time>
      </trkpt>
      <trkpt lat="43.70117" lon="1.47628">
        <ele>240.738345</ele>
        <time>2022-03-26T17:02:18.075Z</time>
      </trkpt>
      <trkpt lat="43.70105" lon="1.47626">
        <ele>240.938266</ele>
        <time>2022-03-26T17:02:20.071Z</time>
      </trkpt>
      <trkpt lat="43.70093" lon="1.47623">
        <ele>241.13803</ele>
        <time>2022-03-26T17:02:22.074Z</time>
      </trkpt>
      <trkpt lat="43.70081" lon="1.47621">
        <ele>241.338349</ele>
        <time>2022-03-26T17:02:24.088Z</time>
      </trkpt>
      <trkpt lat="43.70069" lon="1.47618">
        <ele>241.539655</ele>
        <time>2022-03-26T17:02:26.080Z</time>
      </trkpt>
      <trkpt lat="43.70057" lon="1.47616">
        <ele>241.741349</ele>
        <time>2022-03-26T17:02:28.068Z</time>
      </trkpt>
      <trkpt lat="43.70045" lon="1.47616">
        <ele>241.943545</ele>
        <time>2022-03-26T17:02:30.075Z</time>
      </trkpt>
      <trkpt lat="43.70033" lon="1.47618">
        <ele>242.14148</ele>
        <time>2022-03-26T17:02:32.062Z</time>
      </trkpt>
      <trkpt lat="43.70021" lon="1.47622">
        <ele>242.340662</ele>
        <time>2022-03-26T17:02:34.083Z</time>
      </trkpt>
      <trkpt lat="43.7001" lon="1.47627">
        <ele>242.54042</ele>
        <time>2022-03-26T17:02:36.085Z</time>
      </trkpt>
      <trkpt lat="43.69999" lon="1.47635">
        <ele>242.737949</ele>
        <time>2022-03-26T17:02:38.069Z</time>
      </trkpt>
      <trkpt lat="43.6999" lon="1.47645">
        <ele>242.934279</ele>
        <time>2022-03-26T17:02:40.092Z</time>
      </trkpt>
      <trkpt lat="43.6998" lon="1.47655">
        <ele>243.132724</ele>
        <time>2022-03-26T17:02:42.064Z</time>
      </trkpt>
      <trkpt lat="43.69972" lon="1.47665">
        <ele>243.503595</ele>
        <time>2022-03-26T17:02:44.086Z</time>
      </trkpt>
      <trkpt lat="43.69963" lon="1.47675">
        <ele>243.915834</ele>
        <time>2022-03-26T17:02:46.070Z</time>
      </trkpt>
      <trkpt lat="43.69955" lon="1.47685">
        <ele>244.330384</ele>
        <time>2022-03-26T17:02:48.072Z</time>
      </trkpt>
      <trkpt lat="43.69947" lon="1.47695">
        <ele>244.733167</ele>
        <time>2022-03-26T17:02:50.075Z</time>
      </trkpt>
      <trkpt lat="43.69939" lon="1.47705">
        <ele>245.126845</ele>
        <time>2022-03-26T17:02:52.056Z</time>
      </trkpt>
      <trkpt lat="43.69931" lon="1.47716">
        <ele>245.547823</ele>
        <time>2022-03-26T17:02:54.069Z</time>
      </trkpt>
      <trkpt lat="43.69923" lon="1.47728">
        <ele>245.983659</ele>
        <time>2022-03-26T17:02:56.071Z</time>
      </trkpt>
      <trkpt lat="43.69915" lon="1.4774">
        <ele>246.43044</ele>
        <time>2022-03-26T17:02:58.071Z</time>
      </trkpt>
      <trkpt lat="43.69907" lon="1.47752">
        <ele>246.864378</ele>
        <time>2022-03-26T17:03:00.078Z</time>
      </trkpt>
      <trkpt lat="43.69899" lon="1.47762">
        <ele>247.253504</ele>
        <time>2022-03-26T17:03:02.082Z</time>
      </trkpt>
      <trkpt lat="43.69891" lon="1.47768">
        <ele>247.604737</ele>
        <time>2022-03-26T17:03:04.073Z</time>
      </trkpt>
      <trkpt lat="43.69882" lon="1.47774">
        <ele>247.954687</ele>
        <time>2022-03-26T17:03:06.080Z</time>
      </trkpt>
      <trkpt lat="43.69877" lon="1.47786">
        <ele>248.333507</ele>
        <time>2022-03-26T17:03:08.073Z</time>
      </trkpt>
      <trkpt lat="43.69869" lon="1.47795">
        <ele>248.721195</ele>
        <time>2022-03-26T17:03:10.087Z</time>
      </trkpt>
      <trkpt lat="43.69859" lon="1.478">
        <ele>249.112186</ele>
        <time>2022-03-26T17:03:12.070Z</time>
      </trkpt>
      <trkpt lat="43.69849" lon="1.47803">
        <ele>249.493813</ele>
        <time>2022-03-26T17:03:14.064Z</time>
      </trkpt>
      <trkpt lat="43.69838" lon="1.47807">
        <ele>249.91266</ele>
        <time>2022-03-26T17:03:16.069Z</time>
      </trkpt>
      <trkpt lat="43.69827" lon="1.47811">
        <ele>250.376086</ele>
        <time>2022-03-26T17:03:18.071Z</time>
      </trkpt>
      <trkpt lat="43.69815" lon="1.47815">
        <ele>250.829034</ele>
        <time>2022-03-26T17:03:20.064Z</time>
      </trkpt>
      <trkpt lat="43.69804" lon="1.4782">
        <ele>251.287547</ele>
        <time>2022-03-26T17:03:22.067Z</time>
      </trkpt>
      <trkpt lat="43.69793" lon="1.47825">
        <ele>251.746061</ele>
        <time>2022-03-26T17:03:24.076Z</time>
      </trkpt>
      <trkpt lat="43.69782" lon="1.47829">
        <ele>252.205127</ele>
        <time>2022-03-26T17:03:26.079Z</time>
      </trkpt>
      <trkpt lat="43.69771" lon="1.47832">
        <ele>252.6477</ele>
        <time>2022-03-26T17:03:28.072Z</time>
      </trkpt>
      <trkpt lat="43.6976" lon="1.47834">
        <ele>253.080394</ele>
        <time>2022-03-26T17:03:30.096Z</time>
      </trkpt>
      <trkpt lat="43.69749" lon="1.47836">
        <ele>253.513088</ele>
        <time>2022-03-26T17:03:32.074Z</time>
      </trkpt>
      <trkpt lat="43.69738" lon="1.47837">
        <ele>253.93888</ele>
        <time>2022-03-26T17:03:34.073Z</time>
      </trkpt>
      <trkpt lat="43.69726" lon="1.47836">
        <ele>254.400329</ele>
        <time>2022-03-26T17:03:36.071Z</time>
      </trkpt>
      <trkpt lat="43.69715" lon="1.47831">
        <ele>254.860909</ele>
        <time>2022-03-26T17:03:38.083Z</time>
      </trkpt>
      <trkpt lat="43.69705" lon="1.47824">
        <ele>255.290602</ele>
        <time>2022-03-26T17:03:40.087Z</time>
      </trkpt>
      <trkpt lat="43.69697" lon="1.47815">
        <ele>255.688305</ele>
        <time>2022-03-26T17:03:42.084Z</time>
      </trkpt>
      <trkpt lat="43.6969" lon="1.47806">
        <ele>256.066278</ele>
        <time>2022-03-26T17:03:44.072Z</time>
      </trkpt>
      <trkpt lat="43.69683" lon="1.47797">
        <ele>256.418526</ele>
        <time>2022-03-26T17:03:46.091Z</time>
      </trkpt>
      <trkpt lat="43.69673" lon="1.47786">
        <ele>256.814892</ele>
        <time>2022-03-26T17:03:49.075Z</time>
      </trkpt>
      <trkpt lat="43.69663" lon="1.47775">
        <ele>256.537236</ele>
        <time>2022-03-26T17:03:52.074Z</time>
      </trkpt>
      <trkpt lat="43.69655" lon="1.47763">
        <ele>256.295113</ele>
        <time>2022-03-26T17:03:55.076Z</time>
      </trkpt>
      <trkpt lat="43.69651" lon="1.47749">
        <ele>256.063493</ele>
        <time>2022-03-26T17:04:09.074Z</time>
      </trkpt>
      <trkpt lat="43.69647" lon="1.47736">
        <ele>255.845939</ele>
        <time>2022-03-26T17:04:12.073Z</time>
      </trkpt>
      <trkpt lat="43.69637" lon="1.47723">
        <ele>255.567219</ele>
        <time>2022-03-26T17:04:15.063Z</time>
      </trkpt>
      <trkpt lat="43.69633" lon="1.47712">
        <ele>255.369269</ele>
        <time>2022-03-26T17:04:17.086Z</time>
      </trkpt>
      <trkpt lat="43.69627" lon="1.47699">
        <ele>255.152556</ele>
        <time>2022-03-26T17:04:19.077Z</time>
      </trkpt>
      <trkpt lat="43.69622" lon="1.47686">
        <ele>254.912702</ele>
        <time>2022-03-26T17:04:21.093Z</time>
      </trkpt>
      <trkpt lat="43.69615" lon="1.47672">
        <ele>254.653282</ele>
        <time>2022-03-26T17:04:23.087Z</time>
      </trkpt>
      <trkpt lat="43.69608" lon="1.47657">
        <ele>254.383268</ele>
        <time>2022-03-26T17:04:25.079Z</time>
      </trkpt>
      <trkpt lat="43.69603" lon="1.47643">
        <ele>254.146461</ele>
        <time>2022-03-26T17:04:27.087Z</time>
      </trkpt>
      <trkpt lat="43.69598" lon="1.47629">
        <ele>253.909291</ele>
        <time>2022-03-26T17:04:29.071Z</time>
      </trkpt>
      <trkpt lat="43.69592" lon="1.47615">
        <ele>253.661084</ele>
        <time>2022-03-26T17:04:31.087Z</time>
      </trkpt>
      <trkpt lat="43.69587" lon="1.47599">
        <ele>253.405189</ele>
        <time>2022-03-26T17:04:33.093Z</time>
      </trkpt>
      <trkpt lat="43.69584" lon="1.47582">
        <ele>253.135213</ele>
        <time>2022-03-26T17:04:35.078Z</time>
      </trkpt>
      <trkpt lat="43.69582" lon="1.47564">
        <ele>252.574138</ele>
        <time>2022-03-26T17:04:37.066Z</time>
      </trkpt>
      <trkpt lat="43.69579" lon="1.47549">
        <ele>251.992126</ele>
        <time>2022-03-26T17:04:39.073Z</time>
      </trkpt>
      <trkpt lat="43.69572" lon="1.47536">
        <ele>251.382676</ele>
        <time>2022-03-26T17:04:41.060Z</time>
      </trkpt>
      <trkpt lat="43.69562" lon="1.47526">
        <ele>250.778367</ele>
        <time>2022-03-26T17:04:43.065Z</time>
      </trkpt>
      <trkpt lat="43.69553" lon="1.47517">
        <ele>250.208889</ele>
        <time>2022-03-26T17:04:45.068Z</time>
      </trkpt>
      <trkpt lat="43.69544" lon="1.47511">
        <ele>249.702875</ele>
        <time>2022-03-26T17:04:47.069Z</time>
      </trkpt>
      <trkpt lat="43.69536" lon="1.47516">
        <ele>249.215955</ele>
        <time>2022-03-26T17:04:49.082Z</time>
      </trkpt>
      <trkpt lat="43.69528" lon="1.4753">
        <ele>248.588816</ele>
        <time>2022-03-26T17:04:51.097Z</time>
      </trkpt>
      <trkpt lat="43.69521" lon="1.47543">
        <ele>248.018177</ele>
        <time>2022-03-26T17:04:53.070Z</time>
      </trkpt>
      <trkpt lat="43.69516" lon="1.47555">
        <ele>247.496217</ele>
        <time>2022-03-26T17:04:59.074Z</time>
      </trkpt>
      <trkpt lat="43.69508" lon="1.47567">
        <ele>246.871117</ele>
        <time>2022-03-26T17:05:02.076Z</time>
      </trkpt>
      <trkpt lat="43.69503" lon="1.47578">
        <ele>246.400417</ele>
        <time>2022-03-26T17:05:04.065Z</time>
      </trkpt>
      <trkpt lat="43.69498" lon="1.47591">
        <ele>245.880466</ele>
        <time>2022-03-26T17:05:06.072Z</time>
      </trkpt>
      <trkpt lat="43.69495" lon="1.47605">
        <ele>245.335</ele>
        <time>2022-03-26T17:05:08.062Z</time>
      </trkpt>
      <trkpt lat="43.69494" lon="1.4762">
        <ele>244.781547</ele>
        <time>2022-03-26T17:05:10.090Z</time>
      </trkpt>
      <trkpt lat="43.69491" lon="1.47636">
        <ele>244.175099</ele>
        <time>2022-03-26T17:05:12.067Z</time>
      </trkpt>
      <trkpt lat="43.69489" lon="1.47651">
        <ele>243.772681</ele>
        <time>2022-03-26T17:05:14.069Z</time>
      </trkpt>
      <trkpt lat="43.69487" lon="1.47667">
        <ele>243.448814</ele>
        <time>2022-03-26T17:05:16.076Z</time>
      </trkpt>
      <trkpt lat="43.69484" lon="1.47684">
        <ele>243.108698</ele>
        <time>2022-03-26T17:05:18.074Z</time>
      </trkpt>
      <trkpt lat="43.69476" lon="1.47698">
        <ele>242.774193</ele>
        <time>2022-03-26T17:05:20.078Z</time>
      </trkpt>
      <trkpt lat="43.69468" lon="1.47714">
        <ele>242.381023</ele>
        <time>2022-03-26T17:05:22.069Z</time>
      </trkpt>
      <trkpt lat="43.6946" lon="1.47731">
        <ele>241.974744</ele>
        <time>2022-03-26T17:05:24.070Z</time>
      </trkpt>
      <trkpt lat="43.69453" lon="1.47748">
        <ele>241.609746</ele>
        <time>2022-03-26T17:05:26.079Z</time>
      </trkpt>
      <trkpt lat="43.69449" lon="1.4776">
        <ele>241.334145</ele>
        <time>2022-03-26T17:05:28.076Z</time>
      </trkpt>
      <trkpt lat="43.69442" lon="1.47773">
        <ele>241.042473</ele>
        <time>2022-03-26T17:05:31.069Z</time>
      </trkpt>
      <trkpt lat="43.69429" lon="1.47777">
        <ele>240.686109</ele>
        <time>2022-03-26T17:05:34.079Z</time>
      </trkpt>
      <trkpt lat="43.69416" lon="1.47777">
        <ele>240.33165</ele>
        <time>2022-03-26T17:05:36.054Z</time>
      </trkpt>
      <trkpt lat="43.69403" lon="1.47776">
        <ele>239.974271</ele>
        <time>2022-03-26T17:05:38.058Z</time>
      </trkpt>
      <trkpt lat="43.69391" lon="1.47776">
        <ele>239.649243</ele>
        <time>2022-03-26T17:05:40.065Z</time>
      </trkpt>
      <trkpt lat="43.69379" lon="1.47776">
        <ele>239.327291</ele>
        <time>2022-03-26T17:05:42.068Z</time>
      </trkpt>
      <trkpt lat="43.69367" lon="1.47776">
        <ele>239.020779</ele>
        <time>2022-03-26T17:05:44.069Z</time>
      </trkpt>
      <trkpt lat="43.69355" lon="1.47778">
        <ele>238.799398</ele>
        <time>2022-03-26T17:05:46.062Z</time>
      </trkpt>
      <trkpt lat="43.69342" lon="1.47778">
        <ele>238.574915</ele>
        <time>2022-03-26T17:05:48.085Z</time>
      </trkpt>
      <trkpt lat="43.6933" lon="1.47778">
        <ele>238.352288</ele>
        <time>2022-03-26T17:05:50.085Z</time>
      </trkpt>
      <trkpt lat="43.69318" lon="1.47777">
        <ele>238.136077</ele>
        <time>2022-03-26T17:05:52.088Z</time>
      </trkpt>
      <trkpt lat="43.69307" lon="1.4777">
        <ele>237.915947</ele>
        <time>2022-03-26T17:05:54.081Z</time>
      </trkpt>
      <trkpt lat="43.69296" lon="1.47757">
        <ele>237.670265</ele>
        <time>2022-03-26T17:05:56.079Z</time>
      </trkpt>
      <trkpt lat="43.69286" lon="1.47744">
        <ele>237.416766</ele>
        <time>2022-03-26T17:05:58.069Z</time>
      </trkpt>
      <trkpt lat="43.69275" lon="1.47731">
        <ele>237.15971</ele>
        <time>2022-03-26T17:06:00.095Z</time>
      </trkpt>
      <trkpt lat="43.69264" lon="1.47721">
        <ele>236.92416</ele>
        <time>2022-03-26T17:06:02.082Z</time>
      </trkpt>
      <trkpt lat="43.69256" lon="1.47712">
        <ele>236.731172</ele>
        <time>2022-03-26T17:06:04.063Z</time>
      </trkpt>
      <trkpt lat="43.69246" lon="1.47702">
        <ele>236.51262</ele>
        <time>2022-03-26T17:06:07.074Z</time>
      </trkpt>
      <trkpt lat="43.69238" lon="1.47695">
        <ele>236.348681</ele>
        <time>2022-03-26T17:06:10.092Z</time>
      </trkpt>
      <trkpt lat="43.69229" lon="1.4769">
        <ele>236.179642</ele>
        <time>2022-03-26T17:06:13.069Z</time>
      </trkpt>
      <trkpt lat="43.6922" lon="1.47688">
        <ele>236.003566</ele>
        <time>2022-03-26T17:06:16.062Z</time>
      </trkpt>
      <trkpt lat="43.69212" lon="1.47676">
        <ele>235.720748</ele>
        <time>2022-03-26T17:06:19.066Z</time>
      </trkpt>
      <trkpt lat="43.69204" lon="1.47668">
        <ele>235.194402</ele>
        <time>2022-03-26T17:06:21.080Z</time>
      </trkpt>
      <trkpt lat="43.69194" lon="1.47659">
        <ele>234.562232</ele>
        <time>2022-03-26T17:06:23.084Z</time>
      </trkpt>
      <trkpt lat="43.69182" lon="1.4765">
        <ele>233.863347</ele>
        <time>2022-03-26T17:06:25.075Z</time>
      </trkpt>
      <trkpt lat="43.6917" lon="1.4764">
        <ele>233.128605</ele>
        <time>2022-03-26T17:06:27.096Z</time>
      </trkpt>
      <trkpt lat="43.69157" lon="1.47624">
        <ele>232.24304</ele>
        <time>2022-03-26T17:06:29.071Z</time>
      </trkpt>
      <trkpt lat="43.69151" lon="1.47614">
        <ele>231.743852</ele>
        <time>2022-03-26T17:06:30.077Z</time>
      </trkpt>
      <trkpt lat="43.69145" lon="1.47603">
        <ele>231.213163</ele>
        <time>2022-03-26T17:06:31.091Z</time>
      </trkpt>
      <trkpt lat="43.69139" lon="1.4759">
        <ele>230.653773</ele>
        <time>2022-03-26T17:06:32.095Z</time>
      </trkpt>
      <trkpt lat="43.69134" lon="1.47577">
        <ele>230.075611</ele>
        <time>2022-03-26T17:06:33.077Z</time>
      </trkpt>
      <trkpt lat="43.69129" lon="1.47562">
        <ele>229.474112</ele>
        <time>2022-03-26T17:06:34.084Z</time>
      </trkpt>
      <trkpt lat="43.69125" lon="1.47547">
        <ele>228.865194</ele>
        <time>2022-03-26T17:06:35.075Z</time>
      </trkpt>
      <trkpt lat="43.69122" lon="1.47531">
        <ele>228.257626</ele>
        <time>2022-03-26T17:06:36.101Z</time>
      </trkpt>
      <trkpt lat="43.69118" lon="1.47516">
        <ele>227.642263</ele>
        <time>2022-03-26T17:06:37.079Z</time>
      </trkpt>
      <trkpt lat="43.69115" lon="1.475">
        <ele>227.018771</ele>
        <time>2022-03-26T17:06:38.073Z</time>
      </trkpt>
      <trkpt lat="43.69111" lon="1.47485">
        <ele>226.395417</ele>
        <time>2022-03-26T17:06:39.073Z</time>
      </trkpt>
      <trkpt lat="43.69107" lon="1.47471">
        <ele>225.430136</ele>
        <time>2022-03-26T17:06:40.075Z</time>
      </trkpt>
      <trkpt lat="43.69102" lon="1.47457">
        <ele>224.469731</ele>
        <time>2022-03-26T17:06:41.072Z</time>
      </trkpt>
      <trkpt lat="43.69097" lon="1.47443">
        <ele>223.506274</ele>
        <time>2022-03-26T17:06:42.069Z</time>
      </trkpt>
      <trkpt lat="43.69092" lon="1.4743">
        <ele>222.576222</ele>
        <time>2022-03-26T17:06:43.067Z</time>
      </trkpt>
      <trkpt lat="43.69086" lon="1.47418">
        <ele>221.679466</ele>
        <time>2022-03-26T17:06:44.084Z</time>
      </trkpt>
      <trkpt lat="43.69079" lon="1.47407">
        <ele>220.776937</ele>
        <time>2022-03-26T17:06:45.079Z</time>
      </trkpt>
      <trkpt lat="43.69073" lon="1.47396">
        <ele>219.908161</ele>
        <time>2022-03-26T17:06:46.084Z</time>
      </trkpt>
      <trkpt lat="43.69066" lon="1.47387">
        <ele>219.113668</ele>
        <time>2022-03-26T17:06:47.070Z</time>
      </trkpt>
      <trkpt lat="43.6906" lon="1.47376">
        <ele>218.219549</ele>
        <time>2022-03-26T17:06:49.064Z</time>
      </trkpt>
      <trkpt lat="43.69051" lon="1.47366">
        <ele>217.257342</ele>
        <time>2022-03-26T17:06:56.059Z</time>
      </trkpt>
      <trkpt lat="43.69047" lon="1.47353">
        <ele>216.36423</ele>
        <time>2022-03-26T17:06:59.074Z</time>
      </trkpt>
      <trkpt lat="43.69043" lon="1.47341">
        <ele>215.54066</ele>
        <time>2022-03-26T17:07:02.069Z</time>
      </trkpt>
      <trkpt lat="43.69039" lon="1.4733">
        <ele>214.754625</ele>
        <time>2022-03-26T17:07:06.057Z</time>
      </trkpt>
      <trkpt lat="43.69034" lon="1.47318">
        <ele>213.934521</ele>
        <time>2022-03-26T17:07:11.081Z</time>
      </trkpt>
      <trkpt lat="43.69029" lon="1.47306">
        <ele>213.048759</ele>
        <time>2022-03-26T17:07:17.074Z</time>
      </trkpt>
      <trkpt lat="43.6902" lon="1.47301">
        <ele>212.194277</ele>
        <time>2022-03-26T17:07:21.085Z</time>
      </trkpt>
      <trkpt lat="43.6901" lon="1.47307">
        <ele>211.291085</ele>
        <time>2022-03-26T17:07:25.089Z</time>
      </trkpt>
      <trkpt lat="43.69003" lon="1.47317">
        <ele>211.448177</ele>
        <time>2022-03-26T17:07:28.096Z</time>
      </trkpt>
      <trkpt lat="43.68996" lon="1.4733">
        <ele>212.101475</ele>
        <time>2022-03-26T17:07:31.076Z</time>
      </trkpt>
      <trkpt lat="43.68988" lon="1.47346">
        <ele>212.883153</ele>
        <time>2022-03-26T17:07:34.067Z</time>
      </trkpt>
      <trkpt lat="43.68982" lon="1.47355">
        <ele>213.42366</ele>
        <time>2022-03-26T17:07:36.062Z</time>
      </trkpt>
      <trkpt lat="43.68976" lon="1.47367">
        <ele>214.013618</ele>
        <time>2022-03-26T17:07:38.085Z</time>
      </trkpt>
      <trkpt lat="43.6897" lon="1.47379">
        <ele>214.640103</ele>
        <time>2022-03-26T17:07:40.064Z</time>
      </trkpt>
      <trkpt lat="43.68964" lon="1.47392">
        <ele>215.263122</ele>
        <time>2022-03-26T17:07:42.076Z</time>
      </trkpt>
      <trkpt lat="43.68957" lon="1.47407">
        <ele>215.998399</ele>
        <time>2022-03-26T17:07:45.086Z</time>
      </trkpt>
      <trkpt lat="43.68951" lon="1.47417">
        <ele>216.53202</ele>
        <time>2022-03-26T17:07:50.077Z</time>
      </trkpt>
      <trkpt lat="43.68946" lon="1.47431">
        <ele>217.201438</ele>
        <time>2022-03-26T17:07:58.077Z</time>
      </trkpt>
      <trkpt lat="43.68937" lon="1.47425">
        <ele>217.784372</ele>
        <time>2022-03-26T17:08:03.068Z</time>
      </trkpt>
      <trkpt lat="43.68929" lon="1.4741">
        <ele>218.542054</ele>
        <time>2022-03-26T17:08:06.067Z</time>
      </trkpt>
      <trkpt lat="43.6892" lon="1.47401">
        <ele>219.171461</ele>
        <time>2022-03-26T17:08:08.086Z</time>
      </trkpt>
      <trkpt lat="43.68912" lon="1.47393">
        <ele>219.76542</ele>
        <time>2022-03-26T17:08:10.081Z</time>
      </trkpt>
      <trkpt lat="43.68907" lon="1.47381">
        <ele>220.330193</ele>
        <time>2022-03-26T17:08:12.083Z</time>
      </trkpt>
      <trkpt lat="43.68907" lon="1.47364">
        <ele>221.011812</ele>
        <time>2022-03-26T17:08:14.078Z</time>
      </trkpt>
      <trkpt lat="43.68911" lon="1.47347">
        <ele>221.425859</ele>
        <time>2022-03-26T17:08:16.074Z</time>
      </trkpt>
      <trkpt lat="43.68918" lon="1.47332">
        <ele>221.559773</ele>
        <time>2022-03-26T17:08:18.082Z</time>
      </trkpt>
      <trkpt lat="43.68925" lon="1.47316">
        <ele>221.694011</ele>
        <time>2022-03-26T17:08:20.075Z</time>
      </trkpt>
      <trkpt lat="43.68932" lon="1.47301">
        <ele>221.824112</ele>
        <time>2022-03-26T17:08:22.107Z</time>
      </trkpt>
      <trkpt lat="43.68939" lon="1.47285">
        <ele>221.954631</ele>
        <time>2022-03-26T17:08:24.071Z</time>
      </trkpt>
      <trkpt lat="43.68943" lon="1.47268">
        <ele>222.084917</ele>
        <time>2022-03-26T17:08:26.087Z</time>
      </trkpt>
      <trkpt lat="43.68941" lon="1.47248">
        <ele>222.229127</ele>
        <time>2022-03-26T17:08:28.087Z</time>
      </trkpt>
      <trkpt lat="43.68932" lon="1.47231">
        <ele>222.381514</ele>
        <time>2022-03-26T17:08:30.076Z</time>
      </trkpt>
      <trkpt lat="43.68921" lon="1.47217">
        <ele>222.528752</ele>
        <time>2022-03-26T17:08:32.072Z</time>
      </trkpt>
      <trkpt lat="43.68909" lon="1.47204">
        <ele>222.679889</ele>
        <time>2022-03-26T17:08:34.078Z</time>
      </trkpt>
      <trkpt lat="43.68896" lon="1.47191">
        <ele>222.845422</ele>
        <time>2022-03-26T17:08:36.074Z</time>
      </trkpt>
      <trkpt lat="43.68882" lon="1.47175">
        <ele>223.027039</ele>
        <time>2022-03-26T17:08:38.071Z</time>
      </trkpt>
      <trkpt lat="43.68875" lon="1.47166">
        <ele>223.124713</ele>
        <time>2022-03-26T17:08:39.073Z</time>
      </trkpt>
      <trkpt lat="43.68867" lon="1.47157">
        <ele>223.359838</ele>
        <time>2022-03-26T17:08:40.073Z</time>
      </trkpt>
      <trkpt lat="43.6886" lon="1.47149">
        <ele>223.646434</ele>
        <time>2022-03-26T17:08:41.077Z</time>
      </trkpt>
      <trkpt lat="43.68853" lon="1.4714">
        <ele>223.92255</ele>
        <time>2022-03-26T17:08:42.077Z</time>
      </trkpt>
      <trkpt lat="43.6884" lon="1.47127">
        <ele>224.389404</ele>
        <time>2022-03-26T17:08:44.070Z</time>
      </trkpt>
      <trkpt lat="43.68831" lon="1.47117">
        <ele>224.746406</ele>
        <time>2022-03-26T17:08:46.067Z</time>
      </trkpt>
      <trkpt lat="43.68824" lon="1.47108">
        <ele>225.017452</ele>
        <time>2022-03-26T17:08:48.071Z</time>
      </trkpt>
      <trkpt lat="43.68817" lon="1.47095">
        <ele>225.389358</ele>
        <time>2022-03-26T17:08:51.072Z</time>
      </trkpt>
      <trkpt lat="43.6881" lon="1.47083">
        <ele>225.705337</ele>
        <time>2022-03-26T17:08:53.064Z</time>
      </trkpt>
      <trkpt lat="43.68802" lon="1.4707">
        <ele>226.067778</ele>
        <time>2022-03-26T17:08:55.067Z</time>
      </trkpt>
      <trkpt lat="43.68793" lon="1.47059">
        <ele>226.421182</ele>
        <time>2022-03-26T17:08:57.071Z</time>
      </trkpt>
      <trkpt lat="43.68784" lon="1.47049">
        <ele>226.77348</ele>
        <time>2022-03-26T17:08:59.094Z</time>
      </trkpt>
      <trkpt lat="43.68774" lon="1.47041">
        <ele>227.12179</ele>
        <time>2022-03-26T17:09:01.077Z</time>
      </trkpt>
      <trkpt lat="43.68764" lon="1.47034">
        <ele>227.463708</ele>
        <time>2022-03-26T17:09:03.090Z</time>
      </trkpt>
      <trkpt lat="43.68753" lon="1.47033">
        <ele>227.774457</ele>
        <time>2022-03-26T17:09:05.080Z</time>
      </trkpt>
      <trkpt lat="43.68745" lon="1.4704">
        <ele>228.080863</ele>
        <time>2022-03-26T17:09:07.088Z</time>
      </trkpt>
      <trkpt lat="43.68739" lon="1.47053">
        <ele>228.410982</ele>
        <time>2022-03-26T17:09:09.076Z</time>
      </trkpt>
      <trkpt lat="43.68732" lon="1.47066">
        <ele>228.947443</ele>
        <time>2022-03-26T17:09:11.074Z</time>
      </trkpt>
      <trkpt lat="43.68725" lon="1.47078">
        <ele>229.574364</ele>
        <time>2022-03-26T17:09:13.099Z</time>
      </trkpt>
      <trkpt lat="43.68719" lon="1.4709">
        <ele>230.181784</ele>
        <time>2022-03-26T17:09:15.084Z</time>
      </trkpt>
      <trkpt lat="43.68711" lon="1.47099">
        <ele>230.751484</ele>
        <time>2022-03-26T17:09:17.083Z</time>
      </trkpt>
      <trkpt lat="43.68701" lon="1.47102">
        <ele>231.323709</ele>
        <time>2022-03-26T17:09:19.065Z</time>
      </trkpt>
      <trkpt lat="43.68691" lon="1.47097">
        <ele>231.932802</ele>
        <time>2022-03-26T17:09:21.078Z</time>
      </trkpt>
      <trkpt lat="43.68682" lon="1.47086">
        <ele>232.601804</ele>
        <time>2022-03-26T17:09:23.069Z</time>
      </trkpt>
      <trkpt lat="43.68674" lon="1.47073">
        <ele>233.296563</ele>
        <time>2022-03-26T17:09:25.088Z</time>
      </trkpt>
      <trkpt lat="43.68666" lon="1.47061">
        <ele>233.977337</ele>
        <time>2022-03-26T17:09:27.076Z</time>
      </trkpt>
      <trkpt lat="43.68657" lon="1.4705">
        <ele>234.649121</ele>
        <time>2022-03-26T17:09:29.083Z</time>
      </trkpt>
      <trkpt lat="43.68648" lon="1.47039">
        <ele>235.30714</ele>
        <time>2022-03-26T17:09:31.087Z</time>
      </trkpt>
      <trkpt lat="43.6864" lon="1.47028">
        <ele>235.940431</ele>
        <time>2022-03-26T17:09:33.077Z</time>
      </trkpt>
      <trkpt lat="43.68632" lon="1.47017">
        <ele>236.572533</ele>
        <time>2022-03-26T17:09:35.090Z</time>
      </trkpt>
      <trkpt lat="43.68624" lon="1.47007">
        <ele>237.218087</ele>
        <time>2022-03-26T17:09:37.095Z</time>
      </trkpt>
      <trkpt lat="43.68615" lon="1.46996">
        <ele>237.87331</ele>
        <time>2022-03-26T17:09:39.067Z</time>
      </trkpt>
      <trkpt lat="43.68607" lon="1.46984">
        <ele>238.530639</ele>
        <time>2022-03-26T17:09:41.083Z</time>
      </trkpt>
      <trkpt lat="43.686" lon="1.46972">
        <ele>238.691591</ele>
        <time>2022-03-26T17:09:43.085Z</time>
      </trkpt>
      <trkpt lat="43.68591" lon="1.46961">
        <ele>238.755241</ele>
        <time>2022-03-26T17:09:45.082Z</time>
      </trkpt>
      <trkpt lat="43.68583" lon="1.46951">
        <ele>238.818801</ele>
        <time>2022-03-26T17:09:47.074Z</time>
      </trkpt>
      <trkpt lat="43.68574" lon="1.46941">
        <ele>238.882444</ele>
        <time>2022-03-26T17:09:49.071Z</time>
      </trkpt>
      <trkpt lat="43.68565" lon="1.46931">
        <ele>238.943464</ele>
        <time>2022-03-26T17:09:51.090Z</time>
      </trkpt>
      <trkpt lat="43.68557" lon="1.4692">
        <ele>239.004738</ele>
        <time>2022-03-26T17:09:53.074Z</time>
      </trkpt>
      <trkpt lat="43.68554" lon="1.46905">
        <ele>239.065919</ele>
        <time>2022-03-26T17:09:55.097Z</time>
      </trkpt>
      <trkpt lat="43.68557" lon="1.46887">
        <ele>239.139142</ele>
        <time>2022-03-26T17:09:57.086Z</time>
      </trkpt>
      <trkpt lat="43.68556" lon="1.46865">
        <ele>239.226093</ele>
        <time>2022-03-26T17:09:59.078Z</time>
      </trkpt>
      <trkpt lat="43.68548" lon="1.46846">
        <ele>239.311743</ele>
        <time>2022-03-26T17:10:01.081Z</time>
      </trkpt>
      <trkpt lat="43.68538" lon="1.4683">
        <ele>239.397529</ele>
        <time>2022-03-26T17:10:03.078Z</time>
      </trkpt>
      <trkpt lat="43.68529" lon="1.46815">
        <ele>239.472954</ele>
        <time>2022-03-26T17:10:05.081Z</time>
      </trkpt>
      <trkpt lat="43.6852" lon="1.46804">
        <ele>239.540825</ele>
        <time>2022-03-26T17:10:07.064Z</time>
      </trkpt>
      <trkpt lat="43.68508" lon="1.46797">
        <ele>239.60904</ele>
        <time>2022-03-26T17:10:09.068Z</time>
      </trkpt>
      <trkpt lat="43.68495" lon="1.46797">
        <ele>239.441122</ele>
        <time>2022-03-26T17:10:11.071Z</time>
      </trkpt>
      <trkpt lat="43.68482" lon="1.46799">
        <ele>239.19288</ele>
        <time>2022-03-26T17:10:13.074Z</time>
      </trkpt>
      <trkpt lat="43.68471" lon="1.46805">
        <ele>238.953696</ele>
        <time>2022-03-26T17:10:15.110Z</time>
      </trkpt>
      <trkpt lat="43.68461" lon="1.46815">
        <ele>238.724925</ele>
        <time>2022-03-26T17:10:17.092Z</time>
      </trkpt>
      <trkpt lat="43.68453" lon="1.46826">
        <ele>238.502687</ele>
        <time>2022-03-26T17:10:19.070Z</time>
      </trkpt>
      <trkpt lat="43.68446" lon="1.46838">
        <ele>238.285917</ele>
        <time>2022-03-26T17:10:21.095Z</time>
      </trkpt>
      <trkpt lat="43.68438" lon="1.46849">
        <ele>238.083278</ele>
        <time>2022-03-26T17:10:23.088Z</time>
      </trkpt>
      <trkpt lat="43.68432" lon="1.46859">
        <ele>237.897622</ele>
        <time>2022-03-26T17:10:25.091Z</time>
      </trkpt>
      <trkpt lat="43.68423" lon="1.46866">
        <ele>237.704352</ele>
        <time>2022-03-26T17:10:28.063Z</time>
      </trkpt>
      <trkpt lat="43.68416" lon="1.46853">
        <ele>237.470154</ele>
        <time>2022-03-26T17:10:31.056Z</time>
      </trkpt>
      <trkpt lat="43.68409" lon="1.46842">
        <ele>237.265731</ele>
        <time>2022-03-26T17:10:33.076Z</time>
      </trkpt>
      <trkpt lat="43.68399" lon="1.46829">
        <ele>237.013774</ele>
        <time>2022-03-26T17:10:35.078Z</time>
      </trkpt>
      <trkpt lat="43.68389" lon="1.46816">
        <ele>236.74308</ele>
        <time>2022-03-26T17:10:37.098Z</time>
      </trkpt>
      <trkpt lat="43.68379" lon="1.468">
        <ele>236.447887</ele>
        <time>2022-03-26T17:10:39.082Z</time>
      </trkpt>
      <trkpt lat="43.68366" lon="1.46783">
        <ele>235.987527</ele>
        <time>2022-03-26T17:10:41.078Z</time>
      </trkpt>
      <trkpt lat="43.6836" lon="1.46774">
        <ele>235.479928</ele>
        <time>2022-03-26T17:10:42.102Z</time>
      </trkpt>
      <trkpt lat="43.68353" lon="1.46765">
        <ele>234.958791</ele>
        <time>2022-03-26T17:10:43.071Z</time>
      </trkpt>
      <trkpt lat="43.68347" lon="1.46755">
        <ele>234.435771</ele>
        <time>2022-03-26T17:10:44.071Z</time>
      </trkpt>
      <trkpt lat="43.6834" lon="1.46745">
        <ele>233.903967</ele>
        <time>2022-03-26T17:10:45.070Z</time>
      </trkpt>
      <trkpt lat="43.68334" lon="1.46736">
        <ele>233.397353</ele>
        <time>2022-03-26T17:10:46.073Z</time>
      </trkpt>
      <trkpt lat="43.68328" lon="1.46727">
        <ele>232.885838</ele>
        <time>2022-03-26T17:10:47.090Z</time>
      </trkpt>
      <trkpt lat="43.68315" lon="1.4671">
        <ele>231.908047</ele>
        <time>2022-03-26T17:10:49.071Z</time>
      </trkpt>
      <trkpt lat="43.68302" lon="1.46694">
        <ele>230.937577</ele>
        <time>2022-03-26T17:10:51.077Z</time>
      </trkpt>
      <trkpt lat="43.68291" lon="1.46681">
        <ele>230.119702</ele>
        <time>2022-03-26T17:10:53.063Z</time>
      </trkpt>
      <trkpt lat="43.68288" lon="1.46665">
        <ele>229.465216</ele>
        <time>2022-03-26T17:10:55.079Z</time>
      </trkpt>
      <trkpt lat="43.68292" lon="1.46647">
        <ele>228.687584</ele>
        <time>2022-03-26T17:10:57.076Z</time>
      </trkpt>
      <trkpt lat="43.68298" lon="1.46628">
        <ele>227.884076</ele>
        <time>2022-03-26T17:10:59.084Z</time>
      </trkpt>
      <trkpt lat="43.68304" lon="1.46609">
        <ele>227.051003</ele>
        <time>2022-03-26T17:11:01.074Z</time>
      </trkpt>
      <trkpt lat="43.68311" lon="1.4659">
        <ele>226.200921</ele>
        <time>2022-03-26T17:11:03.074Z</time>
      </trkpt>
      <trkpt lat="43.68318" lon="1.46571">
        <ele>224.94188</ele>
        <time>2022-03-26T17:11:05.087Z</time>
      </trkpt>
      <trkpt lat="43.68327" lon="1.46551">
        <ele>223.584095</ele>
        <time>2022-03-26T17:11:07.095Z</time>
      </trkpt>
      <trkpt lat="43.68338" lon="1.46531">
        <ele>222.128831</ele>
        <time>2022-03-26T17:11:09.065Z</time>
      </trkpt>
      <trkpt lat="43.68343" lon="1.46521">
        <ele>221.374975</ele>
        <time>2022-03-26T17:11:10.095Z</time>
      </trkpt>
      <trkpt lat="43.68349" lon="1.46511">
        <ele>220.640241</ele>
        <time>2022-03-26T17:11:11.065Z</time>
      </trkpt>
      <trkpt lat="43.68357" lon="1.46493">
        <ele>219.368298</ele>
        <time>2022-03-26T17:11:13.090Z</time>
      </trkpt>
      <trkpt lat="43.68357" lon="1.46477">
        <ele>218.436725</ele>
        <time>2022-03-26T17:11:15.082Z</time>
      </trkpt>
      <trkpt lat="43.68344" lon="1.46467">
        <ele>217.256019</ele>
        <time>2022-03-26T17:11:17.060Z</time>
      </trkpt>
      <trkpt lat="43.68329" lon="1.46459">
        <ele>215.99093</ele>
        <time>2022-03-26T17:11:19.076Z</time>
      </trkpt>
      <trkpt lat="43.68312" lon="1.4645">
        <ele>214.497441</ele>
        <time>2022-03-26T17:11:21.085Z</time>
      </trkpt>
      <trkpt lat="43.68303" lon="1.46445">
        <ele>213.667861</ele>
        <time>2022-03-26T17:11:22.070Z</time>
      </trkpt>
      <trkpt lat="43.68292" lon="1.4644">
        <ele>212.771532</ele>
        <time>2022-03-26T17:11:23.106Z</time>
      </trkpt>
      <trkpt lat="43.68281" lon="1.46434">
        <ele>211.832465</ele>
        <time>2022-03-26T17:11:24.087Z</time>
      </trkpt>
      <trkpt lat="43.6827" lon="1.46428">
        <ele>210.956625</ele>
        <time>2022-03-26T17:11:25.073Z</time>
      </trkpt>
      <trkpt lat="43.68258" lon="1.46423">
        <ele>210.128348</ele>
        <time>2022-03-26T17:11:26.080Z</time>
      </trkpt>
      <trkpt lat="43.68247" lon="1.46419">
        <ele>209.335983</ele>
        <time>2022-03-26T17:11:27.079Z</time>
      </trkpt>
      <trkpt lat="43.68236" lon="1.46414">
        <ele>208.56707</ele>
        <time>2022-03-26T17:11:28.075Z</time>
      </trkpt>
      <trkpt lat="43.68227" lon="1.46409">
        <ele>207.893222</ele>
        <time>2022-03-26T17:11:29.070Z</time>
      </trkpt>
      <trkpt lat="43.68212" lon="1.46398">
        <ele>206.726019</ele>
        <time>2022-03-26T17:11:31.089Z</time>
      </trkpt>
      <trkpt lat="43.682" lon="1.46389">
        <ele>205.796639</ele>
        <time>2022-03-26T17:11:33.080Z</time>
      </trkpt>
      <trkpt lat="43.68191" lon="1.46382">
        <ele>205.068615</ele>
        <time>2022-03-26T17:11:35.079Z</time>
      </trkpt>
      <trkpt lat="43.68189" lon="1.46367">
        <ele>204.352335</ele>
        <time>2022-03-26T17:11:38.074Z</time>
      </trkpt>
      <trkpt lat="43.68197" lon="1.46357">
        <ele>203.610545</ele>
        <time>2022-03-26T17:11:40.061Z</time>
      </trkpt>
      <trkpt lat="43.68208" lon="1.46344">
        <ele>202.639974</ele>
        <time>2022-03-26T17:11:42.080Z</time>
      </trkpt>
      <trkpt lat="43.68219" lon="1.46331">
        <ele>201.645908</ele>
        <time>2022-03-26T17:11:44.078Z</time>
      </trkpt>
      <trkpt lat="43.68229" lon="1.46315">
        <ele>200.629249</ele>
        <time>2022-03-26T17:11:46.073Z</time>
      </trkpt>
      <trkpt lat="43.68238" lon="1.46299">
        <ele>199.590387</ele>
        <time>2022-03-26T17:11:48.076Z</time>
      </trkpt>
      <trkpt lat="43.68246" lon="1.46281">
        <ele>199.047845</ele>
        <time>2022-03-26T17:11:50.078Z</time>
      </trkpt>
      <trkpt lat="43.68253" lon="1.46264">
        <ele>198.663479</ele>
        <time>2022-03-26T17:11:52.075Z</time>
      </trkpt>
      <trkpt lat="43.68258" lon="1.46246">
        <ele>198.284904</ele>
        <time>2022-03-26T17:11:54.072Z</time>
      </trkpt>
      <trkpt lat="43.68262" lon="1.46228">
        <ele>197.918315</ele>
        <time>2022-03-26T17:11:56.079Z</time>
      </trkpt>
      <trkpt lat="43.68267" lon="1.46211">
        <ele>197.558323</ele>
        <time>2022-03-26T17:11:58.072Z</time>
      </trkpt>
      <trkpt lat="43.68272" lon="1.46195">
        <ele>197.204125</ele>
        <time>2022-03-26T17:12:00.077Z</time>
      </trkpt>
      <trkpt lat="43.68277" lon="1.46179">
        <ele>196.858962</ele>
        <time>2022-03-26T17:12:02.071Z</time>
      </trkpt>
      <trkpt lat="43.68282" lon="1.46165">
        <ele>196.545772</ele>
        <time>2022-03-26T17:12:04.073Z</time>
      </trkpt>
      <trkpt lat="43.68284" lon="1.46151">
        <ele>196.264378</ele>
        <time>2022-03-26T17:12:06.075Z</time>
      </trkpt>
      <trkpt lat="43.68285" lon="1.46137">
        <ele>195.988744</ele>
        <time>2022-03-26T17:12:08.080Z</time>
      </trkpt>
      <trkpt lat="43.68285" lon="1.46122">
        <ele>195.699753</ele>
        <time>2022-03-26T17:12:10.091Z</time>
      </trkpt>
      <trkpt lat="43.68284" lon="1.46105">
        <ele>195.347564</ele>
        <time>2022-03-26T17:12:12.089Z</time>
      </trkpt>
      <trkpt lat="43.68283" lon="1.46085">
        <ele>194.951364</ele>
        <time>2022-03-26T17:12:14.073Z</time>
      </trkpt>
      <trkpt lat="43.68281" lon="1.46063">
        <ele>194.527498</ele>
        <time>2022-03-26T17:12:16.071Z</time>
      </trkpt>
      <trkpt lat="43.68278" lon="1.4604">
        <ele>193.849219</ele>
        <time>2022-03-26T17:12:18.087Z</time>
      </trkpt>
      <trkpt lat="43.68275" lon="1.46028">
        <ele>193.470819</ele>
        <time>2022-03-26T17:12:19.067Z</time>
      </trkpt>
      <trkpt lat="43.68271" lon="1.46016">
        <ele>193.072517</ele>
        <time>2022-03-26T17:12:20.087Z</time>
      </trkpt>
      <trkpt lat="43.68268" lon="1.46003">
        <ele>192.665869</ele>
        <time>2022-03-26T17:12:21.079Z</time>
      </trkpt>
      <trkpt lat="43.68266" lon="1.4599">
        <ele>192.251776</ele>
        <time>2022-03-26T17:12:22.069Z</time>
      </trkpt>
      <trkpt lat="43.68264" lon="1.45976">
        <ele>191.83783</ele>
        <time>2022-03-26T17:12:23.078Z</time>
      </trkpt>
      <trkpt lat="43.68264" lon="1.45963">
        <ele>191.427929</ele>
        <time>2022-03-26T17:12:24.077Z</time>
      </trkpt>
      <trkpt lat="43.68265" lon="1.45949">
        <ele>191.023603</ele>
        <time>2022-03-26T17:12:25.080Z</time>
      </trkpt>
      <trkpt lat="43.68266" lon="1.45936">
        <ele>190.633508</ele>
        <time>2022-03-26T17:12:26.075Z</time>
      </trkpt>
      <trkpt lat="43.68269" lon="1.45918">
        <ele>190.05298</ele>
        <time>2022-03-26T17:12:28.078Z</time>
      </trkpt>
      <trkpt lat="43.68271" lon="1.45902">
        <ele>189.590396</ele>
        <time>2022-03-26T17:12:31.070Z</time>
      </trkpt>
      <trkpt lat="43.6827" lon="1.45889">
        <ele>189.178468</ele>
        <time>2022-03-26T17:12:36.059Z</time>
      </trkpt>
      <trkpt lat="43.68269" lon="1.45874">
        <ele>188.732006</ele>
        <time>2022-03-26T17:12:39.074Z</time>
      </trkpt>
      <trkpt lat="43.6827" lon="1.45859">
        <ele>188.26464</ele>
        <time>2022-03-26T17:12:42.104Z</time>
      </trkpt>
      <trkpt lat="43.68271" lon="1.45839">
        <ele>187.685707</ele>
        <time>2022-03-26T17:12:45.089Z</time>
      </trkpt>
      <trkpt lat="43.68272" lon="1.45824">
        <ele>187.215009</ele>
        <time>2022-03-26T17:12:47.073Z</time>
      </trkpt>
      <trkpt lat="43.68274" lon="1.45806">
        <ele>186.827212</ele>
        <time>2022-03-26T17:12:49.072Z</time>
      </trkpt>
      <trkpt lat="43.68275" lon="1.45788">
        <ele>186.557781</ele>
        <time>2022-03-26T17:12:51.081Z</time>
      </trkpt>
      <trkpt lat="43.68275" lon="1.45769">
        <ele>186.289922</ele>
        <time>2022-03-26T17:12:53.077Z</time>
      </trkpt>
      <trkpt lat="43.68277" lon="1.45751">
        <ele>186.031426</ele>
        <time>2022-03-26T17:12:55.076Z</time>
      </trkpt>
      <trkpt lat="43.68278" lon="1.45733">
        <ele>185.766561</ele>
        <time>2022-03-26T17:12:57.085Z</time>
      </trkpt>
      <trkpt lat="43.68279" lon="1.45713">
        <ele>185.472623</ele>
        <time>2022-03-26T17:12:59.075Z</time>
      </trkpt>
      <trkpt lat="43.68281" lon="1.45692">
        <ele>185.172637</ele>
        <time>2022-03-26T17:13:01.080Z</time>
      </trkpt>
      <trkpt lat="43.6828" lon="1.45671">
        <ele>184.867784</ele>
        <time>2022-03-26T17:13:03.076Z</time>
      </trkpt>
      <trkpt lat="43.68279" lon="1.4565">
        <ele>184.574773</ele>
        <time>2022-03-26T17:13:05.079Z</time>
      </trkpt>
      <trkpt lat="43.68276" lon="1.45631">
        <ele>184.288797</ele>
        <time>2022-03-26T17:13:07.077Z</time>
      </trkpt>
      <trkpt lat="43.68273" lon="1.45611">
        <ele>184.001034</ele>
        <time>2022-03-26T17:13:09.070Z</time>
      </trkpt>
      <trkpt lat="43.68269" lon="1.45592">
        <ele>183.711431</ele>
        <time>2022-03-26T17:13:11.091Z</time>
      </trkpt>
      <trkpt lat="43.68265" lon="1.45573">
        <ele>183.431226</ele>
        <time>2022-03-26T17:13:13.073Z</time>
      </trkpt>
      <trkpt lat="43.68261" lon="1.45555">
        <ele>183.271298</ele>
        <time>2022-03-26T17:13:15.084Z</time>
      </trkpt>
      <trkpt lat="43.68257" lon="1.45537">
        <ele>183.135208</ele>
        <time>2022-03-26T17:13:17.085Z</time>
      </trkpt>
      <trkpt lat="43.68252" lon="1.45519">
        <ele>183.000114</ele>
        <time>2022-03-26T17:13:19.088Z</time>
      </trkpt>
      <trkpt lat="43.68246" lon="1.45501">
        <ele>182.85993</ele>
        <time>2022-03-26T17:13:21.081Z</time>
      </trkpt>
      <trkpt lat="43.68241" lon="1.45482">
        <ele>182.713927</ele>
        <time>2022-03-26T17:13:23.093Z</time>
      </trkpt>
      <trkpt lat="43.68235" lon="1.45463">
        <ele>182.570795</ele>
        <time>2022-03-26T17:13:25.092Z</time>
      </trkpt>
      <trkpt lat="43.68229" lon="1.45445">
        <ele>182.427012</ele>
        <time>2022-03-26T17:13:27.079Z</time>
      </trkpt>
      <trkpt lat="43.68223" lon="1.45427">
        <ele>182.286475</ele>
        <time>2022-03-26T17:13:29.079Z</time>
      </trkpt>
      <trkpt lat="43.6822" lon="1.45409">
        <ele>182.158554</ele>
        <time>2022-03-26T17:13:31.075Z</time>
      </trkpt>
      <trkpt lat="43.68216" lon="1.45392">
        <ele>182.030806</ele>
        <time>2022-03-26T17:13:33.071Z</time>
      </trkpt>
      <trkpt lat="43.68211" lon="1.45375">
        <ele>181.898115</ele>
        <time>2022-03-26T17:13:35.078Z</time>
      </trkpt>
      <trkpt lat="43.68206" lon="1.45358">
        <ele>181.769714</ele>
        <time>2022-03-26T17:13:37.081Z</time>
      </trkpt>
      <trkpt lat="43.68202" lon="1.45341">
        <ele>181.641908</ele>
        <time>2022-03-26T17:13:39.081Z</time>
      </trkpt>
      <trkpt lat="43.68198" lon="1.45323">
        <ele>181.53356</ele>
        <time>2022-03-26T17:13:41.086Z</time>
      </trkpt>
      <trkpt lat="43.68193" lon="1.45304">
        <ele>181.42546</ele>
        <time>2022-03-26T17:13:43.080Z</time>
      </trkpt>
      <trkpt lat="43.68188" lon="1.45285">
        <ele>181.316563</ele>
        <time>2022-03-26T17:13:45.108Z</time>
      </trkpt>
      <trkpt lat="43.68182" lon="1.45266">
        <ele>181.206169</ele>
        <time>2022-03-26T17:13:47.077Z</time>
      </trkpt>
      <trkpt lat="43.68178" lon="1.45249">
        <ele>181.109916</ele>
        <time>2022-03-26T17:13:49.073Z</time>
      </trkpt>
      <trkpt lat="43.68174" lon="1.45232">
        <ele>181.01316</ele>
        <time>2022-03-26T17:13:51.079Z</time>
      </trkpt>
      <trkpt lat="43.6817" lon="1.45217">
        <ele>180.927388</ele>
        <time>2022-03-26T17:13:53.085Z</time>
      </trkpt>
      <trkpt lat="43.68166" lon="1.45206">
        <ele>180.860683</ele>
        <time>2022-03-26T17:13:55.068Z</time>
      </trkpt>
      <trkpt lat="43.68155" lon="1.45207">
        <ele>180.778921</ele>
        <time>2022-03-26T17:13:58.081Z</time>
      </trkpt>
      <trkpt lat="43.68147" lon="1.45217">
        <ele>180.703683</ele>
        <time>2022-03-26T17:14:00.060Z</time>
      </trkpt>
      <trkpt lat="43.68139" lon="1.45226">
        <ele>180.623765</ele>
        <time>2022-03-26T17:14:02.080Z</time>
      </trkpt>
      <trkpt lat="43.6813" lon="1.45235">
        <ele>180.542396</ele>
        <time>2022-03-26T17:14:04.079Z</time>
      </trkpt>
      <trkpt lat="43.68121" lon="1.45243">
        <ele>180.462826</ele>
        <time>2022-03-26T17:14:06.101Z</time>
      </trkpt>
      <trkpt lat="43.68112" lon="1.45251">
        <ele>180.380221</ele>
        <time>2022-03-26T17:14:08.072Z</time>
      </trkpt>
      <trkpt lat="43.68102" lon="1.4526">
        <ele>180.294839</ele>
        <time>2022-03-26T17:14:10.077Z</time>
      </trkpt>
      <trkpt lat="43.68091" lon="1.45269">
        <ele>180.199256</ele>
        <time>2022-03-26T17:14:12.071Z</time>
      </trkpt>
      <trkpt lat="43.68082" lon="1.45278">
        <ele>180.10692</ele>
        <time>2022-03-26T17:14:14.080Z</time>
      </trkpt>
      <trkpt lat="43.68072" lon="1.45287">
        <ele>180.01487</ele>
        <time>2022-03-26T17:14:16.077Z</time>
      </trkpt>
      <trkpt lat="43.68062" lon="1.45296">
        <ele>179.92277</ele>
        <time>2022-03-26T17:14:18.076Z</time>
      </trkpt>
      <trkpt lat="43.68052" lon="1.45304">
        <ele>179.832519</ele>
        <time>2022-03-26T17:14:20.088Z</time>
      </trkpt>
      <trkpt lat="43.68042" lon="1.45312">
        <ele>179.746102</ele>
        <time>2022-03-26T17:14:22.070Z</time>
      </trkpt>
      <trkpt lat="43.68032" lon="1.45321">
        <ele>179.651927</ele>
        <time>2022-03-26T17:14:24.071Z</time>
      </trkpt>
      <trkpt lat="43.68021" lon="1.45329">
        <ele>179.557645</ele>
        <time>2022-03-26T17:14:26.074Z</time>
      </trkpt>
      <trkpt lat="43.68013" lon="1.45336">
        <ele>179.482817</ele>
        <time>2022-03-26T17:14:28.084Z</time>
      </trkpt>
      <trkpt lat="43.68005" lon="1.45343">
        <ele>179.407322</ele>
        <time>2022-03-26T17:14:30.081Z</time>
      </trkpt>
      <trkpt lat="43.67995" lon="1.4535">
        <ele>179.31779</ele>
        <time>2022-03-26T17:14:32.086Z</time>
      </trkpt>
      <trkpt lat="43.67984" lon="1.45358">
        <ele>179.225403</ele>
        <time>2022-03-26T17:14:34.100Z</time>
      </trkpt>
      <trkpt lat="43.67975" lon="1.45366">
        <ele>179.136911</ele>
        <time>2022-03-26T17:14:36.069Z</time>
      </trkpt>
      <trkpt lat="43.67965" lon="1.45373">
        <ele>179.054533</ele>
        <time>2022-03-26T17:14:38.079Z</time>
      </trkpt>
      <trkpt lat="43.67956" lon="1.45378">
        <ele>178.972907</ele>
        <time>2022-03-26T17:14:40.080Z</time>
      </trkpt>
      <trkpt lat="43.67944" lon="1.45383">
        <ele>178.881829</ele>
        <time>2022-03-26T17:14:42.111Z</time>
      </trkpt>
      <trkpt lat="43.67934" lon="1.45388">
        <ele>178.863253</ele>
        <time>2022-03-26T17:14:44.066Z</time>
      </trkpt>
      <trkpt lat="43.67925" lon="1.45395">
        <ele>178.849389</ele>
        <time>2022-03-26T17:14:46.084Z</time>
      </trkpt>
      <trkpt lat="43.67918" lon="1.45402">
        <ele>178.836044</ele>
        <time>2022-03-26T17:14:48.086Z</time>
      </trkpt>
      <trkpt lat="43.67908" lon="1.4541">
        <ele>178.820277</ele>
        <time>2022-03-26T17:14:50.078Z</time>
      </trkpt>
      <trkpt lat="43.67898" lon="1.45417">
        <ele>178.803731</ele>
        <time>2022-03-26T17:14:52.079Z</time>
      </trkpt>
      <trkpt lat="43.67889" lon="1.45425">
        <ele>178.788853</ele>
        <time>2022-03-26T17:14:54.073Z</time>
      </trkpt>
      <trkpt lat="43.6788" lon="1.45435">
        <ele>178.772097</ele>
        <time>2022-03-26T17:14:57.078Z</time>
      </trkpt>
      <trkpt lat="43.6787" lon="1.45433">
        <ele>178.757936</ele>
        <time>2022-03-26T17:15:02.071Z</time>
      </trkpt>
      <trkpt lat="43.67858" lon="1.45435">
        <ele>178.740399</ele>
        <time>2022-03-26T17:15:06.067Z</time>
      </trkpt>
      <trkpt lat="43.67847" lon="1.45435">
        <ele>178.724666</ele>
        <time>2022-03-26T17:15:09.083Z</time>
      </trkpt>
      <trkpt lat="43.67835" lon="1.45425">
        <ele>178.705043</ele>
        <time>2022-03-26T17:15:12.067Z</time>
      </trkpt>
      <trkpt lat="43.67826" lon="1.45417">
        <ele>178.689757</ele>
        <time>2022-03-26T17:15:14.055Z</time>
      </trkpt>
      <trkpt lat="43.67816" lon="1.45409">
        <ele>178.673695</ele>
        <time>2022-03-26T17:15:16.066Z</time>
      </trkpt>
      <trkpt lat="43.67806" lon="1.45403">
        <ele>178.658116</ele>
        <time>2022-03-26T17:15:18.067Z</time>
      </trkpt>
      <trkpt lat="43.67797" lon="1.45397">
        <ele>178.642884</ele>
        <time>2022-03-26T17:15:20.071Z</time>
      </trkpt>
      <trkpt lat="43.67786" lon="1.4539">
        <ele>178.625442</ele>
        <time>2022-03-26T17:15:22.071Z</time>
      </trkpt>
      <trkpt lat="43.67775" lon="1.45381">
        <ele>178.676891</ele>
        <time>2022-03-26T17:15:24.092Z</time>
      </trkpt>
      <trkpt lat="43.67763" lon="1.45372">
        <ele>178.749531</ele>
        <time>2022-03-26T17:15:26.101Z</time>
      </trkpt>
      <trkpt lat="43.67752" lon="1.45363">
        <ele>178.818427</ele>
        <time>2022-03-26T17:15:28.081Z</time>
      </trkpt>
      <trkpt lat="43.67741" lon="1.45354">
        <ele>178.886345</ele>
        <time>2022-03-26T17:15:30.077Z</time>
      </trkpt>
      <trkpt lat="43.6773" lon="1.45345">
        <ele>178.95446</ele>
        <time>2022-03-26T17:15:32.068Z</time>
      </trkpt>
      <trkpt lat="43.67719" lon="1.45337">
        <ele>179.021161</ele>
        <time>2022-03-26T17:15:34.077Z</time>
      </trkpt>
      <trkpt lat="43.67708" lon="1.4533">
        <ele>179.089572</ele>
        <time>2022-03-26T17:15:36.065Z</time>
      </trkpt>
      <trkpt lat="43.67696" lon="1.45326">
        <ele>179.155405</ele>
        <time>2022-03-26T17:15:38.076Z</time>
      </trkpt>
      <trkpt lat="43.67683" lon="1.45323">
        <ele>179.223174</ele>
        <time>2022-03-26T17:15:40.083Z</time>
      </trkpt>
      <trkpt lat="43.67672" lon="1.4532">
        <ele>179.286456</ele>
        <time>2022-03-26T17:15:42.070Z</time>
      </trkpt>
      <trkpt lat="43.6766" lon="1.45319">
        <ele>179.348797</ele>
        <time>2022-03-26T17:15:44.088Z</time>
      </trkpt>
      <trkpt lat="43.67649" lon="1.45317">
        <ele>179.412133</ele>
        <time>2022-03-26T17:15:46.078Z</time>
      </trkpt>
      <trkpt lat="43.67637" lon="1.45317">
        <ele>179.476307</ele>
        <time>2022-03-26T17:15:48.072Z</time>
      </trkpt>
      <trkpt lat="43.67625" lon="1.45317">
        <ele>179.537787</ele>
        <time>2022-03-26T17:15:50.085Z</time>
      </trkpt>
      <trkpt lat="43.67614" lon="1.45316">
        <ele>179.586502</ele>
        <time>2022-03-26T17:15:52.077Z</time>
      </trkpt>
      <trkpt lat="43.67603" lon="1.45317">
        <ele>179.539528</ele>
        <time>2022-03-26T17:15:54.083Z</time>
      </trkpt>
      <trkpt lat="43.67592" lon="1.45322">
        <ele>179.492222</ele>
        <time>2022-03-26T17:15:56.089Z</time>
      </trkpt>
      <trkpt lat="43.67581" lon="1.45328">
        <ele>179.444522</ele>
        <time>2022-03-26T17:15:58.093Z</time>
      </trkpt>
      <trkpt lat="43.6757" lon="1.45336">
        <ele>179.395092</ele>
        <time>2022-03-26T17:16:00.080Z</time>
      </trkpt>
      <trkpt lat="43.6756" lon="1.45343">
        <ele>179.349148</ele>
        <time>2022-03-26T17:16:02.070Z</time>
      </trkpt>
      <trkpt lat="43.6755" lon="1.45351">
        <ele>179.30336</ele>
        <time>2022-03-26T17:16:04.067Z</time>
      </trkpt>
      <trkpt lat="43.67541" lon="1.45358">
        <ele>179.259383</ele>
        <time>2022-03-26T17:16:06.076Z</time>
      </trkpt>
      <trkpt lat="43.67531" lon="1.45366">
        <ele>179.213595</ele>
        <time>2022-03-26T17:16:08.083Z</time>
      </trkpt>
      <trkpt lat="43.67521" lon="1.45371">
        <ele>179.171128</ele>
        <time>2022-03-26T17:16:10.074Z</time>
      </trkpt>
      <trkpt lat="43.67512" lon="1.45375">
        <ele>179.130778</ele>
        <time>2022-03-26T17:16:12.085Z</time>
      </trkpt>
      <trkpt lat="43.67504" lon="1.45382">
        <ele>179.092857</ele>
        <time>2022-03-26T17:16:14.079Z</time>
      </trkpt>
      <trkpt lat="43.67493" lon="1.45388">
        <ele>179.044939</ele>
        <time>2022-03-26T17:16:17.073Z</time>
      </trkpt>
      <trkpt lat="43.67485" lon="1.45384">
        <ele>179.007869</ele>
        <time>2022-03-26T17:16:19.069Z</time>
      </trkpt>
      <trkpt lat="43.67476" lon="1.45375">
        <ele>178.96427</ele>
        <time>2022-03-26T17:16:21.093Z</time>
      </trkpt>
      <trkpt lat="43.67469" lon="1.45365">
        <ele>178.922758</ele>
        <time>2022-03-26T17:16:23.081Z</time>
      </trkpt>
      <trkpt lat="43.67465" lon="1.45352">
        <ele>178.881768</ele>
        <time>2022-03-26T17:16:25.079Z</time>
      </trkpt>
      <trkpt lat="43.67461" lon="1.45339">
        <ele>178.845115</ele>
        <time>2022-03-26T17:16:27.083Z</time>
      </trkpt>
      <trkpt lat="43.67457" lon="1.45327">
        <ele>178.814396</ele>
        <time>2022-03-26T17:16:29.079Z</time>
      </trkpt>
      <trkpt lat="43.67453" lon="1.45312">
        <ele>178.77989</ele>
        <time>2022-03-26T17:16:31.077Z</time>
      </trkpt>
      <trkpt lat="43.67448" lon="1.45298">
        <ele>178.745643</ele>
        <time>2022-03-26T17:16:33.077Z</time>
      </trkpt>
      <trkpt lat="43.67444" lon="1.45286">
        <ele>178.716578</ele>
        <time>2022-03-26T17:16:35.079Z</time>
      </trkpt>
      <trkpt lat="43.6744" lon="1.45274">
        <ele>178.68656</ele>
        <time>2022-03-26T17:16:38.092Z</time>
      </trkpt>
      <trkpt lat="43.67429" lon="1.45268">
        <ele>178.650313</ele>
        <time>2022-03-26T17:16:41.073Z</time>
      </trkpt>
      <trkpt lat="43.67419" lon="1.45272">
        <ele>178.619332</ele>
        <time>2022-03-26T17:16:43.093Z</time>
      </trkpt>
      <trkpt lat="43.67408" lon="1.4528">
        <ele>178.581965</ele>
        <time>2022-03-26T17:16:45.078Z</time>
      </trkpt>
      <trkpt lat="43.67398" lon="1.45288">
        <ele>178.545023</ele>
        <time>2022-03-26T17:16:47.072Z</time>
      </trkpt>
      <trkpt lat="43.67387" lon="1.45296">
        <ele>178.508266</ele>
        <time>2022-03-26T17:16:49.085Z</time>
      </trkpt>
      <trkpt lat="43.67375" lon="1.45302">
        <ele>178.470028</ele>
        <time>2022-03-26T17:16:51.092Z</time>
      </trkpt>
      <trkpt lat="43.67363" lon="1.45301">
        <ele>178.433812</ele>
        <time>2022-03-26T17:16:53.090Z</time>
      </trkpt>
      <trkpt lat="43.67351" lon="1.45298">
        <ele>178.395449</ele>
        <time>2022-03-26T17:16:55.083Z</time>
      </trkpt>
      <trkpt lat="43.67338" lon="1.45295">
        <ele>178.357906</ele>
        <time>2022-03-26T17:16:57.082Z</time>
      </trkpt>
      <trkpt lat="43.67326" lon="1.45293">
        <ele>178.32103</ele>
        <time>2022-03-26T17:16:59.093Z</time>
      </trkpt>
      <trkpt lat="43.67314" lon="1.45295">
        <ele>178.256303</ele>
        <time>2022-03-26T17:17:01.081Z</time>
      </trkpt>
      <trkpt lat="43.67302" lon="1.45301">
        <ele>178.178757</ele>
        <time>2022-03-26T17:17:03.080Z</time>
      </trkpt>
      <trkpt lat="43.67292" lon="1.45307">
        <ele>178.114821</ele>
        <time>2022-03-26T17:17:05.077Z</time>
      </trkpt>
      <trkpt lat="43.67283" lon="1.45313">
        <ele>178.054903</ele>
        <time>2022-03-26T17:17:07.077Z</time>
      </trkpt>
      <trkpt lat="43.67272" lon="1.45315">
        <ele>177.98652</ele>
        <time>2022-03-26T17:17:10.070Z</time>
      </trkpt>
      <trkpt lat="43.67266" lon="1.45301">
        <ele>177.918243</ele>
        <time>2022-03-26T17:17:13.070Z</time>
      </trkpt>
      <trkpt lat="43.67262" lon="1.45287">
        <ele>177.849912</ele>
        <time>2022-03-26T17:17:15.094Z</time>
      </trkpt>
      <trkpt lat="43.67258" lon="1.4527">
        <ele>177.774849</ele>
        <time>2022-03-26T17:17:17.074Z</time>
      </trkpt>
      <trkpt lat="43.67254" lon="1.45254">
        <ele>177.69973</ele>
        <time>2022-03-26T17:17:19.105Z</time>
      </trkpt>
      <trkpt lat="43.6725" lon="1.45237">
        <ele>177.621799</ele>
        <time>2022-03-26T17:17:21.097Z</time>
      </trkpt>
      <trkpt lat="43.67245" lon="1.4522">
        <ele>177.540981</ele>
        <time>2022-03-26T17:17:23.093Z</time>
      </trkpt>
      <trkpt lat="43.67239" lon="1.45203">
        <ele>177.460735</ele>
        <time>2022-03-26T17:17:25.088Z</time>
      </trkpt>
      <trkpt lat="43.67235" lon="1.45186">
        <ele>177.383961</ele>
        <time>2022-03-26T17:17:27.076Z</time>
      </trkpt>
      <trkpt lat="43.6723" lon="1.4517">
        <ele>177.309046</ele>
        <time>2022-03-26T17:17:29.082Z</time>
      </trkpt>
      <trkpt lat="43.67224" lon="1.45156">
        <ele>177.240678</ele>
        <time>2022-03-26T17:17:31.094Z</time>
      </trkpt>
      <trkpt lat="43.6722" lon="1.45143">
        <ele>177.161829</ele>
        <time>2022-03-26T17:17:33.075Z</time>
      </trkpt>
      <trkpt lat="43.67217" lon="1.4513">
        <ele>177.088653</ele>
        <time>2022-03-26T17:17:35.085Z</time>
      </trkpt>
      <trkpt lat="43.67209" lon="1.45119">
        <ele>177.00118</ele>
        <time>2022-03-26T17:17:38.061Z</time>
      </trkpt>
      <trkpt lat="43.67196" lon="1.45123">
        <ele>176.901775</ele>
        <time>2022-03-26T17:17:41.086Z</time>
      </trkpt>
      <trkpt lat="43.67186" lon="1.45131">
        <ele>176.812827</ele>
        <time>2022-03-26T17:17:43.084Z</time>
      </trkpt>
      <trkpt lat="43.67177" lon="1.45138">
        <ele>176.730202</ele>
        <time>2022-03-26T17:17:45.076Z</time>
      </trkpt>
      <trkpt lat="43.67168" lon="1.45143">
        <ele>176.657251</ele>
        <time>2022-03-26T17:17:47.080Z</time>
      </trkpt>
      <trkpt lat="43.67157" lon="1.45143">
        <ele>176.576672</ele>
        <time>2022-03-26T17:17:49.091Z</time>
      </trkpt>
      <trkpt lat="43.67147" lon="1.45134">
        <ele>176.485065</ele>
        <time>2022-03-26T17:17:51.094Z</time>
      </trkpt>
      <trkpt lat="43.67136" lon="1.45131">
        <ele>176.399484</ele>
        <time>2022-03-26T17:17:53.095Z</time>
      </trkpt>
      <trkpt lat="43.67124" lon="1.4514">
        <ele>176.297304</ele>
        <time>2022-03-26T17:17:55.086Z</time>
      </trkpt>
      <trkpt lat="43.67114" lon="1.4515">
        <ele>176.197241</ele>
        <time>2022-03-26T17:17:57.074Z</time>
      </trkpt>
      <trkpt lat="43.67104" lon="1.45158">
        <ele>176.11262</ele>
        <time>2022-03-26T17:17:59.076Z</time>
      </trkpt>
      <trkpt lat="43.67091" lon="1.4516">
        <ele>176.013441</ele>
        <time>2022-03-26T17:18:02.083Z</time>
      </trkpt>
      <trkpt lat="43.67081" lon="1.45158">
        <ele>175.935881</ele>
        <time>2022-03-26T17:18:04.087Z</time>
      </trkpt>
      <trkpt lat="43.67072" lon="1.45146">
        <ele>175.859895</ele>
        <time>2022-03-26T17:18:06.073Z</time>
      </trkpt>
      <trkpt lat="43.67063" lon="1.45138">
        <ele>175.836734</ele>
        <time>2022-03-26T17:18:08.083Z</time>
      </trkpt>
      <trkpt lat="43.67052" lon="1.45144">
        <ele>175.813364</ele>
        <time>2022-03-26T17:18:10.096Z</time>
      </trkpt>
      <trkpt lat="43.67041" lon="1.45152">
        <ele>175.789132</ele>
        <time>2022-03-26T17:18:12.076Z</time>
      </trkpt>
      <trkpt lat="43.6703" lon="1.45159">
        <ele>175.764415</ele>
        <time>2022-03-26T17:18:14.077Z</time>
      </trkpt>
      <trkpt lat="43.67018" lon="1.45157">
        <ele>175.741035</ele>
        <time>2022-03-26T17:18:16.075Z</time>
      </trkpt>
      <trkpt lat="43.67011" lon="1.45143">
        <ele>175.716924</ele>
        <time>2022-03-26T17:18:18.075Z</time>
      </trkpt>
      <trkpt lat="43.67007" lon="1.45126">
        <ele>175.691236</ele>
        <time>2022-03-26T17:18:20.104Z</time>
      </trkpt>
      <trkpt lat="43.67001" lon="1.45113">
        <ele>175.667967</ele>
        <time>2022-03-26T17:18:22.071Z</time>
      </trkpt>
      <trkpt lat="43.66994" lon="1.45101">
        <ele>175.647001</ele>
        <time>2022-03-26T17:18:24.075Z</time>
      </trkpt>
      <trkpt lat="43.66988" lon="1.45088">
        <ele>175.624986</ele>
        <time>2022-03-26T17:18:27.073Z</time>
      </trkpt>
      <trkpt lat="43.66982" lon="1.45077">
        <ele>175.605637</ele>
        <time>2022-03-26T17:18:33.073Z</time>
      </trkpt>
      <trkpt lat="43.66976" lon="1.45065">
        <ele>175.583273</ele>
        <time>2022-03-26T17:18:39.081Z</time>
      </trkpt>
      <trkpt lat="43.66968" lon="1.45051">
        <ele>175.558199</ele>
        <time>2022-03-26T17:18:42.054Z</time>
      </trkpt>
      <trkpt lat="43.66962" lon="1.45041">
        <ele>175.539897</ele>
        <time>2022-03-26T17:18:44.064Z</time>
      </trkpt>
      <trkpt lat="43.66958" lon="1.45029">
        <ele>175.520627</ele>
        <time>2022-03-26T17:18:46.067Z</time>
      </trkpt>
      <trkpt lat="43.66953" lon="1.45017">
        <ele>175.516562</ele>
        <time>2022-03-26T17:18:48.082Z</time>
      </trkpt>
      <trkpt lat="43.66949" lon="1.45002">
        <ele>175.543237</ele>
        <time>2022-03-26T17:18:50.090Z</time>
      </trkpt>
      <trkpt lat="43.66944" lon="1.44988">
        <ele>175.571848</ele>
        <time>2022-03-26T17:18:52.087Z</time>
      </trkpt>
      <trkpt lat="43.66937" lon="1.44969">
        <ele>175.607249</ele>
        <time>2022-03-26T17:18:54.075Z</time>
      </trkpt>
      <trkpt lat="43.66929" lon="1.44952">
        <ele>175.642806</ele>
        <time>2022-03-26T17:18:56.064Z</time>
      </trkpt>
      <trkpt lat="43.66918" lon="1.4494">
        <ele>175.676849</ele>
        <time>2022-03-26T17:18:58.085Z</time>
      </trkpt>
      <trkpt lat="43.66904" lon="1.44935">
        <ele>175.711975</ele>
        <time>2022-03-26T17:19:00.085Z</time>
      </trkpt>
      <trkpt lat="43.66891" lon="1.44934">
        <ele>175.743535</ele>
        <time>2022-03-26T17:19:02.088Z</time>
      </trkpt>
      <trkpt lat="43.66878" lon="1.44932">
        <ele>175.773765</ele>
        <time>2022-03-26T17:19:04.097Z</time>
      </trkpt>
      <trkpt lat="43.66865" lon="1.4493">
        <ele>175.805293</ele>
        <time>2022-03-26T17:19:06.084Z</time>
      </trkpt>
      <trkpt lat="43.66852" lon="1.44927">
        <ele>175.837451</ele>
        <time>2022-03-26T17:19:08.104Z</time>
      </trkpt>
      <trkpt lat="43.66839" lon="1.44923">
        <ele>175.869036</ele>
        <time>2022-03-26T17:19:10.092Z</time>
      </trkpt>
      <trkpt lat="43.66827" lon="1.44917">
        <ele>175.899216</ele>
        <time>2022-03-26T17:19:12.087Z</time>
      </trkpt>
      <trkpt lat="43.66817" lon="1.44913">
        <ele>175.926205</ele>
        <time>2022-03-26T17:19:14.081Z</time>
      </trkpt>
      <trkpt lat="43.66806" lon="1.44908">
        <ele>175.967446</ele>
        <time>2022-03-26T17:19:16.083Z</time>
      </trkpt>
      <trkpt lat="43.66795" lon="1.44901">
        <ele>176.025204</ele>
        <time>2022-03-26T17:19:18.103Z</time>
      </trkpt>
      <trkpt lat="43.66783" lon="1.44892">
        <ele>176.086031</ele>
        <time>2022-03-26T17:19:20.078Z</time>
      </trkpt>
      <trkpt lat="43.66773" lon="1.44883">
        <ele>176.146289</ele>
        <time>2022-03-26T17:19:22.083Z</time>
      </trkpt>
      <trkpt lat="43.66764" lon="1.44871">
        <ele>176.203694</ele>
        <time>2022-03-26T17:19:24.086Z</time>
      </trkpt>
      <trkpt lat="43.66759" lon="1.44855">
        <ele>176.263436</ele>
        <time>2022-03-26T17:19:26.076Z</time>
      </trkpt>
      <trkpt lat="43.66757" lon="1.44837">
        <ele>176.326853</ele>
        <time>2022-03-26T17:19:28.083Z</time>
      </trkpt>
      <trkpt lat="43.6675" lon="1.4482">
        <ele>176.39287</ele>
        <time>2022-03-26T17:19:30.075Z</time>
      </trkpt>
      <trkpt lat="43.66738" lon="1.44814">
        <ele>176.452099</ele>
        <time>2022-03-26T17:19:32.074Z</time>
      </trkpt>
      <trkpt lat="43.66726" lon="1.44819">
        <ele>176.512568</ele>
        <time>2022-03-26T17:19:34.082Z</time>
      </trkpt>
      <trkpt lat="43.66717" lon="1.44831">
        <ele>176.573099</ele>
        <time>2022-03-26T17:19:36.068Z</time>
      </trkpt>
      <trkpt lat="43.66708" lon="1.44841">
        <ele>176.626521</ele>
        <time>2022-03-26T17:19:38.077Z</time>
      </trkpt>
      <trkpt lat="43.66698" lon="1.4485">
        <ele>176.681547</ele>
        <time>2022-03-26T17:19:40.077Z</time>
      </trkpt>
      <trkpt lat="43.66688" lon="1.44855">
        <ele>176.734686</ele>
        <time>2022-03-26T17:19:42.079Z</time>
      </trkpt>
      <trkpt lat="43.66677" lon="1.44859">
        <ele>176.787762</ele>
        <time>2022-03-26T17:19:44.077Z</time>
      </trkpt>
      <trkpt lat="43.66665" lon="1.44859">
        <ele>176.902384</ele>
        <time>2022-03-26T17:19:46.089Z</time>
      </trkpt>
      <trkpt lat="43.66653" lon="1.44858">
        <ele>177.023346</ele>
        <time>2022-03-26T17:19:48.067Z</time>
      </trkpt>
      <trkpt lat="43.66643" lon="1.44854">
        <ele>177.133991</ele>
        <time>2022-03-26T17:19:50.096Z</time>
      </trkpt>
      <trkpt lat="43.66631" lon="1.44847">
        <ele>177.264977</ele>
        <time>2022-03-26T17:19:52.080Z</time>
      </trkpt>
      <trkpt lat="43.66622" lon="1.44835">
        <ele>177.392082</ele>
        <time>2022-03-26T17:19:54.090Z</time>
      </trkpt>
      <trkpt lat="43.66615" lon="1.44822">
        <ele>177.51557</ele>
        <time>2022-03-26T17:19:56.099Z</time>
      </trkpt>
      <trkpt lat="43.6661" lon="1.44811">
        <ele>177.612703</ele>
        <time>2022-03-26T17:19:58.075Z</time>
      </trkpt>
      <trkpt lat="43.66603" lon="1.44801">
        <ele>177.718347</ele>
        <time>2022-03-26T17:20:01.086Z</time>
      </trkpt>
      <trkpt lat="43.66594" lon="1.44792">
        <ele>177.832392</ele>
        <time>2022-03-26T17:20:04.095Z</time>
      </trkpt>
      <trkpt lat="43.66585" lon="1.44777">
        <ele>177.971693</ele>
        <time>2022-03-26T17:20:07.092Z</time>
      </trkpt>
      <trkpt lat="43.66577" lon="1.44764">
        <ele>178.0991</ele>
        <time>2022-03-26T17:20:09.082Z</time>
      </trkpt>
      <trkpt lat="43.66568" lon="1.44751">
        <ele>178.232065</ele>
        <time>2022-03-26T17:20:11.073Z</time>
      </trkpt>
      <trkpt lat="43.66559" lon="1.44739">
        <ele>178.357173</ele>
        <time>2022-03-26T17:20:13.096Z</time>
      </trkpt>
      <trkpt lat="43.6655" lon="1.44729">
        <ele>178.476872</ele>
        <time>2022-03-26T17:20:15.076Z</time>
      </trkpt>
      <trkpt lat="43.66541" lon="1.44723">
        <ele>178.576074</ele>
        <time>2022-03-26T17:20:17.090Z</time>
      </trkpt>
      <trkpt lat="43.66531" lon="1.44717">
        <ele>178.588784</ele>
        <time>2022-03-26T17:20:21.086Z</time>
      </trkpt>
      <trkpt lat="43.66522" lon="1.44712">
        <ele>178.518088</ele>
        <time>2022-03-26T17:20:25.082Z</time>
      </trkpt>
      <trkpt lat="43.66513" lon="1.44711">
        <ele>178.448513</ele>
        <time>2022-03-26T17:20:29.066Z</time>
      </trkpt>
      <trkpt lat="43.66507" lon="1.44729">
        <ele>178.346759</ele>
        <time>2022-03-26T17:20:32.073Z</time>
      </trkpt>
      <trkpt lat="43.66502" lon="1.44743">
        <ele>178.265543</ele>
        <time>2022-03-26T17:20:34.078Z</time>
      </trkpt>
      <trkpt lat="43.66496" lon="1.44758">
        <ele>178.17934</ele>
        <time>2022-03-26T17:20:36.074Z</time>
      </trkpt>
      <trkpt lat="43.6649" lon="1.44772">
        <ele>178.093374</ele>
        <time>2022-03-26T17:20:38.080Z</time>
      </trkpt>
      <trkpt lat="43.66485" lon="1.44787">
        <ele>178.007746</ele>
        <time>2022-03-26T17:20:40.083Z</time>
      </trkpt>
      <trkpt lat="43.66478" lon="1.44801">
        <ele>177.922246</ele>
        <time>2022-03-26T17:20:42.088Z</time>
      </trkpt>
      <trkpt lat="43.66472" lon="1.44815">
        <ele>177.836957</ele>
        <time>2022-03-26T17:20:44.079Z</time>
      </trkpt>
      <trkpt lat="43.66466" lon="1.44829">
        <ele>177.751202</ele>
        <time>2022-03-26T17:20:46.098Z</time>
      </trkpt>
      <trkpt lat="43.66461" lon="1.44844">
        <ele>177.665447</ele>
        <time>2022-03-26T17:20:48.073Z</time>
      </trkpt>
      <trkpt lat="43.66457" lon="1.44859">
        <ele>177.583761</ele>
        <time>2022-03-26T17:20:50.102Z</time>
      </trkpt>
      <trkpt lat="43.6645" lon="1.44872">
        <ele>177.500214</ele>
        <time>2022-03-26T17:20:52.087Z</time>
      </trkpt>
      <trkpt lat="43.66444" lon="1.44885">
        <ele>177.41893</ele>
        <time>2022-03-26T17:20:54.086Z</time>
      </trkpt>
      <trkpt lat="43.66438" lon="1.44902">
        <ele>177.330839</ele>
        <time>2022-03-26T17:20:56.085Z</time>
      </trkpt>
      <trkpt lat="43.66436" lon="1.44921">
        <ele>177.272228</ele>
        <time>2022-03-26T17:20:58.093Z</time>
      </trkpt>
      <trkpt lat="43.66433" lon="1.44937">
        <ele>177.219864</ele>
        <time>2022-03-26T17:21:00.088Z</time>
      </trkpt>
      <trkpt lat="43.66428" lon="1.44952">
        <ele>177.168101</ele>
        <time>2022-03-26T17:21:02.085Z</time>
      </trkpt>
      <trkpt lat="43.66423" lon="1.44967">
        <ele>177.117943</ele>
        <time>2022-03-26T17:21:04.098Z</time>
      </trkpt>
      <trkpt lat="43.66419" lon="1.44982">
        <ele>177.068316</ele>
        <time>2022-03-26T17:21:06.074Z</time>
      </trkpt>
      <trkpt lat="43.66416" lon="1.44997">
        <ele>177.018379</ele>
        <time>2022-03-26T17:21:08.075Z</time>
      </trkpt>
      <trkpt lat="43.66415" lon="1.45013">
        <ele>176.968696</ele>
        <time>2022-03-26T17:21:10.085Z</time>
      </trkpt>
      <trkpt lat="43.66412" lon="1.4503">
        <ele>176.917539</ele>
        <time>2022-03-26T17:21:12.063Z</time>
      </trkpt>
      <trkpt lat="43.66407" lon="1.45044">
        <ele>176.867748</ele>
        <time>2022-03-26T17:21:14.078Z</time>
      </trkpt>
      <trkpt lat="43.66402" lon="1.45058">
        <ele>176.817779</ele>
        <time>2022-03-26T17:21:16.082Z</time>
      </trkpt>
      <trkpt lat="43.66397" lon="1.45072">
        <ele>176.770584</ele>
        <time>2022-03-26T17:21:18.083Z</time>
      </trkpt>
      <trkpt lat="43.66394" lon="1.45086">
        <ele>176.723927</ele>
        <time>2022-03-26T17:21:20.091Z</time>
      </trkpt>
      <trkpt lat="43.6639" lon="1.45099">
        <ele>176.680792</ele>
        <time>2022-03-26T17:21:22.105Z</time>
      </trkpt>
      <trkpt lat="43.66383" lon="1.45112">
        <ele>176.633407</ele>
        <time>2022-03-26T17:21:24.072Z</time>
      </trkpt>
      <trkpt lat="43.66377" lon="1.45125">
        <ele>176.585141</ele>
        <time>2022-03-26T17:21:26.085Z</time>
      </trkpt>
      <trkpt lat="43.66372" lon="1.4514">
        <ele>176.551223</ele>
        <time>2022-03-26T17:21:28.076Z</time>
      </trkpt>
      <trkpt lat="43.66366" lon="1.45153">
        <ele>176.525545</ele>
        <time>2022-03-26T17:21:30.076Z</time>
      </trkpt>
      <trkpt lat="43.66365" lon="1.45171">
        <ele>176.496837</ele>
        <time>2022-03-26T17:21:33.080Z</time>
      </trkpt>
      <trkpt lat="43.66366" lon="1.45186">
        <ele>176.471005</ele>
        <time>2022-03-26T17:21:35.083Z</time>
      </trkpt>
      <trkpt lat="43.66361" lon="1.45202">
        <ele>176.442971</ele>
        <time>2022-03-26T17:21:37.091Z</time>
      </trkpt>
      <trkpt lat="43.66354" lon="1.45215">
        <ele>176.414995</ele>
        <time>2022-03-26T17:21:39.086Z</time>
      </trkpt>
      <trkpt lat="43.66347" lon="1.45227">
        <ele>176.388924</ele>
        <time>2022-03-26T17:21:41.083Z</time>
      </trkpt>
      <trkpt lat="43.66339" lon="1.45236">
        <ele>176.365548</ele>
        <time>2022-03-26T17:21:43.079Z</time>
      </trkpt>
      <trkpt lat="43.66331" lon="1.45248">
        <ele>176.33839</ele>
        <time>2022-03-26T17:21:45.086Z</time>
      </trkpt>
      <trkpt lat="43.66319" lon="1.45261">
        <ele>176.30517</ele>
        <time>2022-03-26T17:21:47.079Z</time>
      </trkpt>
      <trkpt lat="43.66309" lon="1.45276">
        <ele>176.270863</ele>
        <time>2022-03-26T17:21:49.079Z</time>
      </trkpt>
      <trkpt lat="43.66299" lon="1.45288">
        <ele>176.240733</ele>
        <time>2022-03-26T17:21:51.124Z</time>
      </trkpt>
      <trkpt lat="43.66292" lon="1.45301">
        <ele>176.213464</ele>
        <time>2022-03-26T17:21:53.098Z</time>
      </trkpt>
      <trkpt lat="43.66286" lon="1.45314">
        <ele>176.187501</ele>
        <time>2022-03-26T17:21:55.081Z</time>
      </trkpt>
      <trkpt lat="43.6628" lon="1.45329">
        <ele>176.155386</ele>
        <time>2022-03-26T17:21:57.075Z</time>
      </trkpt>
      <trkpt lat="43.66275" lon="1.45344">
        <ele>175.982823</ele>
        <time>2022-03-26T17:21:59.074Z</time>
      </trkpt>
      <trkpt lat="43.66274" lon="1.45359">
        <ele>175.821141</ele>
        <time>2022-03-26T17:22:01.073Z</time>
      </trkpt>
      <trkpt lat="43.6628" lon="1.45374">
        <ele>175.652873</ele>
        <time>2022-03-26T17:22:03.067Z</time>
      </trkpt>
      <trkpt lat="43.66282" lon="1.4539">
        <ele>175.481787</ele>
        <time>2022-03-26T17:22:05.088Z</time>
      </trkpt>
      <trkpt lat="43.66278" lon="1.45403">
        <ele>175.329838</ele>
        <time>2022-03-26T17:22:07.077Z</time>
      </trkpt>
      <trkpt lat="43.66272" lon="1.45417">
        <ele>175.161664</ele>
        <time>2022-03-26T17:22:09.084Z</time>
      </trkpt>
      <trkpt lat="43.66266" lon="1.45432">
        <ele>174.988816</ele>
        <time>2022-03-26T17:22:11.072Z</time>
      </trkpt>
      <trkpt lat="43.66262" lon="1.45447">
        <ele>174.814414</ele>
        <time>2022-03-26T17:22:13.084Z</time>
      </trkpt>
      <trkpt lat="43.66259" lon="1.45463">
        <ele>174.643689</ele>
        <time>2022-03-26T17:22:15.083Z</time>
      </trkpt>
      <trkpt lat="43.66254" lon="1.45478">
        <ele>174.475517</ele>
        <time>2022-03-26T17:22:17.093Z</time>
      </trkpt>
      <trkpt lat="43.66249" lon="1.45492">
        <ele>174.313929</ele>
        <time>2022-03-26T17:22:19.086Z</time>
      </trkpt>
      <trkpt lat="43.66244" lon="1.45506">
        <ele>174.15014</ele>
        <time>2022-03-26T17:22:21.088Z</time>
      </trkpt>
      <trkpt lat="43.6624" lon="1.45521">
        <ele>173.984532</ele>
        <time>2022-03-26T17:22:23.082Z</time>
      </trkpt>
      <trkpt lat="43.66237" lon="1.45537">
        <ele>173.812062</ele>
        <time>2022-03-26T17:22:25.085Z</time>
      </trkpt>
      <trkpt lat="43.66232" lon="1.45552">
        <ele>173.646883</ele>
        <time>2022-03-26T17:22:27.077Z</time>
      </trkpt>
      <trkpt lat="43.66228" lon="1.45567">
        <ele>173.593248</ele>
        <time>2022-03-26T17:22:29.082Z</time>
      </trkpt>
      <trkpt lat="43.66224" lon="1.45582">
        <ele>173.619636</ele>
        <time>2022-03-26T17:22:31.075Z</time>
      </trkpt>
      <trkpt lat="43.6622" lon="1.45597">
        <ele>173.645504</ele>
        <time>2022-03-26T17:22:33.091Z</time>
      </trkpt>
      <trkpt lat="43.66215" lon="1.45613">
        <ele>173.673052</ele>
        <time>2022-03-26T17:22:35.078Z</time>
      </trkpt>
      <trkpt lat="43.66209" lon="1.45627">
        <ele>173.699797</ele>
        <time>2022-03-26T17:22:37.090Z</time>
      </trkpt>
      <trkpt lat="43.66196" lon="1.45631">
        <ele>173.72904</ele>
        <time>2022-03-26T17:22:39.085Z</time>
      </trkpt>
      <trkpt lat="43.66184" lon="1.45619">
        <ele>173.760403</ele>
        <time>2022-03-26T17:22:41.098Z</time>
      </trkpt>
      <trkpt lat="43.66178" lon="1.45607">
        <ele>173.785619</ele>
        <time>2022-03-26T17:22:43.082Z</time>
      </trkpt>
      <trkpt lat="43.66172" lon="1.45595">
        <ele>173.808617</ele>
        <time>2022-03-26T17:22:45.091Z</time>
      </trkpt>
      <trkpt lat="43.66164" lon="1.45585">
        <ele>173.832342</ele>
        <time>2022-03-26T17:22:48.102Z</time>
      </trkpt>
      <trkpt lat="43.66155" lon="1.45577">
        <ele>173.855831</ele>
        <time>2022-03-26T17:22:51.067Z</time>
      </trkpt>
      <trkpt lat="43.66144" lon="1.45569">
        <ele>173.883389</ele>
        <time>2022-03-26T17:22:54.075Z</time>
      </trkpt>
      <trkpt lat="43.66134" lon="1.45561">
        <ele>173.910402</ele>
        <time>2022-03-26T17:22:57.071Z</time>
      </trkpt>
      <trkpt lat="43.66123" lon="1.45551">
        <ele>173.939192</ele>
        <time>2022-03-26T17:23:00.091Z</time>
      </trkpt>
      <trkpt lat="43.66115" lon="1.45545">
        <ele>173.959558</ele>
        <time>2022-03-26T17:23:02.078Z</time>
      </trkpt>
      <trkpt lat="43.66103" lon="1.45538">
        <ele>174.050381</ele>
        <time>2022-03-26T17:23:04.078Z</time>
      </trkpt>
      <trkpt lat="43.66093" lon="1.45532">
        <ele>174.264544</ele>
        <time>2022-03-26T17:23:06.083Z</time>
      </trkpt>
      <trkpt lat="43.66083" lon="1.45531">
        <ele>174.451986</ele>
        <time>2022-03-26T17:23:08.080Z</time>
      </trkpt>
      <trkpt lat="43.66071" lon="1.45533">
        <ele>174.658959</ele>
        <time>2022-03-26T17:23:10.078Z</time>
      </trkpt>
      <trkpt lat="43.66062" lon="1.45529">
        <ele>174.843002</ele>
        <time>2022-03-26T17:23:12.108Z</time>
      </trkpt>
      <trkpt lat="43.66051" lon="1.45522">
        <ele>175.061722</ele>
        <time>2022-03-26T17:23:14.083Z</time>
      </trkpt>
      <trkpt lat="43.6604" lon="1.45515">
        <ele>175.275287</ele>
        <time>2022-03-26T17:23:16.093Z</time>
      </trkpt>
      <trkpt lat="43.66032" lon="1.45507">
        <ele>175.461921</ele>
        <time>2022-03-26T17:23:18.097Z</time>
      </trkpt>
      <trkpt lat="43.66025" lon="1.45499">
        <ele>175.637578</ele>
        <time>2022-03-26T17:23:20.094Z</time>
      </trkpt>
      <trkpt lat="43.66015" lon="1.45494">
        <ele>175.824567</ele>
        <time>2022-03-26T17:23:22.078Z</time>
      </trkpt>
      <trkpt lat="43.66006" lon="1.45495">
        <ele>175.989607</ele>
        <time>2022-03-26T17:23:24.069Z</time>
      </trkpt>
      <trkpt lat="43.65999" lon="1.45503">
        <ele>176.159633</ele>
        <time>2022-03-26T17:23:27.074Z</time>
      </trkpt>
      <trkpt lat="43.65987" lon="1.45502">
        <ele>176.365373</ele>
        <time>2022-03-26T17:23:30.085Z</time>
      </trkpt>
      <trkpt lat="43.65977" lon="1.45509">
        <ele>176.565024</ele>
        <time>2022-03-26T17:23:32.090Z</time>
      </trkpt>
      <trkpt lat="43.65971" lon="1.45517">
        <ele>176.733921</ele>
        <time>2022-03-26T17:23:34.100Z</time>
      </trkpt>
      <trkpt lat="43.6596" lon="1.45523">
        <ele>176.938073</ele>
        <time>2022-03-26T17:23:37.083Z</time>
      </trkpt>
      <trkpt lat="43.65951" lon="1.45522">
        <ele>177.104296</ele>
        <time>2022-03-26T17:23:40.093Z</time>
      </trkpt>
      <trkpt lat="43.65942" lon="1.45515">
        <ele>177.288689</ele>
        <time>2022-03-26T17:23:48.085Z</time>
      </trkpt>
      <trkpt lat="43.65935" lon="1.45504">
        <ele>177.399518</ele>
        <time>2022-03-26T17:23:51.086Z</time>
      </trkpt>
      <trkpt lat="43.65926" lon="1.45495">
        <ele>177.507554</ele>
        <time>2022-03-26T17:23:54.088Z</time>
      </trkpt>
      <trkpt lat="43.65915" lon="1.45491">
        <ele>177.618844</ele>
        <time>2022-03-26T17:23:58.096Z</time>
      </trkpt>
      <trkpt lat="43.65901" lon="1.45489">
        <ele>177.751901</ele>
        <time>2022-03-26T17:24:01.095Z</time>
      </trkpt>
      <trkpt lat="43.65889" lon="1.45487">
        <ele>177.869981</ele>
        <time>2022-03-26T17:24:04.073Z</time>
      </trkpt>
      <trkpt lat="43.6588" lon="1.45487">
        <ele>177.964192</ele>
        <time>2022-03-26T17:24:06.075Z</time>
      </trkpt>
      <trkpt lat="43.6587" lon="1.45487">
        <ele>178.061276</ele>
        <time>2022-03-26T17:24:08.080Z</time>
      </trkpt>
      <trkpt lat="43.65859" lon="1.45489">
        <ele>178.168697</ele>
        <time>2022-03-26T17:24:11.085Z</time>
      </trkpt>
      <trkpt lat="43.65848" lon="1.45496">
        <ele>178.286186</ele>
        <time>2022-03-26T17:24:14.073Z</time>
      </trkpt>
      <trkpt lat="43.65839" lon="1.45499">
        <ele>178.375925</ele>
        <time>2022-03-26T17:24:16.082Z</time>
      </trkpt>
      <trkpt lat="43.65829" lon="1.455">
        <ele>178.478143</ele>
        <time>2022-03-26T17:24:18.096Z</time>
      </trkpt>
      <trkpt lat="43.65817" lon="1.45503">
        <ele>178.596561</ele>
        <time>2022-03-26T17:24:21.086Z</time>
      </trkpt>
      <trkpt lat="43.65806" lon="1.45509">
        <ele>178.709721</ele>
        <time>2022-03-26T17:24:25.082Z</time>
      </trkpt>
      <trkpt lat="43.65795" lon="1.4552">
        <ele>178.841565</ele>
        <time>2022-03-26T17:24:28.091Z</time>
      </trkpt>
      <trkpt lat="43.65785" lon="1.4553">
        <ele>178.966148</ele>
        <time>2022-03-26T17:24:31.071Z</time>
      </trkpt>
      <trkpt lat="43.65776" lon="1.45539">
        <ele>179.032416</ele>
        <time>2022-03-26T17:24:34.087Z</time>
      </trkpt>
      <trkpt lat="43.65767" lon="1.45543">
        <ele>178.993315</ele>
        <time>2022-03-26T17:24:38.075Z</time>
      </trkpt>
      <trkpt lat="43.6577" lon="1.45527">
        <ele>178.942471</ele>
        <time>2022-03-26T17:24:42.073Z</time>
      </trkpt>
      <trkpt lat="43.65777" lon="1.45515">
        <ele>178.895215</ele>
        <time>2022-03-26T17:24:44.083Z</time>
      </trkpt>
      <trkpt lat="43.65786" lon="1.45504">
        <ele>178.842437</ele>
        <time>2022-03-26T17:24:46.066Z</time>
      </trkpt>
      <trkpt lat="43.65787" lon="1.45491">
        <ele>178.799685</ele>
        <time>2022-03-26T17:24:49.079Z</time>
      </trkpt>
      <trkpt lat="43.65777" lon="1.45486">
        <ele>178.753702</ele>
        <time>2022-03-26T17:24:51.067Z</time>
      </trkpt>
      <trkpt lat="43.65765" lon="1.45484">
        <ele>178.701451</ele>
        <time>2022-03-26T17:24:53.088Z</time>
      </trkpt>
      <trkpt lat="43.65754" lon="1.45482">
        <ele>178.653938</ele>
        <time>2022-03-26T17:24:55.069Z</time>
      </trkpt>
      <trkpt lat="43.65742" lon="1.45477">
        <ele>178.600801</ele>
        <time>2022-03-26T17:24:57.069Z</time>
      </trkpt>
      <trkpt lat="43.65729" lon="1.45475">
        <ele>178.543643</ele>
        <time>2022-03-26T17:24:59.079Z</time>
      </trkpt>
      <trkpt lat="43.65716" lon="1.45472">
        <ele>178.486668</ele>
        <time>2022-03-26T17:25:01.093Z</time>
      </trkpt>
      <trkpt lat="43.65703" lon="1.45467">
        <ele>178.426823</ele>
        <time>2022-03-26T17:25:03.098Z</time>
      </trkpt>
      <trkpt lat="43.65691" lon="1.45461">
        <ele>178.369265</ele>
        <time>2022-03-26T17:25:05.080Z</time>
      </trkpt>
      <trkpt lat="43.65678" lon="1.45455">
        <ele>178.310756</ele>
        <time>2022-03-26T17:25:07.083Z</time>
      </trkpt>
      <trkpt lat="43.65665" lon="1.45449">
        <ele>178.255687</ele>
        <time>2022-03-26T17:25:09.085Z</time>
      </trkpt>
      <trkpt lat="43.65653" lon="1.45444">
        <ele>178.209093</ele>
        <time>2022-03-26T17:25:11.074Z</time>
      </trkpt>
      <trkpt lat="43.65642" lon="1.45439">
        <ele>178.163915</ele>
        <time>2022-03-26T17:25:13.102Z</time>
      </trkpt>
      <trkpt lat="43.6563" lon="1.45434">
        <ele>178.118818</ele>
        <time>2022-03-26T17:25:15.088Z</time>
      </trkpt>
      <trkpt lat="43.65619" lon="1.45428">
        <ele>178.074238</ele>
        <time>2022-03-26T17:25:17.074Z</time>
      </trkpt>
      <trkpt lat="43.65608" lon="1.45423">
        <ele>178.030474</ele>
        <time>2022-03-26T17:25:19.067Z</time>
      </trkpt>
      <trkpt lat="43.65596" lon="1.45419">
        <ele>177.986888</ele>
        <time>2022-03-26T17:25:21.072Z</time>
      </trkpt>
      <trkpt lat="43.65585" lon="1.45415">
        <ele>177.943488</ele>
        <time>2022-03-26T17:25:23.076Z</time>
      </trkpt>
      <trkpt lat="43.65573" lon="1.45411">
        <ele>177.898914</ele>
        <time>2022-03-26T17:25:25.070Z</time>
      </trkpt>
      <trkpt lat="43.65562" lon="1.45407">
        <ele>177.855844</ele>
        <time>2022-03-26T17:25:27.077Z</time>
      </trkpt>
      <trkpt lat="43.6555" lon="1.45403">
        <ele>177.809488</ele>
        <time>2022-03-26T17:25:29.083Z</time>
      </trkpt>
      <trkpt lat="43.65538" lon="1.45399">
        <ele>177.764396</ele>
        <time>2022-03-26T17:25:31.069Z</time>
      </trkpt>
      <trkpt lat="43.65527" lon="1.45395">
        <ele>177.721234</ele>
        <time>2022-03-26T17:25:33.068Z</time>
      </trkpt>
      <trkpt lat="43.65515" lon="1.45391">
        <ele>177.677582</ele>
        <time>2022-03-26T17:25:35.073Z</time>
      </trkpt>
      <trkpt lat="43.65504" lon="1.45386">
        <ele>177.632642</ele>
        <time>2022-03-26T17:25:37.094Z</time>
      </trkpt>
      <trkpt lat="43.65492" lon="1.45382">
        <ele>177.617392</ele>
        <time>2022-03-26T17:25:39.069Z</time>
      </trkpt>
      <trkpt lat="43.65481" lon="1.45377">
        <ele>177.696011</ele>
        <time>2022-03-26T17:25:41.085Z</time>
      </trkpt>
      <trkpt lat="43.6547" lon="1.45371">
        <ele>177.772244</ele>
        <time>2022-03-26T17:25:43.100Z</time>
      </trkpt>
      <trkpt lat="43.65459" lon="1.45367">
        <ele>177.848818</ele>
        <time>2022-03-26T17:25:45.088Z</time>
      </trkpt>
      <trkpt lat="43.65449" lon="1.45364">
        <ele>177.919227</ele>
        <time>2022-03-26T17:25:47.086Z</time>
      </trkpt>
      <trkpt lat="43.65441" lon="1.45354">
        <ele>177.993833</ele>
        <time>2022-03-26T17:25:50.072Z</time>
      </trkpt>
      <trkpt lat="43.65444" lon="1.45342">
        <ele>178.059584</ele>
        <time>2022-03-26T17:25:52.071Z</time>
      </trkpt>
      <trkpt lat="43.65453" lon="1.45331">
        <ele>178.13836</ele>
        <time>2022-03-26T17:25:54.085Z</time>
      </trkpt>
      <trkpt lat="43.65463" lon="1.45322">
        <ele>178.218813</ele>
        <time>2022-03-26T17:25:56.069Z</time>
      </trkpt>
      <trkpt lat="43.65473" lon="1.45312">
        <ele>178.302584</ele>
        <time>2022-03-26T17:25:58.116Z</time>
      </trkpt>
      <trkpt lat="43.65483" lon="1.45301">
        <ele>178.383914</ele>
        <time>2022-03-26T17:26:00.073Z</time>
      </trkpt>
      <trkpt lat="43.65492" lon="1.4529">
        <ele>178.466589</ele>
        <time>2022-03-26T17:26:02.101Z</time>
      </trkpt>
      <trkpt lat="43.65502" lon="1.45279">
        <ele>178.550713</ele>
        <time>2022-03-26T17:26:04.076Z</time>
      </trkpt>
      <trkpt lat="43.65511" lon="1.45269">
        <ele>178.631423</ele>
        <time>2022-03-26T17:26:06.081Z</time>
      </trkpt>
      <trkpt lat="43.6552" lon="1.45256">
        <ele>178.716367</ele>
        <time>2022-03-26T17:26:08.078Z</time>
      </trkpt>
      <trkpt lat="43.65528" lon="1.45244">
        <ele>178.801303</ele>
        <time>2022-03-26T17:26:10.084Z</time>
      </trkpt>
      <trkpt lat="43.65538" lon="1.45232">
        <ele>178.935942</ele>
        <time>2022-03-26T17:26:12.082Z</time>
      </trkpt>
      <trkpt lat="43.65546" lon="1.45218">
        <ele>179.082259</ele>
        <time>2022-03-26T17:26:14.103Z</time>
      </trkpt>
      <trkpt lat="43.65555" lon="1.45205">
        <ele>179.225631</ele>
        <time>2022-03-26T17:26:16.087Z</time>
      </trkpt>
      <trkpt lat="43.65565" lon="1.45195">
        <ele>179.361646</ele>
        <time>2022-03-26T17:26:18.094Z</time>
      </trkpt>
      <trkpt lat="43.65574" lon="1.45185">
        <ele>179.4982</ele>
        <time>2022-03-26T17:26:20.089Z</time>
      </trkpt>
      <trkpt lat="43.65584" lon="1.45174">
        <ele>179.63687</ele>
        <time>2022-03-26T17:26:22.074Z</time>
      </trkpt>
      <trkpt lat="43.65592" lon="1.45162">
        <ele>179.768705</ele>
        <time>2022-03-26T17:26:24.088Z</time>
      </trkpt>
      <trkpt lat="43.65601" lon="1.45153">
        <ele>179.891523</ele>
        <time>2022-03-26T17:26:26.081Z</time>
      </trkpt>
      <trkpt lat="43.65606" lon="1.45139">
        <ele>180.01532</ele>
        <time>2022-03-26T17:26:28.073Z</time>
      </trkpt>
      <trkpt lat="43.65604" lon="1.45122">
        <ele>180.156238</ele>
        <time>2022-03-26T17:26:30.076Z</time>
      </trkpt>
      <trkpt lat="43.65596" lon="1.45107">
        <ele>180.305654</ele>
        <time>2022-03-26T17:26:32.087Z</time>
      </trkpt>
      <trkpt lat="43.65587" lon="1.45095">
        <ele>180.444545</ele>
        <time>2022-03-26T17:26:34.090Z</time>
      </trkpt>
      <trkpt lat="43.65579" lon="1.45084">
        <ele>180.574157</ele>
        <time>2022-03-26T17:26:36.089Z</time>
      </trkpt>
      <trkpt lat="43.65571" lon="1.45075">
        <ele>180.686852</ele>
        <time>2022-03-26T17:26:38.086Z</time>
      </trkpt>
      <trkpt lat="43.65564" lon="1.45067">
        <ele>180.787444</ele>
        <time>2022-03-26T17:26:41.072Z</time>
      </trkpt>
      <trkpt lat="43.65556" lon="1.45055">
        <ele>180.904687</ele>
        <time>2022-03-26T17:26:44.078Z</time>
      </trkpt>
      <trkpt lat="43.65548" lon="1.45043">
        <ele>181.035498</ele>
        <time>2022-03-26T17:26:47.077Z</time>
      </trkpt>
      <trkpt lat="43.65539" lon="1.45031">
        <ele>181.161507</ele>
        <time>2022-03-26T17:26:50.079Z</time>
      </trkpt>
      <trkpt lat="43.65533" lon="1.45021">
        <ele>181.258357</ele>
        <time>2022-03-26T17:26:52.076Z</time>
      </trkpt>
      <trkpt lat="43.65526" lon="1.45012">
        <ele>181.360402</ele>
        <time>2022-03-26T17:26:54.069Z</time>
      </trkpt>
      <trkpt lat="43.6552" lon="1.45001">
        <ele>181.460607</ele>
        <time>2022-03-26T17:26:56.066Z</time>
      </trkpt>
      <trkpt lat="43.65513" lon="1.4499">
        <ele>181.567654</ele>
        <time>2022-03-26T17:26:58.092Z</time>
      </trkpt>
      <trkpt lat="43.65506" lon="1.44981">
        <ele>181.665839</ele>
        <time>2022-03-26T17:27:00.068Z</time>
      </trkpt>
      <trkpt lat="43.65499" lon="1.44972">
        <ele>181.763229</ele>
        <time>2022-03-26T17:27:02.086Z</time>
      </trkpt>
      <trkpt lat="43.6549" lon="1.44959">
        <ele>181.894581</ele>
        <time>2022-03-26T17:27:05.087Z</time>
      </trkpt>
      <trkpt lat="43.65483" lon="1.44948">
        <ele>182.003019</ele>
        <time>2022-03-26T17:27:07.059Z</time>
      </trkpt>
      <trkpt lat="43.65478" lon="1.44933">
        <ele>182.133174</ele>
        <time>2022-03-26T17:27:09.076Z</time>
      </trkpt>
      <trkpt lat="43.65479" lon="1.44914">
        <ele>182.269613</ele>
        <time>2022-03-26T17:27:11.088Z</time>
      </trkpt>
      <trkpt lat="43.65486" lon="1.44897">
        <ele>182.41208</ele>
        <time>2022-03-26T17:27:13.075Z</time>
      </trkpt>
      <trkpt lat="43.65494" lon="1.44882">
        <ele>182.555137</ele>
        <time>2022-03-26T17:27:15.097Z</time>
      </trkpt>
      <trkpt lat="43.65502" lon="1.44867">
        <ele>182.641051</ele>
        <time>2022-03-26T17:27:17.086Z</time>
      </trkpt>
      <trkpt lat="43.65508" lon="1.44852">
        <ele>182.556471</ele>
        <time>2022-03-26T17:27:19.090Z</time>
      </trkpt>
      <trkpt lat="43.65513" lon="1.44837">
        <ele>182.47465</ele>
        <time>2022-03-26T17:27:21.081Z</time>
      </trkpt>
      <trkpt lat="43.65517" lon="1.44822">
        <ele>182.394626</ele>
        <time>2022-03-26T17:27:23.081Z</time>
      </trkpt>
      <trkpt lat="43.65527" lon="1.44808">
        <ele>182.303839</ele>
        <time>2022-03-26T17:27:25.085Z</time>
      </trkpt>
      <trkpt lat="43.65536" lon="1.44796">
        <ele>182.216947</ele>
        <time>2022-03-26T17:27:27.089Z</time>
      </trkpt>
      <trkpt lat="43.65544" lon="1.44783">
        <ele>182.134994</ele>
        <time>2022-03-26T17:27:29.083Z</time>
      </trkpt>
      <trkpt lat="43.65552" lon="1.4477">
        <ele>182.051082</ele>
        <time>2022-03-26T17:27:31.076Z</time>
      </trkpt>
      <trkpt lat="43.6556" lon="1.44757">
        <ele>181.969295</ele>
        <time>2022-03-26T17:27:33.085Z</time>
      </trkpt>
      <trkpt lat="43.65567" lon="1.44742">
        <ele>181.88361</ele>
        <time>2022-03-26T17:27:35.078Z</time>
      </trkpt>
      <trkpt lat="43.65573" lon="1.44727">
        <ele>181.800126</ele>
        <time>2022-03-26T17:27:37.095Z</time>
      </trkpt>
      <trkpt lat="43.65579" lon="1.44713">
        <ele>181.720049</ele>
        <time>2022-03-26T17:27:39.079Z</time>
      </trkpt>
      <trkpt lat="43.65586" lon="1.447">
        <ele>181.64056</ele>
        <time>2022-03-26T17:27:41.095Z</time>
      </trkpt>
      <trkpt lat="43.65593" lon="1.44686">
        <ele>181.55871</ele>
        <time>2022-03-26T17:27:43.100Z</time>
      </trkpt>
      <trkpt lat="43.656" lon="1.44673">
        <ele>181.479197</ele>
        <time>2022-03-26T17:27:45.093Z</time>
      </trkpt>
      <trkpt lat="43.65606" lon="1.44659">
        <ele>181.453284</ele>
        <time>2022-03-26T17:27:48.079Z</time>
      </trkpt>
      <trkpt lat="43.65605" lon="1.44645">
        <ele>181.453284</ele>
        <time>2022-03-26T17:27:53.092Z</time>
      </trkpt>
      <trkpt lat="43.65597" lon="1.44639">
        <ele>181.453284</ele>
        <time>2022-03-26T17:27:57.073Z</time>
      </trkpt>
      <trkpt lat="43.65587" lon="1.44634">
        <ele>181.453284</ele>
        <time>2022-03-26T17:28:00.080Z</time>
      </trkpt>
      <trkpt lat="43.6558" lon="1.44626">
        <ele>181.453284</ele>
        <time>2022-03-26T17:28:03.099Z</time>
      </trkpt>
      <trkpt lat="43.65574" lon="1.44613">
        <ele>181.453284</ele>
        <time>2022-03-26T17:28:07.097Z</time>
      </trkpt>
      <trkpt lat="43.65564" lon="1.44608">
        <ele>181.453284</ele>
        <time>2022-03-26T17:28:11.079Z</time>
      </trkpt>
      <trkpt lat="43.65569" lon="1.44594">
        <ele>181.453284</ele>
        <time>2022-03-26T17:29:09.085Z</time>
      </trkpt>
      <trkpt lat="43.65576" lon="1.44584">
        <ele>181.453284</ele>
        <time>2022-03-26T17:29:14.076Z</time>
      </trkpt>
      <trkpt lat="43.65582" lon="1.44583">
        <ele>181.453284</ele>
        <time>2022-03-26T17:30:18.250Z</time>
      </trkpt>
    </trkseg>
  </trk>
</gpx>